     2              OBSERVATION DATA    GPS                 RINEX VERSION / TYPE
teqc 2000Jul20 Karen Wendt 20040114 20:24:08UTC             PGM / RUN BY / DATE
                                                            COMMENT
L2: 1 -> 1; 150 -> 5; 250 -> 9                              COMMENT
L2: 1 -> 1; 150 -> 5; 250 -> 9                              COMMENT
L2: 1 -> 1; 150 -> 5; 250 -> 9                              COMMENT
L2: 1 -> 1; 150 -> 5; 250 -> 9                              COMMENT
L2: 1 -> 1; 150 -> 5; 250 -> 9                              COMMENT
L2: 1 -> 1; 150 -> 5; 250 -> 9                              COMMENT
L2: 1 -> 1; 150 -> 5; 250 -> 9                              COMMENT
L2: 1 -> 1; 150 -> 5; 250 -> 9                              COMMENT
L2: 1 -> 1; 150 -> 5; 250 -> 9                              COMMENT
L2: 1 -> 1; 150 -> 5; 250 -> 9                              COMMENT
L2: 1 -> 1; 150 -> 5; 250 -> 9                              COMMENT
L2: 1 -> 1; 150 -> 5; 250 -> 9                              COMMENT
L2: 1 -> 1; 150 -> 5; 250 -> 9                              COMMENT
L2: 1 -> 1; 150 -> 5; 250 -> 9                              COMMENT
Original Marker Name: 2069 2069_smtpd_SLO_101_PM_5229_05LL_1COMMENT
Campaign Name: USGS San Simeon 2003-2004                    COMMENT
4-Character Station Name: 2069                              COMMENT
6-Character Antenna Code: DMRCHT                            COMMENT
Vertical Measurement Point: BCR                             COMMENT
Vertical Offset to Rinex Ref. Point: 0.0348                 COMMENT
Radial Measurement Point: ECF                               COMMENT
Radial Offset to Rinex Ref. Point: 0.1897                   COMMENT
Antenna Height from Field Measurement: 1.4990 m             COMMENT
Additional Antenna Identification Info.:                    COMMENT
Turborogue and Ashtech Choke Ring                           COMMENT
Original XYZ: -2652414.2858 -4466124.7948 3689198.2509      COMMENT
New XYZ position is based on association with SCEC monument COMMENT
E1F1B1O7+0011. Position of that monument is believed to be  COMMENT
valid to within 1 m horizontally; vertical accuracy         COMMENT
should be no worse than 3-times this value.                 COMMENT
                                                            COMMENT
Revised Rinex header created by UCSD GPS archive for        COMMENT
GSAC on 20-Apr-2005 (2005:110) 16:30:24 GMT                 COMMENT
For assistance contact dagnew@ucsd.edu                      COMMENT
or anderson@python.ucsd.edu                                 COMMENT
                                                            COMMENT
SLO 101 PM5229 1993 05LL                                    MARKER NAME
JMS US GEOLOGICAL SURVEY                                    OBSERVER / AGENCY
LP019992809 ASHTECH Z-XII3 CD00                             REC # / TYPE / VERS
CR619992805 DORNE-MARGOL. TYPE T                            ANT # / TYPE
 -2652433.0000 -4466104.0000  3689192.0000                  APPROX POSITION XYZ
        1.4521        0.0000        0.0000                  ANTENNA: DELTA H/E/N
     1     1     0                                          WAVELENGTH FACT L1/2
     5    C1    L1    L2    P1    P2                        # / TYPES OF OBSERV
    30                                                      INTERVAL
  2004     1    10     0     0   30.000000                  TIME OF FIRST OBS
  2004     1    10    23    59   30.000000                  TIME OF LAST OBS
                                                            END OF HEADER
 04  1 10  0  0 30.0000000  0  7G 5G21G30G10G 6G17G24
  21344095.605   -13812924.30349 -10705129.35447  21344094.711    21344099.805
  23687932.544    -2534911.98049  -1952517.91845  23687931.345    23687935.091
  20215838.870   -17427628.29449 -13324474.24548  20215838.736    20215842.677
  20990711.691   -17499840.49949 -13611048.98847  20990710.394    20990715.547
  21743482.843   -10879131.81049  -8468002.22247  21743482.260    21743487.052
  20741194.802   -15362036.75749 -11952187.70748  20741193.850    20741199.079
  22742504.581    -4405138.10749  -3418986.31747  22742503.982    22742509.705
 04  1 10  0  1  0.0000000  0  7G 5G21G30G10G 6G17G24
  21358464.453   -13737415.97849 -10646291.71647  21358463.493    21358468.467
  23672139.838    -2617904.21249  -2017187.11345  23672138.749    23672142.594
  20216384.823   -17424759.31249 -13322238.67248  20216384.678    20216388.626
  20989757.982   -17504851.82749 -13614953.90747  20989756.734    20989761.947
  21732456.808   -10937073.87649  -8513151.86547  21732456.234    21732460.943
  20746447.030   -15334435.90649 -11930680.55148  20746446.114    20746451.351
  22757864.767    -4324419.91849  -3356089.04347  22757864.208    22757869.819
 04  1 10  0  1 30.0000000  0  7G 5G21G30G10G 6G17G24
  21372908.498   -13661511.57449 -10587145.44647  21372907.574    21372912.529
  23656382.326    -2700711.08349  -2081711.86445  23656381.298    23656385.051
  20217042.719   -17421302.13149 -13319544.76648  20217042.593    20217046.499
  20988925.174   -17509227.99049 -13618363.89247  20988923.970    20988929.235
  21721452.833   -10994899.83649  -8558211.04247  21721452.291    21721456.958
  20751757.973   -15306526.58249 -11908933.02748  20751757.088    20751762.337
  22773239.440    -4243626.17349  -3293132.88947  22773238.775    22773244.326
 04  1 10  0  2  0.0000000  0  7G 5G21G30G10G 6G17G24
  21387428.476   -13585208.59649 -10527688.58847  21387427.542    21387432.491
  23640661.164    -2783327.68949  -2146088.33845  23640659.951    23640663.704
  20217813.388   -17417252.07049 -13316388.86248  20217813.279    20217817.180
  20988214.205   -17512964.49849 -13621275.43547  20988212.992    20988218.268
  21710472.001   -11052604.28949  -8603175.52747  21710471.453    21710476.133
  20757128.200   -15278305.99949 -11886942.95348  20757127.290    20757132.556
  22788628.812    -4162754.01349  -3230115.63546  22788628.171    22788633.762
 04  1 10  0  2 30.0000000  0  7G 5G21G30G10G 6G17G24
  21402023.248   -13508512.12149 -10467925.13247  21402022.348    21402027.251
  23624975.558    -2865756.49249  -2210318.47745  23624974.280    23624977.943
  20218696.380   -17412612.00649 -13312773.23348  20218696.278    20218700.159
  20987624.478   -17516063.92449 -13623690.56247  20987623.231    20987628.500
  21699514.019   -11110189.27949  -8648046.94347  21699513.439    21699518.029
  20762556.850   -15249778.21849 -11864713.52148  20762555.942    20762561.226
  22804032.311    -4081807.98249  -3167040.82846  22804031.707    22804037.276
 04  1 10  0  3  0.0000000  0  7G 5G21G30G10G 6G17G24
  21416693.312   -13431420.00549 -10407853.36447  21416692.433    21416697.343
  23609326.807    -2947991.96949  -2274397.96045  23609325.434    23609328.860
  20219692.579   -17407377.09349 -13308694.07548  20219692.478    20219696.351
  20987156.803   -17518521.50649 -13625605.54347  20987155.545    20987160.805
  21688579.887   -11167649.09149  -8692820.79847  21688579.289    21688583.690
  20768044.567   -15220940.18849 -11842242.32048  20768043.623    20768048.895
  22819450.532    -4000784.87949  -3103905.95246  22819449.933    22819455.426
 04  1 10  0  3 30.0000000  0  7G 5G21G30G10G 6G17G24
  21431438.033   -13353935.60449 -10347475.93647  21431437.175    21431442.086
  23593714.366    -3030036.05649  -2338328.30745  23593713.002    23593716.264
  20220801.587   -17401549.22949 -13304152.88248  20220801.480    20220805.341
  20986810.879   -17520338.98849 -13627021.75447  20986809.614    20986814.906
  21677669.327   -11224984.65949  -8737497.85247  21677668.702    21677672.953
  20773590.562   -15191795.36849 -11819532.07348  20773589.693    20773594.968
  22834882.806    -3919688.37749  -3040713.88746  22834882.190    22834887.564
 04  1 10  0  4  0.0000000  0  7G 5G21G30G10G 6G17G24
  21446256.411   -13276064.28349 -10286796.99647  21446255.556    21446260.479
  23578138.067    -3111890.36049  -2402110.78345  23578136.835    23578139.956
  20222022.901   -17395131.11149 -13299151.74748  20222022.795    20222026.643
  20986586.255   -17521519.13349 -13627941.32447  20986584.990    20986590.310
  21666782.019   -11282197.71249  -8782079.43347  21666781.419    21666785.596
  20779194.233   -15162347.90749 -11796585.99248  20779193.374    20779198.670
  22850328.163    -3838522.73949  -2977467.93946  22850327.567    22850332.828
 04  1 10  0  4 30.0000000  0  7G 5G21G30G10G 6G17G24
  21461148.854   -13197803.86149 -10225814.87247  21461148.046    21461152.958
  23562598.578    -3193550.56349  -2465742.02545  23562597.403    23562600.331
  20223357.348   -17388118.67649 -13293687.51248  20223357.261    20223361.069
  20986483.642   -17522057.95249 -13628361.18447  20986482.431    20986487.777
  21655918.947   -11339283.39249  -8826561.77047  21655918.420    21655922.563
  20784855.993   -15132595.25149 -11773402.10648  20784855.084    20784860.362
  22865787.107    -3757285.73349  -2914166.38146  22865786.445    22865791.638
 04  1 10  0  5  0.0000000  0  7G 5G21G30G10G 6G17G24
  21476114.938   -13119157.38749 -10164531.93047  21476114.055    21476118.982
  23547096.279    -3275016.60249  -2529221.92945  23547094.886    23547097.882
  20224804.771   -17380512.60449 -13287760.70248  20224804.639    20224808.456
  20986502.995   -17521955.93149 -13628281.68747  20986501.777    20986507.187
  21645080.277   -11396241.16849  -8870944.44247  21645079.723    21645083.925
  20790575.366   -15102539.47449 -11749982.01548  20790574.465    20790579.734
  22881259.087    -3675979.52949  -2850810.90546  22881258.445    22881263.717
 04  1 10  0  5 30.0000000  0  7G 5G21G30G10G 6G17G24
  21491153.549   -13040129.13849 -10102951.50347  21491152.704    21491157.581
  23531630.573    -3356290.08649  -2592551.84345  23531629.062    23531631.727
  20226364.775   -17372314.72349 -13281372.74148  20226364.659    20226368.465
  20986643.935   -17521214.97749 -13627704.31447  20986642.740    20986648.169
  21634265.671   -11453072.10549  -8915228.27347  21634265.100    21634269.397
  20796351.885   -15072183.90449 -11726328.32048  20796350.976    20796356.206
  22896743.643    -3594607.63449  -2787404.24546  22896742.965    22896748.356
 04  1 10  0  6  0.0000000  0  7G 5G21G30G10G 6G17G24
  21506264.462   -12960721.43549 -10041075.39147  21506263.563    21506268.416
  23516201.172    -3437370.50749  -2655731.30945  23516199.952    23516202.614
  20228037.346   -17363525.20649 -13274523.76548  20228037.231    20228041.068
  20986906.401   -17519835.73949 -13626629.57247  20986905.208    20986910.614
  21623475.346   -11509775.45549  -8959412.69447  21623474.770    21623479.150
  20802185.157   -15041530.23949 -11702442.34148  20802184.218    20802189.427
  22912240.259    -3513171.74749  -2723947.72146  22912239.647    22912245.102
 04  1 10  0  6 30.0000000  0  7G 5G21G30G10G 6G17G24
  21521447.767   -12880933.11649  -9978902.69647  21521446.852    21521451.698
  23500809.423    -3518253.92549  -2718757.24145  23500808.189    23500810.553
  20229823.033   -17354141.13949 -13267211.50648  20229822.915    20229826.767
  20987291.046   -17517814.79349 -13625054.80247  20987289.802    20987295.197
  21612710.120   -11566346.75549  -9003494.22447  21612709.622    21612713.952
  20808075.411   -15010576.73449 -11678322.72548  20808074.500    20808079.726
  22927749.444    -3431670.16949  -2660440.00146  22927748.860    22927754.364
 04  1 10  0  7  0.0000000  0  7G 5G21G30G10G 6G17G24
  21536702.694   -12800767.99049  -9916436.39247  21536701.812    21536706.679
  23485454.643    -3598941.55149  -2781630.62145  23485453.629    23485455.854
  20231721.643   -17344163.92049 -13259437.05748  20231721.541    20231725.394
  20987797.433   -17515153.70449 -13622981.22147  20987796.161    20987801.504
  21601970.036   -11622786.41149  -9047473.16747  21601969.528    21601973.799
  20814022.160   -14979326.52849 -11653971.91448  20814021.213    20814026.402
  22943270.623    -3350106.16149  -2596883.64446  22943269.975    22943275.516
 04  1 10  0  7 30.0000000  0  7G 5G21G30G10G 6G17G24
  21552028.773   -12720229.02249  -9853678.76947  21552027.872    21552032.786
  23470136.970    -3679433.37049  -2844351.43145  23470136.253    23470138.575
  20233732.911   -17333594.48649 -13251201.13448  20233732.808    20233736.701
  20988425.435   -17511853.27849 -13620409.45747  20988424.176    20988429.550
  21591255.094   -11679094.30049  -9091349.42747  21591254.505    21591258.701
  20820024.881   -14947781.50849 -11629391.37848  20820023.967    20820029.230
  22958802.985    -3268481.98049  -2533280.39846  22958802.412    22958808.111
 04  1 10  0  8  0.0000000  0  7G 5G21G30G10G 6G17G24
  21567425.764   -12639316.87349  -9790630.36347  21567424.912    21567429.914
  23454857.255    -3759727.36249  -2906918.11145  23454856.561    23454858.954
  20235857.150   -17322431.41749 -13242502.64348  20235857.058    20235861.016
  20989175.324   -17507912.15949 -13617338.45347  20989174.117    20989179.489
  21580565.593   -11735267.62449  -9135120.84047  21580565.036    21580569.231
  20826083.708   -14915941.88549 -11604581.28548  20826082.823    20826088.099
  22974346.935    -3186797.47249  -2469630.14546  22974346.381    22974352.260
 04  1 10  0  8 30.0000000  0  7G 5G21G30G10G 6G17G24
  21582893.044   -12558035.34949  -9727294.14947  21582892.225    21582897.328
  23439615.059    -3839824.94449  -2969331.71845  23439614.343    23439617.166
  20238094.008   -17310676.53149 -13233342.99648  20238093.939    20238097.920
  20990046.821   -17503332.17349 -13613769.63347  20990045.624    20990050.996
  21569901.622   -11791307.09149  -9178787.95247  21569901.058    21569905.225
  20832198.111   -14883810.42049 -11579543.78148  20832197.250    20832202.518
  22989901.842    -3105055.88049  -2405935.41046  22989901.213    22989907.242
 04  1 10  0  9  0.0000000  0  7G 5G21G30G10G 6G17G24
  21598429.922   -12476388.11949  -9663672.97347  21598429.109    21598434.324
  23424410.163    -3919726.62149  -3031592.69445  23424409.340    23424412.672
  20240443.272   -17298331.15249 -13223723.22548  20240443.163    20240447.199
  20991039.669   -17498114.89949 -13609704.22247  20991038.476    20991043.749
  21559263.136   -11847212.89049  -9222350.90847  21559262.513    21559266.646
  20838367.448   -14851390.18549 -11554281.26348  20838366.589    20838371.839
  23005467.085    -3023259.68049  -2342198.14346  23005466.477    23005472.597
 04  1 10  0  9 30.0000000  0  7G 5G21G30G10G 6G17G24
  21614036.627   -12394374.01149  -9599765.90147  21614035.825    21614041.142
  23409243.649    -3999428.47549  -3093697.94445  23409242.549    23409245.959
  20242905.446   -17285392.36749 -13213641.05348  20242905.318    20242909.375
  20992154.400   -17492257.19749 -13605139.76747  20992153.205    20992158.378
  21548650.862   -11902980.65149  -9265806.29447  21548650.300    21548654.431
  20844592.157   -14818679.10549 -11528792.10948  20844591.290    20844596.561
  23021042.847    -2941407.71949  -2278417.39646  23021042.324    23021048.548
 04  1 10  0 10  0.0000000  0  7G 5G21G30G10G 6G17G24
  21629712.318   -12311997.61449  -9535576.53447  21629711.502    21629716.851
  23394114.527    -4078932.40949  -3155648.98545  23394113.432    23394116.915
  20245480.151   -17271862.33949 -13203098.18548  20245480.026    20245484.056
  20993390.505   -17485761.54649 -13600078.22347  20993389.309    20993394.402
  21538064.699   -11958611.35449  -9309154.88447  21538064.158    21538068.240
  20850871.602   -14785681.01349 -11503079.30648  20850870.673    20850875.943
  23036628.759    -2859503.25849  -2214595.75346  23036628.224    23036634.426
 04  1 10  0 10 30.0000000  0  7G 5G21G30G10G 6G17G24
  21645456.807   -12229260.30049  -9471105.92747  21645455.933    21645461.279
  23379023.449    -4158236.92549  -3217444.64645  23379022.349    23379025.793
  20248167.415   -17257740.74249 -13192094.34648  20248167.275    20248171.301
  20994748.197   -17478627.19849 -13594518.97247  20994746.949    20994752.016
  21527504.976   -12014103.15249  -9352395.22447  21527504.439    21527508.521
  20857205.444   -14752396.41749 -11477143.25248  20857204.438    20857209.770
  23052224.514    -2777546.81049  -2150733.60746  23052223.958    23052230.129
 04  1 10  0 11  0.0000000  0  7G 5G21G30G10G 6G17G24
  21661268.868   -12146167.71749  -9406358.49947  21661268.036    21661273.330
  23363969.762    -4237344.99849  -3279087.21645  23363968.661    23363972.240
  20250966.578   -17243031.08049 -13180632.27448  20250966.438    20250970.489
  20996226.547   -17470858.11749 -13588465.14147  20996225.316    20996230.446
  21516971.187   -12069458.39349  -9395529.16047  21516970.641    21516974.775
  20863592.799   -14718830.22949 -11450987.78048  20863591.826    20863597.234
  23067829.061    -2695543.52849  -2086834.95746  23067828.575    23067834.831
 04  1 10  0 11 30.0000000  0  7G 5G21G30G10G 6G17G24
  21677149.459   -12062715.41149  -9341330.76947  21677148.592    21677153.840
  23348954.653    -4316249.23249  -3340570.98345  23348953.576    23348957.216
  20253878.861   -17227726.90249 -13168706.95148  20253878.692    20253882.780
  20997826.913   -17462447.78049 -13581911.63647  20997825.698    20997830.884
  21506464.922   -12124669.17149  -9438550.53347  21506464.385    21506468.544
  20870034.792   -14684977.14949 -11424608.75948  20870033.826    20870039.306
  23083443.701    -2613487.98349  -2022895.59346  23083443.145    23083449.445
 04  1 10  0 12  0.0000000  0  7G 5G21G30G10G 6G17G24
  21693097.286   -11978910.24049  -9276028.07547  21693096.302    21693101.528
  23333977.506    -4394953.90049  -3401899.22345  23333976.534    23333980.303
  20256903.280   -17211833.26049 -13156322.29848  20256903.138    20256907.261
  20999548.452   -17453401.04449 -13574862.22247  20999547.226    20999552.420
  21495985.374   -12179738.98549  -9481462.05547  21495984.899    21495989.131
  20876530.164   -14650843.26549 -11398010.92848  20876529.240    20876534.795
  23099067.098    -2531386.43549  -1958920.37546  23099066.569    23099072.885
 04  1 10  0 12 30.0000000  0  7G 5G21G30G10G 6G17G24
  21709111.753   -11894753.68549  -9210451.57247  21709110.845    21709116.064
  23319038.691    -4473457.58049  -3463070.87345  23319037.757    23319041.598
  20260040.006   -17195349.50549 -13143477.81948  20260039.876    20260043.986
  21001391.135   -17443717.55649 -13567316.65147  21001389.950    21001395.130
  21485533.129   -12234665.82449  -9524262.17547  21485532.675    21485536.965
  20883078.994   -14616428.98449 -11371194.60548  20883078.076    20883083.642
  23114699.324    -2449239.04149  -1894909.44746  23114698.777    23114704.997
 04  1 10  0 13  0.0000000  0  7G 5G21G30G10G 6G17G24
  21725192.657   -11810248.49549  -9144603.41047  21725191.703    21725196.951
  23304137.885    -4551760.54449  -3524086.11045  23304137.032    23304141.042
  20263288.872   -17178276.61949 -13130174.28148  20263288.747    20263292.852
  21003354.871   -17433398.26449 -13559275.63647  21003353.661    21003358.782
  21475108.226   -12289449.08949  -9566950.41647  21475107.772    21475112.124
  20889680.755   -14581736.36449 -11344161.39648  20889679.826    20889685.424
  23130339.873    -2367047.93549  -1830864.43846  23130339.319    23130345.404
 04  1 10  0 13 30.0000000  0  7G 5G21G30G10G 6G17G24
  21741339.899   -11725394.76849  -9078483.66547  21741338.884    21741344.213
  23289275.883    -4629859.65049  -3584942.50145  23289275.111    23289279.223
  20266650.215   -17160612.65849 -13116410.16648  20266650.100    20266654.164
  21005439.913   -17422441.33549 -13550737.75947  21005438.678    21005443.792
  21464711.364   -12344085.10949  -9609523.92047  21464710.870    21464715.311
  20896335.625   -14546764.56249 -11316910.64048  20896334.758    20896340.342
  23145988.807    -2284812.47549  -1766784.88346  23145988.255    23145994.252
 04  1 10  0 14  0.0000000  0  7G 5G21G30G10G 6G17G24
  21757552.266   -11640197.95349  -9012096.57047  21757551.321    21757556.711
  23274452.098    -4707757.73849  -3645642.26145  23274451.363    23274455.730
  20270123.374   -17142361.24349 -13102188.28648  20270123.246    20270127.299
  21007645.506   -17410850.50549 -13541705.93747  21007644.311    21007649.443
  21454342.028   -12398576.17449  -9651984.47247  21454341.509    21454345.977
  20903042.908   -14511518.28449 -11289446.00648  20903041.925    20903047.494
  23161645.266    -2202537.03349  -1702674.17046  23161644.727    23161650.625
 04  1 10  0 14 30.0000000  0  7G 5G21G30G10G 6G17G24
  21773830.222   -11554656.71649  -8945441.09547  21773829.302    21773834.723
  23259667.500    -4785450.60249  -3706182.07745  23259666.858    23259671.242
  20273708.924   -17123518.98349 -13087506.01248  20273708.793    20273712.814
  21009972.344   -17398622.44349 -13532177.57547  21009971.160    21009976.392
  21444001.225   -12452917.29649  -9694328.18747  21444000.677    21444005.182
  20909802.752   -14475995.00949 -11261765.53148  20909801.785    20909807.345
  23177309.913    -2120219.03849  -1638530.29446  23177309.363    23177315.211
 04  1 10  0 15  0.0000000  0  7G 5G21G30G10G 6G17G24
  21790172.807   -11468776.05449  -8878521.12147  21790171.848    21790177.311
  23244921.754    -4862940.82949  -3766564.01745  23244920.876    23244925.312
  20277406.259   -17104089.29249 -13072365.99748  20277406.154    20277410.190
  21012419.738   -17385760.76249 -13522155.48047  21012418.586    21012423.933
  21433688.621   -12507110.25749  -9736556.45447  21433688.097    21433692.589
  20916614.496   -14440199.39449 -11233872.83748  20916613.450    20916618.997
  23192981.758    -2037863.07049  -1574356.81746  23192981.154    23192987.093
 04  1 10  0 15 30.0000000  0  7G 5G21G30G10G 6G17G24
  21806579.912   -11382555.16149  -8811336.02847  21806579.060    21806584.584
  23230214.963    -4940224.55649  -3826785.05945  23230214.127    23230218.639
  20281215.981   -17084069.44849 -13056766.13048  20281215.836    20281219.826
  21014988.248   -17372262.87149 -13511637.64647  21014987.117    21014992.554
  21423405.022   -12561150.71749  -9778665.88747  21423404.496    21423409.026
  20923478.297   -14404129.48649 -11205766.42048  20923477.308    20923482.920
  23208661.117    -1955467.31349  -1510152.35346  23208660.529    23208666.572
 04  1 10  0 16  0.0000000  0  7G 5G21G30G10G 6G17G24
  21823050.079   -11296003.70349  -8743893.36247  21823049.148    21823054.724
  23215546.556    -5017308.09149  -3886850.09345  23215545.513    23215550.074
  20285136.467   -17063466.89349 -13040712.19648  20285136.332    20285140.339
  21017676.505   -17358136.12049 -13500629.78047  21017675.376    21017680.791
  21413149.368   -12615044.15549  -9820660.75547  21413148.836    21413153.382
  20930392.719   -14367793.73949 -11177452.84548  20930391.761    20930397.377
  23224346.482    -1873039.78649  -1445923.11846  23224345.880    23224352.091
 04  1 10  0 16 30.0000000  0  7G 5G21G30G10G 6G17G24
  21839583.883   -11209117.34449  -8676189.71647  21839582.982    21839588.635
  23200917.398    -5094184.22149  -3946753.53045  23200916.310    23200920.931
  20289169.043   -17042275.14449 -13024199.15248  20289168.941    20289172.997
  21020485.745   -17343373.97549 -13489126.80547  21020484.601    21020489.933
  21402923.198   -12668782.57749  -9862534.84147  21402922.655    21402927.256
  20937358.785   -14331186.61449 -11148927.81648  20937357.849    20937363.490
  23240038.857    -1790575.25049  -1381665.05246  23240038.336    23240044.611
 04  1 10  0 17  0.0000000  0  7G 5G21G30G10G 6G17G24
  21856180.771   -11121899.63149  -8608227.88847  21856179.912    21856185.605
  23186327.656    -5170854.29849  -4006496.40845  23186326.430    23186330.957
  20293313.343   -17020496.51249 -13007228.79748  20293313.252    20293317.330
  21023415.373   -17327978.90049 -13477130.63547  21023414.173    21023419.519
  21392726.465   -12722366.30149  -9904288.38947  21392725.944    21392730.614
  20944375.909   -14294311.21549 -11120193.73848  20944375.011    20944380.617
  23255737.686    -1708076.61749  -1317380.40646  23255737.228    23255743.544
 04  1 10  0 17 30.0000000  0  7G 5G21G30G10G 6G17G24
  21872839.826   -11034355.16849  -8540011.43747  21872839.049    21872844.794
  23171776.743    -5247320.38649  -4066080.32645  23171775.344    23171779.847
  20297568.753   -16998134.00549 -12989803.47248  20297568.646    20297572.768
  21026464.679   -17311953.94749 -13464643.65147  21026463.522    21026468.959
  21382558.882   -12775796.62549  -9945922.39747  21382558.433    21382563.125
  20951443.309   -14257171.43549 -11091253.65548  20951442.468    20951448.082
  23271442.370    -1625547.63649  -1253072.11646  23271441.877    23271448.275
 04  1 10  0 18  0.0000000  0  7G 5G21G30G10G 6G17G24
  21889561.106   -10946484.57749  -8471540.86547  21889560.253    21889566.084
  23157264.990    -5323579.89549  -4125503.26545  23157263.620    23157268.086
  20301935.566   -16975186.04149 -12971921.94548  20301935.473    20301939.597
  21029634.101   -17295297.99949 -13451664.98047  21029632.998    21029638.473
  21372421.284   -12829070.11349  -9987434.19447  21372420.771    21372425.473
  20958561.260   -14219766.51549 -11062106.96648  20958560.440    20958566.013
  23287153.250    -1542987.11249  -1188739.24946  23287152.680    23287159.115
 04  1 10  0 18 30.0000000  0  7G 5G21G30G10G 6G17G24
  21906343.856   -10858290.59149  -8402818.31347  21906343.054    21906348.910
  23142792.272    -5399632.81149  -4184765.24745  23142791.159    23142795.736
  20306413.625   -16951653.61949 -12953584.99848  20306413.513    20306417.654
  21032923.486   -17278012.04749 -13438195.40347  21032922.381    21032927.844
  21362313.631   -12882185.90149 -10028823.11547  21362313.148    21362317.819
  20965729.357   -14182098.38549 -11032755.18248  20965728.488    20965734.015
  23302869.720    -1460396.78349  -1124383.17146  23302869.090    23302875.600
 04  1 10  0 19  0.0000000  0  7G 5G21G30G10G 6G17G24
  21923187.763   -10769776.14749  -8333846.04647  21923186.893    21923192.760
  23128358.963    -5475478.74549  -4243865.91845  23128357.982    23128362.670
  20311002.706   -16927537.78149 -12934793.43848  20311002.576    20311006.745
  21036332.657   -17260096.97349 -13424235.59147  21036331.511    21036336.946
  21352236.109   -12935143.35249 -10070088.64447  21352235.625    21352240.278
  20972947.140   -14144168.61949 -11003199.52248  20972946.281    20972951.755
  23318591.390    -1377778.94449  -1060005.64146  23318590.726    23318597.343
 04  1 10  0 19 30.0000000  0  7G 5G21G30G10G 6G17G24
  21940092.641   -10680941.07449  -8264623.95147  21940091.721    21940097.567
  23113965.695    -5551115.53549  -4302803.64746  23113964.705    23113969.464
  20315703.046   -16902837.06549 -12915546.13648  20315702.932    20315707.098
  21039861.759   -17241551.62149 -13409784.65947  21039860.607    21039866.008
  21342189.400   -12987939.03949 -10111228.13847  21342188.900    21342193.488
  20980214.845   -14105976.84449 -10973439.70448  20980213.990    20980219.394
  23334318.654    -1295132.42949   -995605.77546  23334317.858    23334324.524
 04  1 10  0 20  0.0000000  0  7G 5G21G30G10G 6G17G24
  21957057.249   -10591791.83649  -8195157.04947  21957056.316    21957062.199
  23099611.588    -5626546.38749  -4361580.87346  23099610.592    23099615.393
  20320513.828   -16877556.02349 -12895846.63148  20320513.731    20320517.954
  21043509.824   -17222380.61649 -13394846.21047  21043508.662    21043514.147
  21332172.900   -13040575.63749 -10152243.66347  21332172.404    21332177.058
  20987531.357   -14067528.27849 -10943479.78948  20987530.475    20987535.887
  23350050.191    -1212462.06949   -931187.34346  23350049.428    23350056.272
 04  1 10  0 20 30.0000000  0  7G 5G21G30G10G 6G17G24
  21974081.863   -10502327.18749  -8125444.36047  21974080.940    21974086.863
  23085297.659    -5701766.92749  -4420194.23546  23085296.572    23085301.377
  20325435.517   -16851691.66349 -12875692.58748  20325435.474    20325439.768
  21047277.585   -17202580.92349 -13379417.86947  21047276.414    21047281.925
  21322187.636   -13093048.08449 -10193131.28347  21322187.177    21322191.887
  20994897.179   -14028820.49449 -10913317.89048  20994896.326    20994901.748
  23365786.677    -1129765.69049   -866748.63046  23365785.933    23365792.993
 04  1 10  0 21  0.0000000  0  7G 5G21G30G10G 6G17G24
  21991165.582   -10412551.83349  -8055489.57647  21991164.653    21991170.620
  23071023.135    -5776779.75449  -4478645.74346  23071022.054    23071026.817
  20330467.687   -16825247.25349 -12855086.55848  20330467.650    20330471.954
  21051164.287   -17182155.98849 -13363502.32647  21051163.123    21051168.689
  21312233.458   -13145357.51649 -10233891.87047  21312232.968    21312237.742
  21002311.624   -13989857.47549 -10882957.10048  21002310.713    21002316.150
  23381527.523    -1047047.09749   -802292.59446  23381526.735    23381533.934
 04  1 10  0 21 30.0000000  0  7G 5G21G30G10G 6G17G24
  22008307.648   -10322469.46449  -7985295.55147  22008306.736    22008312.782
  23056787.852    -5851585.21949  -4536935.67546  23056786.929    23056791.730
  20335609.912   -16798224.68049 -12834030.01348  20335609.870    20335614.153
  21055169.557   -17161107.97849 -13347101.27547  21055168.420    21055173.965
  21302310.318   -13197503.99149 -10274525.48247  21302309.828    21302314.652
  21009774.136   -13950641.78649 -10852399.42748  21009773.247    21009778.640
  23397271.951     -964308.65149   -737821.09646  23397271.206    23397278.591
 04  1 10  0 22  0.0000000  0  7G 5G21G30G10G 6G17G24
  22025508.423   -10232079.10149  -7914861.54047  22025507.498    22025513.576
  23042592.879    -5926179.69649  -4595061.20446  23042592.006    23042596.831
  20340862.771   -16770621.08049 -12812520.72948  20340862.664    20340866.913
  21059294.024   -17139433.96249 -13330212.42447  21059292.875    21059298.352
  21292419.108   -13249482.48249 -10315028.20447  21292418.635    21292423.497
  21017285.125   -13911171.08349 -10821643.04948  21017284.207    21017289.678
  23413020.731     -881547.81049   -673332.15446  23413020.043    23413027.484
 04  1 10  0 22 30.0000000  0  7G 5G21G30G10G 6G17G24
  22042767.061   -10141384.29749  -7844190.29347  22042766.131    22042772.248
  23028437.954    -6000563.82749  -4653022.83246  23028437.085    23028442.000
  20346225.687   -16742438.80449 -12790560.51748  20346225.561    20346229.803
  21063537.158   -17117136.31849 -13312837.61847  21063535.997    21063541.432
  21282559.877   -13301293.08349 -10355400.09047  21282559.371    21282564.237
  21024844.131   -13871448.42049 -10790690.32348  21024843.224    21024848.674
  23428773.440     -798767.15649   -608827.77346  23428772.758    23428780.077
 04  1 10  0 23  0.0000000  0  7G 5G21G30G10G 6G17G24
  22060083.196   -10050387.87749  -7773284.03147  22060082.263    22060088.311
  23014323.181    -6074737.28749  -4710820.29046  23014322.326    23014327.234
  20351698.579   -16713678.55749 -12768149.94148  20351698.442    20351702.676
  21067898.805   -17094216.04149 -13294977.65547  21067897.618    21067903.047
  21272732.809   -13352934.44949 -10395640.11247  21272732.344    21272737.177
  21032450.837   -13831475.03549 -10759542.23648  21032449.888    21032455.371
  23444529.681     -715968.20349   -544309.12146  23444529.050    23444536.099
 04  1 10  0 23 30.0000000  0  7G 5G21G30G10G 6G17G24
  22077456.244    -9959092.80949  -7702145.03947  22077455.285    22077461.232
  23000248.399    -6148700.65049  -4768454.04246  23000247.610    23000252.467
  20357281.085   -16684341.99249 -12745290.29048  20357280.988    20357285.231
  21072378.515   -17070674.91849 -13276633.91347  21072377.327    21072382.768
  21262938.105   -13404406.17149 -10435747.94147  21262937.644    21262942.445
  21040104.720   -13791253.28649 -10728200.62348  21040103.799    21040109.305
  23460289.120     -633152.69849   -479777.57746  23460288.470    23460295.252
 04  1 10  0 24  0.0000000  0  7G 5G21G30G10G 6G17G24
  22094884.845    -9867505.80449  -7630778.56747  22094883.870    22094889.656
  22986212.949    -6222458.11849  -4825927.36446  22986212.087    22986216.848
  20362972.271   -16654434.48149 -12721985.74848  20362972.198    20362976.434
  21076975.367   -17046518.17149 -13257810.47547  21076974.204    21076979.680
  21253175.124   -13455711.14349 -10475725.83347  21253174.673    21253179.459
  21047804.904   -13750788.76849 -10696669.83848  21047803.938    21047809.429
  23476050.426     -550326.34249   -415237.58246  23476049.859    23476056.425
 04  1 10  0 24 30.0000000  0  7G 5G21G30G10G 6G17G24
  22112370.086    -9775621.35149  -7559180.30747  22112369.085    22112374.701
  22972218.197    -6296001.19649  -4883233.62546  22972217.315    22972221.999
  20368773.540   -16623948.50349 -12698230.44648  20368773.501    20368777.738
  21081690.764   -17021738.76649 -13238501.84547  21081689.590    21081695.062
  21243445.758   -13506839.80749 -10515566.34047  21243445.249    21243450.040
  21055552.481   -13710074.80049 -10664944.67548  21055551.575    21055557.069
  23491815.273     -467482.16349   -350683.68846  23491814.764    23491821.108
 04  1 10  0 25  0.0000000  0  7G 5G21G30G10G 6G17G24
  22129910.418    -9683446.75649  -7487355.96847  22129909.462    22129914.958
  22958263.500    -6369333.90549  -4940375.97546  22958262.636    22958267.273
  20374683.667   -16592890.22749 -12674029.20048  20374683.690    20374687.934
  21086523.449   -16996343.07149 -13218712.98847  21086522.314    21086527.691
  21233749.061   -13557796.08049 -10555272.51847  21233748.572    21233753.403
  21063346.393   -13669117.79849 -10633030.13248  21063345.489    21063350.922
  23507582.559     -384625.92849   -286120.39846  23507581.989    23507588.174
 04  1 10  0 25 30.0000000  0  7G 5G21G30G10G 6G17G24
  22147505.965    -9590982.77849  -7415306.13347  22147504.931    22147510.270
  22944349.168    -6442454.66649  -4997353.14546  22944348.238    22944352.872
  20380702.974   -16561258.74449 -12649381.29648  20380703.003    20380707.213
  21091473.617   -16970330.24949 -13198443.25047  21091472.457    21091477.747
  21224085.785   -13608576.72649 -10594841.84747  21224085.331    21224090.231
  21071186.438   -13627917.45149 -10600925.96948  21071185.602    21071191.045
  23523351.977     -301757.48149   -221547.60646  23523351.413    23523357.619
 04  1 10  0 26  0.0000000  0  7G 5G21G30G10G 6G17G24
  22165155.950    -9498231.93449  -7343032.76147  22165154.903    22165160.172
  22930475.056    -6515363.19849  -5054164.96146  22930474.133    22930478.709
  20386831.164   -16529055.42749 -12624287.81448  20386831.150    20386835.345
  21096540.994   -16943701.56149 -13177693.61947  21096539.769    21096544.986
  21214456.134   -13659180.59049 -10634273.42447  21214455.728    21214460.685
  21079072.611   -13586475.32049 -10568633.40648  21079071.782    21079077.192
  23539123.501     -218878.12549   -156966.31846  23539122.914    23539129.174
 04  1 10  0 26 30.0000000  0  7G 5G21G30G10G 6G17G24
  22182859.889    -9405196.83949  -7270537.88947  22182858.926    22182864.144
  22916641.569    -6588059.01749  -5110811.01246  22916640.600    22916645.047
  20393068.099   -16496280.63449 -12598749.02748  20393068.043    20393072.225
  21101725.262   -16916457.88149 -13156464.78247  21101724.080    21101729.234
  21204860.596   -13709606.08049 -10673566.01147  21204860.151    21204865.064
  21087004.618   -13544792.46549 -10536153.26148  21087003.771    21087009.242
  23554896.849     -135988.65249    -92377.14446  23554896.324    23554902.581
 04  1 10  0 27  0.0000000  0  7G 5G21G30G10G 6G17G24
  22200617.737    -9311878.87949  -7197822.62847  22200616.783    22200622.002
  22902848.819    -6660540.86049  -5167290.33646  22902847.778    22902852.114
  20399413.699   -16462934.91749 -12572765.35448  20399413.580    20399417.784
  21107026.545   -16888599.32449 -13134756.80947  21107025.360    21107030.545
  21195299.435   -13759851.12749 -10712717.97747  21195298.950    21195303.783
  21094982.261   -13502869.52649 -10503486.03347  21094981.398    21094986.929
  23570672.097      -53089.15949    -27780.14346  23570671.603    23570677.888
 04  1 10  0 27 30.0000000  0  7G 5G21G30G10G 6G17G24
  22218428.681    -9218281.92549  -7124889.96747  22218427.712    22218432.909
  22889096.647    -6732810.02849  -5223603.92046  22889095.469    22889099.641
  20405867.507   -16429020.42949 -12546338.49548  20405867.372    20405871.526
  21112444.391   -16860128.49149 -13112571.74847  21112443.190    21112448.376
  21185772.514   -13809915.74749 -10751729.36947  21185772.045    21185776.805
  21103005.123   -13460709.14449 -10470633.79047  21103004.224    21103009.767
  23586448.800       29817.71349     36822.59746  23586448.292    23586454.575
 04  1 10  0 28  0.0000000  0  7G 5G21G30G10G 6G17G24
  22236291.861    -9124409.61949  -7051742.74347  22236291.036    22236296.215
  22875384.434    -6804867.17149  -5279752.32046  22875383.431    22875387.478
  20412429.116   -16394539.38849 -12519470.16348  20412428.959    20412433.073
  21117978.350   -16831047.79849 -13089911.47447  21117977.119    21117982.282
  21176279.985   -13859799.61749 -10790599.91647  21176279.547    21176284.271
  21111072.736   -13418314.02549 -10437598.63447  21111071.759    21111077.315
  23602226.375      112729.33749    101429.03246  23602225.869    23602232.118
 04  1 10  0 28 30.0000000  0  7G 5G21G30G10G 6G17G24
  22254207.533    -9030262.39149  -6978381.30247  22254206.633    22254211.805
  22861713.188    -6876709.15549  -5335733.04146  22861712.326    22861716.326
  20419098.739   -16359490.66649 -12492159.47948  20419098.572    20419102.633
  21123628.440   -16801356.37749 -13066775.30247  21123627.197    21123632.403
  21166822.520   -13909499.02949 -10829326.71847  21166822.064    21166826.783
  21119185.098   -13375683.11749 -10404379.74347  21119184.173    21119189.749
  23618005.236      195647.36149    166040.45546  23618004.676    23618010.898
 04  1 10  0 29  0.0000000  0  7G 5G21G30G10G 6G17G24
  22272175.342    -8935841.10949  -6904806.31847  22272174.365    22272179.585
  22848083.281    -6948334.51249  -5391544.95446  22848082.352    22848086.427
  20425876.352   -16323874.14449 -12464406.35748  20425876.190    20425880.237
  21129394.706   -16771054.31249 -13043163.30347  21129393.475    21129398.716
  21157400.641   -13959011.44249 -10867907.81047  21157400.196    21157404.864
  21127342.276   -13332816.55549 -10370977.22947  21127341.386    21127346.955
  23633785.124      278571.96049    230657.00646  23633784.681    23633790.996
 04  1 10  0 29 30.0000000  0  7G 5G21G30G10G 6G17G24
  22290193.573    -8841153.32049  -6831023.66347  22290192.711    22290198.079
  22834493.599    -7019748.28749  -5447192.00846  22834492.700    22834496.765
  20432760.910   -16287695.73849 -12436215.40148  20432760.744    20432764.807
  21135276.079   -16740147.35049 -13019079.95247  21135274.884    21135280.107
  21148013.824   -14008340.16049 -10906345.76247  21148013.365    21148017.919
  21135543.230   -13289720.58349 -10337395.95047  21135542.318    21135547.843
  23649565.263      361497.36549    295274.18646  23649564.867    23649571.155
 04  1 10  0 30  0.0000000  0  7G 5G21G30G10G 6G17G24
  22308262.335    -8746200.29149  -6757034.33047  22308261.512    22308267.044
  22820944.827    -7090948.55949  -5502672.68546  22820943.759    22820947.690
  20439752.438   -16250955.10249 -12407586.33848  20439752.304    20439756.325
  21141272.636   -16708635.39049 -12994525.17047  21141271.393    21141276.597
  21138662.553   -14057482.21449 -10944638.26148  21138662.029    21138666.484
  21143787.822   -13246395.08249 -10303635.81647  21143786.881    21143792.394
  23665345.684      444423.86349    359892.21846  23665345.262    23665351.389
 04  1 10  0 30 30.0000000  0  7G 5G21G30G10G 6G17G24
  22326381.727    -8650982.04449  -6682838.33847  22326380.819    22326386.515
  22807436.701    -7161932.78749  -5557985.01946  22807435.891    22807439.693
  20446851.149   -16213651.34949 -12378518.49648  20446851.019    20446854.970
  21147384.268   -16676517.98349 -12969498.61747  21147383.062    21147388.297
  21129347.377   -14106434.30749 -10982782.73848  21129346.798    21129351.209
  21152076.235   -13202839.28149 -10269696.23847  21152075.283    21152080.794
  23681126.450      527351.99449    424511.52946  23681126.017    23681132.024
 04  1 10  0 31  0.0000000  0  7G 5G21G30G10G 6G17G24
  22344550.766    -8555502.47049  -6608438.70046  22344549.910    22344555.696
  22793969.537    -7232701.84749  -5613129.69646  22793968.913    22793972.639
  20454056.592   -16175786.92449 -12349013.75948  20454056.431    20454060.315
  21153610.716   -16643797.33549 -12944002.00847  21153609.551    21153614.798
  21120068.287   -14155196.30649 -11020779.08748  21120067.711    21120072.112
  21160408.015   -13159055.93149 -10235579.34047  21160407.035    21160412.496
  23696907.174      610279.89249    489130.65146  23696906.782    23696912.693
 04  1 10  0 31 30.0000000  0  7G 5G21G30G10G 6G17G24
  22362769.254    -8459762.90549  -6533836.47146  22362768.497    22362774.323
  22780543.844    -7303254.45249  -5668105.69946  22780543.218    22780546.771
  20461368.658   -16137362.04749 -12319072.30848  20461368.509    20461372.359
  21159951.887   -16610473.86649 -12918035.66547  21159950.721    21159956.020
  21110825.808   -14203765.62049 -11058625.28948  21110825.270    21110829.686
  21168782.915   -13115045.34149 -10201285.37847  21168781.987    21168787.449
  23712687.959      693207.55749    553749.59546  23712687.468    23712693.216
 04  1 10  0 32  0.0000000  0  7G 5G21G30G10G 6G17G24
  22381036.560    -8363767.34849  -6459034.77146  22381035.841    22381041.646
  22767159.205    -7373592.15349  -5722914.26446  22767158.494    22767161.834
  20468786.841   -16098379.34449 -12288696.19348  20468786.714    20468790.569
  21166407.293   -16576550.54249 -12891601.90947  21166406.142    21166411.462
  21101620.000   -14252142.32749 -11096321.42548  21101619.503    21101623.945
  21177200.680   -13070809.99949 -10166816.28447  21177199.760    21177205.199
  23728468.070      776132.54649    618366.44446  23728467.613    23728473.157
 04  1 10  0 32 30.0000000  0  7G 5G21G30G10G 6G17G24
  22399351.630    -8267521.67649  -6384038.17646  22399350.812    22399356.568
  22753815.031    -7443717.27849  -5777557.18646  22753814.052    22753817.353
  20476310.345   -16058843.31949 -12257888.91348  20476310.205    20476314.060
  21172975.962   -16542031.93949 -12864704.29047  21172974.805    21172980.137
  21092450.571   -14300328.30849 -11133868.93448  21092450.041    21092454.503
  21185660.234   -13026354.83449 -10132175.89847  21185659.303    21185664.750
  23744246.923      859050.58249    682977.89846  23744246.440    23744251.866
 04  1 10  0 33  0.0000000  0  7G 5G21G30G10G 6G17G24
  22417714.388    -8171024.87949  -6308845.87846  22417713.600    22417719.202
  22740511.675    -7513626.65149  -5832031.96446  22740510.712    22740514.041
  20483939.457   -16018751.92249 -12226648.86948  20483939.354    20483943.238
  21179658.219   -16506916.16149 -12837341.34247  21179657.098    21179662.454
  21083318.307   -14348318.70349 -11171264.02848  21083317.753    21083322.265
  21194162.015   -12981677.69749 -10097362.53947  21194161.078    21194166.536
  23760024.927      941964.03949    747585.78646  23760024.338    23760029.751
 04  1 10  0 33 30.0000000  0  7G 5G21G30G10G 6G17G24
  22436125.073    -8074276.08549  -6233457.22946  22436124.334    22436129.810
  22727250.183    -7583316.57049  -5886335.75946  22727249.152    22727252.461
  20491674.721   -15978102.67049 -12194974.14248  20491674.639    20491678.530
  21186454.627   -16471200.99649 -12809511.34447  21186453.473    21186458.860
  21074224.194   -14396108.35049 -11208502.70548  21074223.659    21074228.224
  21202706.460   -12936776.17949 -10062374.35347  21202705.532    21202711.004
  23775802.323     1024875.47849    812192.08545  23775801.815    23775807.090
 04  1 10  0 34  0.0000000  0  7G 5G21G30G10G 6G17G24
  22454581.932    -7977285.01249  -6157879.79546  22454581.187    22454586.551
  22714029.142    -7652792.91049  -5940473.13946  22714028.185    22714031.508
  20499514.539   -15936904.06949 -12162871.34248  20499514.491    20499518.374
  21193363.450   -16434894.88249 -12781220.86447  21193362.241    21193367.699
  21065167.222   -14443702.92849 -11245589.37248  21065166.718    21065171.292
  21211292.029   -12891658.73849 -10027217.90347  21211291.119    21211296.602
  23791577.876     1107777.07649    876790.72545  23791577.344    23791582.875
 04  1 10  0 34 30.0000000  0  7G 5G21G30G10G 6G17G24
  22473086.090    -7880044.63349  -6082108.08846  22473085.407    22473090.682
  22700850.557    -7722046.41349  -5994436.87446  22700849.708    22700852.938
  20507460.478   -15895147.94149 -12130334.11248  20507460.401    20507464.289
  21200386.108   -16397990.09949 -12752463.88847  21200384.939    21200390.473
  21056149.455   -14491091.39049 -11282515.43548  21056148.951    21056153.541
  21219920.187   -12846317.22649  -9991886.86747  21219919.286    21219924.786
  23807352.963     1190677.07549    941388.11945  23807352.573    23807358.347
 04  1 10  0 35  0.0000000  0  7G 5G21G30G10G 6G17G24
  22491634.724    -7782571.67849  -6006155.16446  22491633.896    22491639.142
  22687711.715    -7791090.96449  -6048237.80046  22687710.925    22687714.113
  20515509.615   -15852849.84749 -12097374.57148  20515509.488    20515513.372
  21207519.704   -16360502.13849 -12723252.49347  21207518.580    21207524.203
  21047168.474   -14538286.62549 -11319290.93148  21047167.999    21047172.563
  21228588.091   -12800767.25449  -9956393.38447  21228587.185    21228592.605
  23823125.014     1273560.53049   1005972.63645  23823124.673    23823130.450
 04  1 10  0 35 30.0000000  0  7G 5G21G30G10G 6G17G24
  22510229.705    -7684854.34549  -5930011.81546  22510228.853    22510234.123
  22674615.525    -7859912.49849  -6101864.94046  22674614.561    22674617.733
  20523664.281   -15809997.09749 -12063982.83148  20523664.103    20523667.967
  21214766.686   -16322418.75449 -12693577.13047  21214765.583    21214771.217
  21038227.308   -14585273.03749 -11355903.71448  21038226.769    21038231.347
  21237298.198   -12754995.87449  -9920727.38347  21237297.275    21237302.569
  23838896.342     1356440.45149   1070554.39445  23838896.056    23838901.881
 04  1 10  0 36  0.0000000  0  7G 5G21G30G10G 6G17G24
  22528869.029    -7586903.39249  -5853686.42746  22528868.269    22528873.609
  22661560.326    -7928518.72149  -6155324.30046  22661559.249    22661562.362
  20531922.648   -15766599.13349 -12030166.24548  20531922.466    20531926.346
  21222125.245   -16283749.45149 -12663445.20447  21222124.119    21222129.778
  21029324.529   -14632057.31549 -11392358.98048  21029323.982    21029328.614
  21246048.615   -12709012.78749  -9884896.40647  21246047.647    21246052.837
  23854665.289     1439308.03549   1135126.55845  23854665.090    23854670.933
 04  1 10  0 36 30.0000000  0  7G 5G21G30G10G 6G17G24
  22547552.587    -7488720.71949  -5777180.47546  22547551.855    22547557.220
  22648546.110    -7996908.67349  -6208615.13846  22648545.039    22648548.155
  20540284.587   -15722656.96549 -11995925.60548  20540284.417    20540288.283
  21229595.079   -16244495.00049 -12632857.32547  21229593.968    21229599.676
  21020460.582   -14678637.43149 -11428655.16548  21020460.048    21020464.784
  21254839.007   -12662818.55549  -9848900.91247  21254838.062    21254843.336
  23870432.219     1522162.92549   1199688.80345  23870431.953    23870437.731
 04  1 10  0 37  0.0000000  0  7G 5G21G30G10G 6G17G24
  22566280.216    -7390305.85449  -5700493.59146  22566279.589    22566285.014
  22635573.615    -8065078.89449  -6261734.76446  22635572.619    22635575.742
  20548750.427   -15678168.59349 -11961259.34748  20548750.306    20548754.169
  21237176.602   -16204653.79249 -12601812.22847  21237175.499    21237181.251
  21011636.447   -14725008.38149 -11464788.36248  21011635.897    21011640.724
  21263669.999   -12616411.06449  -9812739.24047  21263669.088    21263674.422
  23886197.119     1605007.40649   1264242.93445  23886196.691    23886202.730
 04  1 10  0 37 30.0000000  0  7G 5G21G30G10G 6G17G24
  22585051.199    -7291665.41949  -5623630.95046  22585050.355    22585055.815
  22622642.243    -8133033.65749  -6314686.50746  22622641.291    22622644.361
  20557319.054   -15633139.93249 -11926172.09348  20557318.934    20557322.822
  21244868.535   -16164232.14849 -12570314.85447  21244867.444    21244873.268
  21002851.508   -14771173.08149 -11500760.84748  21002850.969    21002855.861
  21272540.587   -12569796.03049  -9776415.84447  21272539.617    21272544.975
  23901958.909     1687835.78349   1328784.53545  23901958.419    23901964.600
 04  1 10  0 38  0.0000000  0  7G 5G21G30G10G 6G17G24
  22603862.907    -7192810.28049  -5546601.00046  22603861.982    22603867.479
  22609750.413    -8200780.75149  -6367476.42746  22609749.427    22609752.453
  20565988.715   -15587580.54249 -11890671.28448  20565988.612    20565992.510
  21252669.206   -16123239.70549 -12538372.69747  21252668.084    21252673.867
  20994104.542   -14817138.13649 -11536577.76748  20994104.054    20994108.997
  21281448.772   -12522983.11349  -9739938.25847  21281447.770    21281453.175
  23917715.982     1770639.50049   1393306.91345  23917715.480    23917721.526
 04  1 10  0 38 30.0000000  0  7G 5G21G30G10G 6G17G24
  22622719.419    -7093719.86549  -5469387.71846  22622718.408    22622723.970
  22596902.609    -8268296.92649  -6420086.39546  22596901.521    22596904.480
  20574763.439   -15541468.93849 -11854740.16848  20574763.348    20574767.268
  21260582.571   -16081655.25249 -12505969.22347  21260581.386    21260587.075
  20985400.385   -14862879.12049 -11572220.07648  20985399.850    20985404.715
  21290398.750   -12475950.32649  -9703289.33447  21290397.755    21290403.208
  23933472.624     1853440.63749   1457827.27945  23933472.221    23933477.895
 04  1 10  0 39  0.0000000  0  7G 5G21G30G10G 6G17G24
  22641618.133    -6994406.71249  -5392000.86146  22641617.195    22641622.853
  22584096.785    -8335591.93649  -6472524.03346  22584095.736    22584098.619
  20583641.034   -15494816.80749 -11818387.87148  20583640.932    20583644.813
  21268606.354   -16039490.46349 -12473113.53847  21268605.141    21268610.727
  20976737.227   -14908404.46449 -11607694.36248  20976736.647    20976741.449
  21299388.310   -12428709.07549  -9666477.98147  21299387.381    21299392.945
  23949226.906     1936228.19749   1522337.07145  23949226.316    23949231.940
 04  1 10  0 39 30.0000000  0  7G 5G21G30G10G 6G17G24
  22660557.689    -6894879.47749  -5314447.20846  22660556.663    22660562.446
  22571331.799    -8402671.56849  -6524793.84946  22571330.833    22571333.751
  20592620.099   -15447631.53449 -11781620.13948  20592620.006    20592623.862
  21276739.058   -15996752.94949 -12439811.58947  21276737.851    21276743.421
  20968114.222   -14953718.71349 -11643004.16348  20968113.627    20968118.404
  21308416.266   -12381266.75849  -9629509.94447  21308415.361    21308420.952
  23964977.131     2018995.32449   1586830.93645  23964976.491    23964982.119
 04  1 10  0 40  0.0000000  0  8G 5G21G30G10G 6G17G29G24
  22679537.794    -6795139.09949  -5236727.46446  22679536.614    22679542.558
  22558608.170    -8469534.20849  -6576894.58346  22558607.281    22558610.278
  20601700.625   -15399913.25349 -11744437.07448  20601700.509    20601704.336
  21284980.683   -15953443.05549 -12406063.62147  21284979.465    21284984.970
  20959531.909   -14998818.98749 -11678147.21748  20959531.308    20959536.061
  21317482.453   -12333623.14549  -9592385.05947  21317481.595    21317487.272
                   -839881.10249   -625790.39943
  23980723.561     2101742.58949   1651309.33045  23980722.910    23980728.469
 04  1 10  0 40 30.0000000  0  8G 5G21G30G10G 6G17G29G24
  22698558.172    -6695185.49349  -5158841.57346  22698557.076    22698563.257
  22545926.579    -8536176.79349  -6628823.83046  22545925.580    22545928.698
  20610882.705   -15351660.91249 -11706837.86048  20610882.583    20610886.430
  21293331.369   -15909559.71249 -12371868.81547  21293330.194    21293335.733
  20950991.118   -15043701.01749 -11713120.22948  20950990.511    20950995.183
  21326587.324   -12285776.73549  -9555102.14347  21326586.531    21326592.149
                   -909987.48349   -680418.07843
  23996466.501     2184471.76149   1715773.61945  23996465.811    23996471.215
 04  1 10  0 41  0.0000000  0  7G 5G21G30G10G 6G17G24
  22717618.076    -6595024.12049  -5080793.79646  22717617.041    22717623.449
  22533286.242    -8602601.83049  -6680583.57246  22533285.192    22533288.424
  20620165.680   -15302878.55549 -11668825.64748  20620165.556    20620169.438
  21301790.381   -15865107.25049 -12337230.54147  21301789.208    21301794.759
  20942491.703   -15088365.79549 -11747923.95648  20942491.125    20942495.716
  21335730.099   -12237731.27949  -9517664.12747  21335729.252    21335734.865
  24012205.447     2267179.52449   1780221.22945  24012204.876    24012209.588
 04  1 10  0 41 30.0000000  0  7G 5G21G30G10G 6G17G24
  22736717.643    -6494654.89449  -5002584.04546  22736716.549    22736723.180
  22520687.669    -8668806.72449  -6732171.76646  22520686.633    22520690.120
  20629549.653   -15253565.35549 -11630399.78448  20629549.530    20629553.443
  21310357.843   -15820084.89149 -12302148.19147  21310356.667    21310362.222
  20934034.493   -15132809.10249 -11782555.09648  20934033.900    20934038.386
  21344910.881   -12189485.55949  -9480070.05847  21344910.066    21344915.660
  24027940.820     2349868.02049   1844653.84745  24027940.093    24027944.496
 04  1 10  0 42  0.0000000  0  7G 5G21G30G10G 6G17G24
  22755855.722    -6394082.91449  -4924216.31046  22755854.650    22755861.488
  22508130.367    -8734794.06549  -6783590.45146  22508129.537    22508133.195
  20639033.847   -15203725.90449 -11591563.86048  20639033.694    20639037.624
  21319032.850   -15774497.70349 -12266625.70947  21319031.661    21319037.166
  20925619.081   -15177032.53649 -11817014.90748  20925618.496    20925622.959
  21354129.120   -12141043.79849  -9442323.23447  21354128.314    21354133.845
  24043671.507     2432533.14849   1909068.25145  24043670.883    24043674.997
 04  1 10  0 42 30.0000000  0  8G 5G21G30G10G 6G17G29G24
  22775032.902    -6293303.93649  -4845687.27746  22775032.093    22775039.145
  22495616.135    -8800556.40549  -6834833.81346  22495615.260    22495619.020
  20648619.182   -15153354.75249 -11552313.62148  20648619.038    20648622.964
  21327816.336   -15728340.23349 -12230658.85847  21327815.141    21327820.548
  20917247.111   -15221027.31549 -11851296.55648  20917246.571    20917250.986
  21363385.786   -12092400.20149  -9404419.14347  21363384.906    21363390.489
                   -790621.99449   -596931.77743
  24059398.875     2515180.93249   1973469.10845  24059398.175    24059402.464
 04  1 10  0 43  0.0000000  0  8G 5G21G30G10G 6G17G29G24
  22794247.437    -6192330.93649  -4767007.05846  22794246.492    22794253.751
  22483142.837    -8866104.02749  -6885909.85446  22483141.805    22483145.741
  20658303.459   -15102463.89049 -11512658.41448  20658303.274    20658307.188
  21336706.019   -15681624.73849 -12194257.17947  21336704.807    21336710.204
  20908916.918   -15264802.48249 -11885407.07048  20908916.388    20908920.801
  21372678.557   -12043566.38449  -9366366.81747  21372677.633    21372683.281
                   -860155.74249   -651117.90643
  24075120.933     2597800.59549   2037848.09445  24075120.292    24075124.552
 04  1 10  0 43 30.0000000  0  7G 5G21G30G10G 6G17G24
  22813499.667    -6091159.63249  -4688172.31046  22813498.694    22813506.062
  22470711.535    -8931430.30649  -6936813.41846  22470710.481    22470714.594
  20668087.441   -15051048.59649 -11472594.55748  20668087.291    20668091.235
  21345702.808   -15634346.45449 -12157416.96547  21345701.568    21345706.908
  20900630.184   -15308349.67649 -11919339.94948  20900629.635    20900634.041
  21382008.436   -11994536.99749  -9328162.10847  21382007.554    21382013.274
  24090838.572     2680397.75749   2102209.53545  24090838.050    24090841.944
 04  1 10  0 44  0.0000000  0  7G 5G21G30G10G 6G17G24
  22832788.868    -5989794.41749  -4609186.48046  22832787.830    22832795.269
  22458321.943    -8996536.73149  -6987545.67546  22458320.978    22458325.247
  20677970.567   -14999112.34049 -11432124.75648  20677970.409    20677974.384
  21354805.929   -15586509.13949 -12120141.13447  21354804.687    21354810.033
  20892386.654   -15351669.16749 -11953095.38548  20892386.132    20892390.595
  21391374.971   -11945314.98449  -9289807.29147  21391374.130    21391379.969
  24106551.476     2762969.70949   2166551.34045  24106550.863    24106554.972
 04  1 10  0 44 30.0000000  0  7G 5G21G30G10G 6G17G24
  22852114.205    -5888239.05149  -4530052.46646  22852113.192    22852120.706
  22445974.080    -9061423.93049  -7038107.11246  22445973.186    22445977.642
  20687952.294   -14946657.53149 -11391250.89648  20687952.179    20687956.227
  21364014.828   -15538115.50049 -12082431.81247  21364013.601    21364018.953
  20884186.653   -15394760.27349 -11986672.87148  20884186.159    20884190.684
  21400777.883   -11895902.39949  -9251303.99147  21400777.050    21400782.895
  24122259.362     2845515.09249   2230872.41645  24122258.808    24122263.222
 04  1 10  0 45  0.0000000  0  7G 5G21G30G10G 6G17G24
  22871475.662    -5786492.73549  -4450769.66746  22871474.778    22871482.492
  22433668.658    -9126088.60149  -7088495.14246  22433667.795    22433672.392
  20698032.931   -14893683.05949 -11349972.09848  20698032.850    20698036.936
  21373329.861   -15489164.46649 -12044288.15047  21373328.653    21373334.061
  20876031.059   -15437618.35049 -12020068.77048  20876030.525    20876035.055
  21410217.532   -11846297.36549  -9212650.72047  21410216.635    21410222.441
  24137962.623     2928036.06249   2295174.49345  24137962.086    24137966.620
 04  1 10  0 45 30.0000000  0  7G 5G21G30G10G 6G17G24
  22890872.005    -5684564.79649  -4371345.32946  22890870.951    22890878.878
  22421404.332    -9190537.74049  -7138715.22446  22421403.495    22421408.110
  20708210.856   -14840197.30749 -11308294.89648  20708210.834    20708214.964
  21382749.274   -15439664.90949 -12005717.06947  21382748.052    21382753.492
  20867918.807   -15480248.54849 -12053287.09748  20867918.271    20867922.792
  21419692.134   -11796508.10349  -9173853.89247  21419691.256    21419697.046
  24153659.881     3010525.38549   2359451.91345  24153659.390    24153664.016
 04  1 10  0 46  0.0000000  0  7G 5G21G30G10G 6G17G24
  22910303.722    -5582450.67149  -4291775.91846  22910302.548    22910310.672
  22409182.694    -9254763.54249  -7188761.27546  22409181.746    22409186.380
  20718487.222   -14786195.03249 -11266215.21848  20718487.140    20718491.276
  21392274.134   -15389611.43049 -11966714.35947  21392272.908    21392278.294
  20859851.514   -15522642.14349 -12086321.06148  20859850.996    20859855.506
  21429203.029   -11746528.32749  -9134908.61347  21429202.142    21429207.898
  24169352.109     3092989.34149   2423709.56145  24169351.636    24169356.392
 04  1 10  0 46 30.0000000  0  7G 5G21G30G10G 6G17G24
  22929769.242    -5480157.57449  -4212067.05246  22929768.192    22929776.494
  22397002.597    -9318770.61349  -7238636.89146  22397001.618    22397006.211
  20728860.643   -14731682.43149 -11223737.88048  20728860.568    20728864.694
  21401903.193   -15339010.33649 -11927284.93147  21401902.012    21401907.323
  20851828.737   -15564802.04649 -12119172.92648  20851828.210    20851832.718
  21438748.995   -11696364.14949  -9095819.64747  21438748.104    21438753.904
  24185038.527     3175422.67449   2487943.32245  24185038.047    24185042.927
 04  1 10  0 47  0.0000000  0  7G 5G21G30G10G 6G17G24
  22949268.776    -5377686.76049  -4132219.69146  22949267.782    22949276.172
  22384864.300    -9382557.33349  -7288340.81446  22384863.382    22384868.040
  20739331.108   -14676660.16449 -11180863.40048  20739330.970    20739335.100
  21411636.253   -15287862.53449 -11887429.50247  21411635.103    21411640.416
  20843850.950   -15606725.28249 -12151840.37548  20843850.433    20843854.974
  21448330.153   -11646014.89049  -9056586.46547  21448329.261    21448335.112
  24200719.196     3257825.83649   2552153.58345  24200718.592    24200723.712
 04  1 10  0 47 30.0000000  0  7G 5G21G30G10G 6G17G24
  22968802.213    -5275039.71849  -4052235.03246  22968800.980    22968809.365
  22372768.229    -9446122.52749  -7337872.11146  22372767.336    22372772.009
  20749898.335   -14621128.75349 -11137592.18348  20749898.234    20749902.370
  21421473.253   -15236168.63149 -11847148.53547  21421472.084    21421477.389
  20835918.706   -15648409.14749 -12184321.29948  20835918.174    20835922.801
  21457946.467   -11595481.13549  -9017209.50947  21457945.563    21457951.377
  24216394.072     3340199.42049   2616340.81845  24216393.441    24216399.378
 04  1 10  0 48  0.0000000  0  7G 5G21G30G10G 6G17G24
  22988367.832    -5172221.14849  -3972116.69746  22988366.725    22988375.167
  22360713.954    -9509468.15849  -7387232.33046  22360713.150    22360717.767
  20760561.698   -14565092.44049 -11093927.53848  20760561.582    20760565.717
  21431413.284   -15183933.15549 -11806445.56847  21431412.152    21431417.447
  20828031.854   -15689854.29249 -12216616.21348  20828031.374    20828036.031
  21467597.332   -11544765.86249  -8977691.11747  21467596.392    21467602.176
  24232063.061     3422540.72749   2680502.90645  24232062.273    24232068.514
 04  1 10  0 48 30.0000000  0  7G 5G21G30G10G 6G17G24
  23007966.048    -5069232.82349  -3891866.11746  23007964.777    23007973.266
  22348701.900    -9572593.82649  -7436421.13247  22348700.856    22348705.419
  20771320.908   -14508552.56449 -11049870.50548  20771320.794    20771324.935
  21441456.114   -15131157.84149 -11765321.94247  21441454.930    21441460.313
  20820190.952   -15731058.69349 -12248723.52748  20820190.462    20820195.097
  21477282.418   -11493870.15549  -8938032.12947  21477281.507    21477287.302
  24247725.673     3504849.39049   2744639.51045  24247725.170    24247731.266
 04  1 10  0 49  0.0000000  0  7G 5G21G30G10G 6G17G24
  23027595.896    -4966077.02249  -3811484.99846  23027594.758    23027603.193
  22336731.562    -9635498.85149  -7485438.01447  22336730.474    22336734.953
  20782175.586   -14451510.70349 -11005422.31748  20782175.509    20782179.627
  21451601.214   -15077844.16849 -11723778.82547  21451600.186    21451605.561
  20812396.274   -15772020.39449 -12280641.72748  20812395.758    20812400.349
  21487001.679   -11442794.82549  -8898233.17847  21487000.819    21487006.653
  24263382.185     3587125.01549   2808750.41545  24263381.702    24263387.614
 04  1 10  0 49 30.0000000  0  7G 5G21G30G10G 6G17G24
  23047256.897    -4862756.60549  -3730975.61146  23047256.026    23047264.481
  22324803.105    -9698182.90049  -7534282.70847  22324802.042    22324806.551
  20793125.456   -14393968.88349 -10960584.55248  20793125.379    20793129.466
  21461848.650   -15023994.26149 -11681817.85247  21461847.542    21461852.842
  20804648.036   -15812737.73149 -12312369.51248  20804647.532    20804652.082
  21496755.004   -11391540.86049  -8858295.03447  21496754.147    21496759.974
  24279032.280     3669366.87049   2872834.97945  24279032.056    24279037.577
 04  1 10  0 50  0.0000000  0  7G 5G21G30G10G 6G17G24
  23066949.337    -4759273.97849  -3650339.82246  23066948.323    23066956.638
  22312916.584    -9760646.06649  -7582955.28847  22312915.620    22312920.200
  20804170.136   -14335928.64149 -10915358.39747  20804170.083    20804174.113
  21472197.787   -14969609.93449 -11639440.45047  21472196.617    21472201.832
  20796946.639   -15853208.94449 -12343905.51048  20796946.144    20796950.634
  21506542.152   -11340109.23549  -8818218.44647  21506541.281    21506547.127
  24294675.866     3751574.57849   2936892.95045  24294675.575    24294680.898
 04  1 10  0 50 30.0000000  0  7G 5G21G30G10G 6G17G24
  23086672.486    -4655629.28149  -3569577.74046  23086671.459    23086679.600
  22301072.764    -9822885.91949  -7631453.86247  22301071.829    22301076.360
  20815309.746   -14277389.91749 -10869743.81947  20815309.641    20815313.648
  21482648.499   -14914691.40549 -11596646.79147  21482647.263    21482652.495
  20789292.745   -15893430.50249 -12375246.98248  20789292.262    20789296.724
  21516363.311   -11288499.11649  -8778002.77547  21516362.392    21516368.221
  24310313.392     3833749.48549   3000925.37045  24310313.071    24310318.667
 04  1 10  0 51  0.0000000  0  7G 5G21G30G10G 6G17G24
  23106424.362    -4551833.13449  -3488697.65846  23106423.406    23106431.342
  22289269.994    -9884910.26149  -7679784.50047  22289269.020    22289273.500
  20826542.341   -14218362.62949 -10823748.54447  20826542.205    20826546.196
  21493198.823   -14859248.44749 -11553444.48947  21493197.689    21493202.986
  20781685.219   -15933408.50949 -12406398.67748  20781684.739    20781689.161
  21526216.617   -11236719.33549  -8737654.90247  21526215.741    21526221.544
  24325942.715     3915883.21949   3064925.71744  24325942.302    24325948.409
 04  1 10  0 51 30.0000000  0  7G 5G21G30G10G 6G17G24
  23126206.423    -4447879.21549  -3407694.63746  23126205.451    23126213.186
  22277510.008    -9946710.11349  -7727940.20847  22277508.962    22277513.392
  20837869.226   -14158839.74149 -10777367.08247  20837869.063    20837873.059
  21503850.377   -14803274.08249 -11509828.10347  21503849.285    21503854.630
  20774126.069   -15973132.37249 -12437352.32848  20774125.582    20774129.975
  21536103.750   -11184762.23149  -8697168.85147  21536102.846    21536108.583
  24341566.008     3997984.15049   3128900.51244  24341565.723    24341571.828
 04  1 10  0 52  0.0000000  0  7G 5G21G30G10G 6G17G24
  23146017.118    -4343775.09149  -3326574.55946  23146016.046    23146023.525
  22265791.628   -10008290.02149  -7775924.52947  22265790.624    22265795.045
  20849289.086   -14098828.28449 -10730604.91447  20849288.888    20849292.924
  21514601.673   -14746775.87149 -11465803.52147  21514600.552    21514605.904
  20766614.682   -16012605.50849 -12468110.60448  20766614.152    20766618.526
  21546023.396   -11132634.16049  -8656549.57047  21546022.469    21546028.147
  24357182.036     4080046.32349   3192845.09244  24357181.973    24357187.051
 04  1 10  0 52 30.0000000  0  7G 5G21G30G10G 6G17G24
  23165855.504    -4239525.38049  -3245341.05346  23165854.362    23165861.529
  22254114.557   -10069652.44549  -7823739.39247  22254113.718    22254118.116
  20860801.081   -14038332.22949 -10683465.14347  20860800.948    20860804.991
  21525451.835   -14689758.00649 -11421374.01447  21525450.711    21525456.079
  20759150.847   -16051828.14549 -12498673.68948  20759150.319    20759154.722
  21555974.969   -11080337.91549  -8615799.25447  21555974.090    21555979.680
  24372790.324     4162067.62749   3256757.90244  24372790.160    24372794.487
 04  1 10  0 53  0.0000000  0  7G 5G21G30G10G 6G17G24
  23185722.152    -4135126.06349  -3163990.97046  23185721.019    23185728.075
  22242480.422   -10130790.15349  -7871379.13847  22242479.542    22242483.964
  20872406.169   -13977347.16249 -10635944.31547  20872406.054    20872410.075
  21536401.688   -14632216.03449 -11376536.11847  21536400.620    21536406.003
  20751736.205   -16090792.16149 -12529035.25748  20751735.672    20751740.096
  21565959.683   -11027868.38349  -8574913.89747  21565958.757    21565964.218
  24388391.723     4244053.68348   3320643.18744  24388391.787    24388396.685
 04  1 10  0 53 30.0000000  0  7G 5G21G30G10G 6G17G24
  23205615.833    -4030584.47049  -3082530.03246  23205614.777    23205621.639
  22230888.148   -10191708.00949  -7918847.57647  22230887.197    22230891.642
  20884103.077   -13915879.79449 -10588047.67947  20884102.966    20884106.929
  21547450.057   -14574156.92849 -11331295.25947  21547448.961    21547454.275
  20744370.175   -16129500.66949 -12559197.72248  20744369.662    20744374.129
  21575976.240   -10975231.10149  -8533897.83747  21575975.343    21575980.741
  24403985.007     4325999.15148   3384496.81044  24403984.606    24403990.476
 04  1 10  0 54  0.0000000  0  7G 5G21G30G10G 6G17G24
  23225536.880    -3925898.33649  -3000956.45946  23225535.986    23225542.706
  22219338.502   -10252401.29349  -7966141.02647  22219337.563    22219342.046
  20895892.206   -13853927.45049 -10539773.13847  20895892.155    20895896.085
  21558597.319   -14515578.00549 -11285649.34147  21558596.194    21558601.475
  20737054.059   -16167947.25549 -12589156.09748  20737053.527    20737058.021
  21586025.376   -10922422.59049  -8492748.35347  21586024.456    21586029.861
  24419571.396     4407908.51648   3448322.28244  24419570.902
 04  1 10  0 54 30.0000000  0  7G 5G21G30G10G 6G17G24
  23245483.970    -3821076.94449  -2919277.49346  23245482.917    23245489.587
  22207830.261   -10312876.51949  -8013264.55747  22207829.450    22207833.966
  20907772.031   -13791498.76049 -10491127.41147  20907771.951    20907775.841
  21569841.654   -14456488.42349 -11239605.50947  21569840.550    21569845.843
  20729786.806   -16206136.88349 -12618914.23548  20729786.238    20729790.818
  21596105.562   -10869450.54649  -8451471.42947  21596104.678    21596110.043
  24435149.866     4489774.43348   3512114.00744  24435149.180    24435155.152
 04  1 10  0 55  0.0000000  0  7G 5G21G30G10G 6G17G29
  23265455.654    -3716124.10249  -2837496.10046  23265454.771    23265461.460
  22196363.424   -10373134.77549  -8060219.01947  22196362.588    22196367.191
  20919741.816   -13728597.35949 -10442113.34747  20919741.684    20919745.530
  21581182.583   -14396891.44449 -11193166.30047  21581181.459    21581186.747
  20722568.442   -16244069.23349 -12648471.90648  20722567.875    20722572.537
  21606216.401   -10816317.35749  -8410068.94447  21606215.528    21606220.896
                   -649598.73949   -497647.09843
 04  1 10  0 55 30.0000000  0  7G 5G21G30G10G 6G17G29
  23285452.860    -3611037.31649  -2755610.33446  23285452.177    23285458.787
  22184938.875   -10433171.31949  -8107000.71747  22184937.967    22184942.529
  20931802.041   -13665220.26449 -10392728.60947  20931801.945    20931805.791
  21592620.530   -14336784.78049 -11146329.93047  21592619.411    21592624.675
  20715400.259   -16281737.87949 -12677824.09348  20715399.687    20715404.374
  21616358.605   -10763019.46949  -8368538.12447  21616357.767    21616363.158
                   -715139.34449   -548722.88843
 04  1 10  0 56  0.0000000  0  7G 5G21G30G10G 6G17G29
  23305475.090    -3505820.97349  -2673623.59946  23305474.246    23305480.801
  22173555.961   -10492987.75649  -8153610.90047  22173555.177    22173559.744
  20943952.023   -13601371.74449 -10342976.52547  20943951.894    20943955.758
  21604154.619   -14276172.58149 -11099099.63247  21604153.536    21604158.795
  20708282.210   -16319143.21549 -12706971.10448  20708281.655    20708286.391
  21626531.795   -10709559.71949  -8326881.17447  21626530.904    21626536.288
                   -780482.12749   -599644.51643
 04  1 10  0 56 30.0000000  0  7G 5G21G30G10G 6G17G29
  23325522.152    -3400473.14949  -2591534.42546  23325521.357    23325527.886
  22162216.048   -10552579.00149  -8200045.62047  22162215.348    22162219.791
  20956192.181   -13537048.92749 -10292854.86247  20956192.070    20956196.022
  21615785.528   -14215052.17249 -11051473.33447  21615784.354    21615789.649
  20701215.565   -16356278.57249 -12735907.74348  20701215.017    20701219.784
  21636736.377   -10655934.31849  -8285095.14847  21636735.500    21636740.887
                   -845619.02749   -474948.58243
 04  1 10  0 57  0.0000000  0  7G 5G21G30G10G 6G17G29
  23345593.241    -3294998.27449  -2509346.21846  23345592.612    23345599.151
  22150918.734   -10611947.52249  -8246306.77147  22150917.938    22150922.314
  20968521.868   -13472255.98149 -10242366.85947  20968521.744    20968525.808
  21627512.281   -14153427.80749 -11003454.33847  21627511.066    21627516.394
  20694200.247   -16393144.26849 -12764634.24648  20694199.704    20694204.508
  21646971.875   -10602146.42749  -8243182.49947  21646971.024    21646976.358
                   -910549.34849   -525543.79243
 04  1 10  0 57 30.0000000  0  8G18G 5G21G30G10G 6G17G29
                   -602849.66549   -443752.04143
  23365687.131    -3189403.65749  -2427064.71345  23365686.632    23365693.274
  22139663.054   -10671097.40149  -8292397.56347  22139662.121    22139666.457
  20980939.659   -13406999.86549 -10191517.94647  20980939.538    20980943.684
  21639333.441   -14091306.70049 -10955048.26847  21639332.282    21639337.665
  20687235.610   -16429743.42649 -12793153.06648  20687235.065    20687239.902
  21657237.145   -10548201.72749  -8201147.65747  21657236.317    21657241.623
                   -975274.67949   -575979.03244                  24071297.351
 04  1 10  0 58  0.0000000  0  8G18G 5G21G30G10G 6G17G29
                   -712807.26149   -529441.23843
  23385804.513    -3083687.26749  -2344688.32145  23385803.785    23385810.568
  22128449.546   -10730024.22149  -8338314.54747  22128448.694    22128452.942
  20993446.081   -13341278.14849 -10140306.22847  20993445.960    20993450.192
  21651249.591   -14028686.42449 -10906253.23747  21651248.433    21651253.903
  20680322.955   -16466069.67449 -12821459.23748  20680322.401    20680327.200
  21667532.977   -10494096.70149  -8158987.88547  21667532.169    21667537.441
  24059019.501    -1039786.93949   -626248.19144  24059018.658    24059023.301
 04  1 10  0 58 30.0000000  0  8G18G 5G21G30G10G 6G17G29
                   -822691.40849   -615083.59943
  23405943.417    -2977856.60649  -2262222.88445  23405942.693    23405949.445
  22117277.548   -10788733.37749  -8384061.92747  22117276.738    22117280.901
  21006039.607   -13275098.23549 -10088737.48247  21006039.522    21006043.874
  21663259.306   -13965574.54949 -10857075.14747  21663258.199    21663263.700
  20673461.523   -16502126.62949 -12849555.56948  20673460.981    20673465.772
  21677858.189   -10439837.63549  -8116708.09047  21677857.322    21677862.564
  24046783.018    -1104088.65249   -676353.28344  24046781.370    24046787.096
 04  1 10  0 59  0.0000000  0  8G18G 5G21G30G10G 6G17G29
                   -932494.98849   -419975.35143
  23426104.323    -2871909.89949  -2179667.05245  23426103.635    23426110.519
  22106148.146   -10847219.83549  -8429635.76547  22106147.233    22106151.202
  21018720.820   -13208457.78149 -10036809.86448  21018720.743    21018725.220
  21675363.068   -13901968.88549 -10807512.27647  21675361.949    21675367.427
  20666652.506   -16537908.16249 -12877437.27748  20666651.975    20666656.823
  21688213.353   -10385421.08249  -8074305.57147  21688212.403    21688217.655
  24034588.106    -1168172.09749   -726288.32744  24034585.741    24034593.453
 04  1 10  0 59 30.0000000  0  8G18G 5G21G30G10G 6G17G29
                  -1042220.52149   -505473.78043
  23446286.185    -2765854.82349  -2097026.75845  23446285.304    23446292.313
  22095060.064   -10905488.58849  -8475039.95347  22095059.079    22095062.943
  21031488.325   -13141364.09149  -9984529.07548  21031488.234    21031492.783
  21687559.400   -13837876.89549 -10757570.45047  21687558.286    21687563.774
  20659895.224   -16573417.68849 -12905107.02948  20659894.733    20659899.628
  21698597.207   -10330853.05549  -8031785.01647  21698596.324    21698601.579
  24022434.963    -1232039.39749   -776054.92844  24022433.735    24022440.000
 04  1 10  1  0  0.0000000  0  8G18G 5G21G30G10G 6G17G29
                  -1151863.65549   -590904.63143
  23466488.632    -2659691.65149  -2014302.25045  23466487.618    23466494.569
  22084013.589   -10963537.68649  -8520273.00547  22084012.736    22084016.538
  21044342.015   -13073817.50049  -9931895.38448  21044341.945    21044346.546
  21699848.277   -13773298.75749 -10707249.81647  21699847.098    21699852.567
  20653190.492   -16608651.36749 -12932561.85348  20653189.994    20653194.852
  21709010.049   -10276132.97549  -7989145.98847  21709009.176    21709014.498
  24010323.803    -1295685.44349   -825649.09044  24010322.570    24010328.616
 04  1 10  1  0 30.0000000  0  8G18G 5G21G30G10G 6G17G29
                  -1261419.14049   -394710.66043
  23486711.578    -2553420.65749  -1931493.71745  23486710.459    23486717.230
  22073009.499   -11021364.45449  -8565332.79647  22073008.624    22073012.424
  21057282.065   -13005817.50449  -9878908.39048  21057281.967    21057286.594
  21712229.610   -13708234.45649 -10656550.35247  21712228.477    21712233.947
  20646539.111   -16643604.96449 -12959798.41948  20646538.589    20646543.394
  21719452.220   -10221258.67249  -7946386.77847  21719451.347    21719456.704
  23998255.445    -1359104.57949   -875066.44844  23998254.463    23998260.152
 04  1 10  1  1  0.0000000  0  8G18G 5G21G30G10G 6G17G29
                  -1370884.19649   -480043.24343
  23506954.424    -2447043.85849  -1848602.75745  23506953.495    23506959.950
  22062047.818   -11078968.42149  -8610218.98547  22062046.983    22062050.716
  21070307.989   -12937365.97549  -9825569.55348  21070307.879    21070312.528
  21724703.062   -13642685.95349 -10605473.58547  21724701.972    21724707.407
  20639941.382   -16678276.33449 -12986815.07148  20639940.856    20639945.650
  21729923.660   -10166230.98149  -7903508.05547  21729922.768    21729928.180
  23986230.357    -1422293.13049   -924304.13344  23986229.343    23986235.318
 04  1 10  1  1 30.0000000  0  8G18G 5G21G30G10G 6G17G29
                  -1480257.81449   -565392.73243
  23527216.846    -2340564.68349  -1765632.01145  23527216.026    23527222.168
  22051128.303   -11136350.88349  -8654932.56647  22051127.422    22051131.136
  21083419.063   -12868466.51349  -9771881.67248  21083419.013    21083423.681
  21737268.022   -13576656.90549 -10554022.36347  21737266.883    21737272.293
  20633397.387   -16712665.12749 -13013611.53348  20633396.877    20633401.713
  21740423.877   -10111052.20349  -7860511.59947  21740422.919    21740428.377
  23974249.071    -1485249.44949   -973360.87744  23974248.073    23974253.993
 04  1 10  1  2  0.0000000  0  8G18G 5G21G30G10G 6G17G29
                  -1589537.54449   -369458.08843
  23547497.956    -2233986.77749  -1682584.32845  23547497.196    23547503.112
  22040250.849   -11193512.11849  -8699473.76247  22040249.992    22040253.706
  21096614.967   -12799121.68649  -9717846.76148  21096614.897    21096619.604
  21749923.859   -13510150.14849 -10502198.90647  21749922.692    21749928.084
  20626907.405   -16746770.07649 -13040186.81848  20626906.890    20626911.773
  21750952.350   -10055723.68249  -7817398.46347  21750951.490    21750957.072
  23962313.443    -1547971.01949  -1022234.73344  23962312.486    23962318.147
 04  1 10  1  2 30.0000000  0  8G18G 5G21G30G10G 6G17G29
                  -1698720.38049   -454512.43743
  23567797.889    -2127310.99149  -1599460.38245  23567797.063    23567802.700
  22029415.625   -11250451.38849  -8743842.00447  22029414.783    22029418.491
  21109895.251   -12729332.97449  -9663465.96148  21109895.204    21109899.934
  21762670.339   -13443167.07849 -10450004.30247  21762669.198    21762674.583
  20620471.861   -16780588.68449 -13066538.97648  20620471.365    20620476.302
  21761509.433   -10000245.59549  -7774168.78747  21761508.601    21761514.243
  23950423.638    -1610453.79049  -1070922.49744  23950422.687    23950428.258
 04  1 10  1  3  0.0000000  0  8G18G 5G21G30G10G 6G17G29
                  -1807809.81749   -539403.06443
  23588114.828    -2020545.81249  -1516266.76245  23588113.858    23588119.280
  22018621.554   -11307174.33749  -8788041.68247  22018620.746    22018624.461
  21123258.453   -12659108.77349  -9608745.82148  21123258.433    21123263.169
  21775505.758   -13375716.25449 -10397445.21347  21775504.682    21775510.087
  20614090.061   -16814125.31349 -13092671.41048  20614089.553    20614094.508
  21772093.806    -9944624.79049  -7730827.90047  21772092.943    21772098.591
  23938578.431    -1672700.97749  -1119426.67344  23938577.477    23938583.537
 04  1 10  1  3 30.0000000  0  9G18G 5G21G30G10G 6G17G29G26
                  -1916794.415 9    619973.334 1
  23608449.871    -1913685.20449  -1432998.79345  23608448.741    23608454.009
  22007870.386   -11363671.91449  -8832065.73647  22007869.609    22007873.289
  21136705.823   -12588442.28849  -9553681.03848  21136705.813    21136710.538
  21788431.534   -13307791.21949 -10344516.59947  21788430.413    21788435.771
  20607763.968   -16847369.15849 -13118575.69448  20607763.442    20607768.403
  21782706.921    -9888853.35449  -7687369.62447  21782705.996    21782711.557
  23926780.496    -1734700.27149  -1167737.72744  23926779.347    23926785.141
                   -478045.31249   -353454.41543
 04  1 10  1  4  0.0000000  0  9G18G 5G21G30G10G 6G17G29G26
                  -2025678.49049   -430441.25443
  23628801.166    -1806738.82349  -1349663.98745  23628799.973    23628805.059
  21997160.872   -11419951.35449  -8875919.83047  21997160.043    21997163.676
  21150235.590   -12517342.85249  -9498278.90247  21150235.587    21150240.337
  21801445.674   -13239401.34349 -10291225.78947  21801444.594    21801449.982
  20601492.513   -16880325.65849 -13144256.08248  20601491.994    20601497.020
  21793347.026    -9832939.29849  -7643800.22747  21793346.091    21793351.665
  23915028.303    -1796455.61049  -1215858.63644  23915027.002    23915032.941
                   -566673.72749   -422516.03143
 04  1 10  1  4 30.0000000  0  8G18G 5G21G30G10G 6G17G29
                  -2134459.81349   -515319.68243
  23649168.240    -1699708.77849  -1266263.97645  23649167.213    23649172.018
  21986492.856   -11476012.16749  -8919603.55547  21986492.018    21986495.696
  21163847.330   -12445812.79549  -9442541.21547  21163847.293    21163852.062
  21814547.766   -13170549.03449 -10237574.63747  21814546.724    21814552.125
  20595276.026   -16912993.04849 -13169711.18248  20595275.537    20595280.623
  21804014.069    -9776883.43449  -7600120.32847  21804013.146    21804018.773
  23903323.690    -1857964.04249  -1263787.15144  23903322.723    23903328.302
 04  1 10  1  5  0.0000000  0  9G18G 5G21G30G10G 6G17G29G26
                  -2243132.04649   -600112.98543
  23669551.492    -1592593.91949  -1182797.91045  23669550.431    23669555.133
  21975867.119   -11531850.78249  -8963114.15147  21975866.294    21975869.988
  21177541.148   -12373850.61149  -9386466.79447  21177541.183    21177546.008
  21827738.124   -13101233.02949 -10183562.15947  21827737.092    21827742.530
  20589115.680   -16945365.71249 -13194936.62548  20589115.182    20589120.274
  21814708.532    -9720682.92049  -7556327.70947  21814707.662    21814713.376
  23891667.061    -1919218.65449  -1311517.95145  23891666.394    23891672.106
                   -743668.03049   -330694.13643
 04  1 10  1  5 30.0000000  0  9G18G 5G21G30G10G 6G17G29G26
                  -2351695.05749   -406372.69743
  23689950.400    -1485398.91649  -1099269.37845  23689948.980    23689953.318
  21965283.278   -11587469.12149  -9006453.09847  21965282.471    21965286.192
  21191316.424   -12301460.91749  -9330059.26247  21191316.427    21191321.314
  21841015.986   -13031457.63949 -10129191.71447  21841014.880    21841020.344
  20583011.369   -16977444.11449 -13219932.77948  20583010.868    20583015.918
  21825429.952    -9664340.84949  -7512424.79447  21825429.090    21825434.878
  23880059.218    -1980218.58949  -1359050.29245  23880058.410    23880064.270
                   -832025.38549   -399543.42743
 04  1 10  1  6  0.0000000  0  9G18G 5G21G30G10G 6G17G29G26
                  -2460147.60749   -490941.06843
  23710363.546    -1378127.66249  -1015681.45545  23710362.127    23710366.030
  21954741.153   -11642868.79549  -9049621.64847  21954740.250    21954744.015
  21205172.307   -12228647.59649  -9273321.62647  21205172.315    21205177.272
  21854380.308   -12961227.21849 -10074466.70847  21854379.208    21854384.705
  20576963.090   -17009228.10949 -13244699.52148  20576962.575    20576967.637
  21836177.777    -9607859.72349  -7468413.51947  21836176.979    21836182.853
  23868500.012    -2040962.36349  -1406383.05945  23868499.273    23868505.139
                   -920287.09349   -468317.52943
 04  1 10  1  6 30.0000000  0  8G18G 5G21G30G10G 6G17G29
                  -2568485.51349   -575420.14443
  23730791.037    -1270781.07949   -932034.80045  23730789.696    23730792.812
  21944240.761   -11698048.07649  -9092618.48347  21944239.919    21944243.733
  21219108.638   -12155411.49849  -9216254.55747  21219108.627    21219113.673
  21867831.159   -12890542.56149 -10019387.73847  21867830.057    21867835.528
  20570971.396   -17040714.34249 -13269234.23548  20570970.903    20570975.995
  21846952.294    -9551238.89449  -7424293.39047  21846951.440    21846957.400
  23856990.715    -2101445.37149  -1453512.56445  23856989.680    23856995.504
 04  1 10  1  7  0.0000000  0  8G18G 5G21G30G10G 6G17G29
                  -2676707.83349   -380598.61643
  23751232.280    -1163362.67449   -848332.16745  23751230.737    23751233.295
  21933782.167   -11753008.45749  -9135444.73047  21933781.309    21933785.154
  21233124.744   -12081756.18549  -9158860.81947  21233124.714    21233129.820
  21881367.577   -12819407.44849  -9963957.76047  21881366.496    21881371.988
  20565036.545   -17071902.45649 -13293536.64848  20565036.042    20565041.090
  21857753.020    -9494480.44449  -7380066.01747  21857752.183    21857758.153
  23845530.790    -2161665.73849  -1500437.39345  23845530.123    23845534.934
 04  1 10  1  7 30.0000000  0  9G18G 5G21G30G10G 6G17G29G26
                  -2784809.46049   -464833.51544                  23891821.255
  23771686.938    -1055872.79149   -764573.85644  23771685.563    23771687.593
  21923365.712   -11807747.23249  -9178098.31247  21923364.890    21923368.711
  21247220.712   -12007681.73449  -9101140.48647  21247220.625    21247225.721
  21894989.701   -12747822.10349  -9908176.97447  21894988.655    21894994.230
  20559159.160   -17102788.36949 -13317603.59048  20559158.631    20559163.678
  21868580.186    -9437582.94849  -7335730.29747  21868579.378    21868585.343
  23834122.052    -2221618.28349  -1547153.60645  23834121.412    23834126.076
                   -462413.55849   -350303.59543
 04  1 10  1  8  0.0000000  0  9G18G 5G21G30G10G 6G17G29G26
  23871264.314    -2892789.59949   -548973.88344  23871262.509    23871269.996
  23792154.539     -948315.19549   -680762.77944  23792153.055    23792154.590
  21912991.314   -11862265.59149  -9220580.13147  21912990.462    21912994.203
  21261395.793   -11933191.84349  -9043096.43347  21261395.582    21261400.652
  21908696.829   -12675790.31649  -9852048.30047  21908695.746    21908701.434
  20553339.318   -17133371.48149 -13341434.58348  20553338.820    20553343.895
  21879433.497    -9380548.48849  -7291287.85647  21879432.654    21879438.613
  23822764.568    -2281301.20649  -1593659.71145  23822764.124    23822768.550
                   -550250.26649   -418747.49243
 04  1 10  1  8 30.0000000  0  8G18G 5G21G30G10G 6G17G29
  23850739.768    -3000645.96949   -633017.77444  23850738.216    23850746.710
  23812634.256     -840692.94549   -596901.33044  23812632.848    23812634.090
  21902658.703   -11916563.95649  -9262890.53247  21902657.796    21902661.592
  21275649.307   -11858289.00949  -8984730.60347  21275649.144    21275654.151
  21922488.448   -12603314.71649  -9795573.80047  21922487.378    21922493.017
  20547577.398   -17163650.31849 -13365028.47748  20547576.948    20547582.017
  21890312.550    -9323378.40449  -7246739.73947  21890311.693    21890317.654
  23811458.921    -2340711.62149  -1639953.49345  23811458.590    23811462.682
 04  1 10  1  9  0.0000000  0  8G18G 5G21G30G10G 6G17G29
  23830239.118    -3108375.91749   -716963.15144  23830237.549    23830245.712
  23833125.765     -733008.08249   -512991.08844  23833124.552    23833125.219
  21892367.790   -11970642.19849  -9305029.40347  21892366.940    21892370.844
  21289981.023   -11782975.72149  -8926044.94447  21289980.823    21289985.756
  21936364.012   -12530397.87849  -9738755.47147  21936362.962    21936368.606
  20541873.845   -17193623.14749 -13388383.92448  20541873.367    20541878.368
  21901217.299    -9266073.27449  -7202086.38947  21901216.413    21901222.416
  23800205.976    -2399846.65949  -1686032.62645  23800205.670    23800209.234
 04  1 10  1  9 30.0000000  0  9G18G 5G21G30G10G 6G17G29G26
  23809763.110    -3215977.80949   -800808.73144  23809761.614    23809769.619
  23853628.539     -625263.94149   -429034.59644  23853627.319    23853627.647
  21882118.665   -12024501.15249  -9346997.40147  21882117.895    21882121.818
  21304390.119   -11707255.53949  -8867042.22247  21304389.928    21304394.779
  21950322.899   -12457043.02549  -9681595.83647  21950321.839    21950327.556
  20536228.670   -17223289.39949 -13411500.47748  20536228.145    20536233.084
  21912147.286    -9208635.05149  -7157329.32647  21912146.447    21912152.455
  23789005.598    -2458704.22549  -1731895.60045  23789005.574    23789008.721
                   -449794.37649   -340902.62143
 04  1 10  1 10  0.0000000  0  9G18G 5G21G30G10G 6G17G29G26
  23789311.738    -3323450.03149   -884553.29444  23789310.204    23789318.264
  23874142.191     -517463.74649   -345034.47544  23874141.056    23874141.288
  21871911.285   -12078141.40849  -9388794.97647  21871910.482    21871914.424
  21318876.003   -11631131.47349  -8807724.78447  21318875.849    21318880.654
  21964364.585   -12383253.27449  -9624097.32047  21964363.548    21964369.275
  20530641.916   -17252647.84349 -13434377.17848  20530641.423    20530646.335
  21923102.456    -9151065.15349  -7112469.66447  21923101.653    21923107.630
  23777858.559    -2517281.88849  -1777540.44245  23777858.192    23777861.694
                   -537152.04249   -408973.28643
 04  1 10  1 10 30.0000000  0  9G18G 5G21G30G10G 6G17G29G26
  23768886.023    -3430787.11449   -968192.56844  23768884.603    23768891.978
  23894666.657     -409607.11649   -260990.35444  23894665.678    23894665.767
  21861746.038   -12131560.29049  -9430420.05747  21861745.189    21861749.117
  21333438.846   -11554603.24149  -8748092.40947  21333438.698    21333443.457
  21978489.043   -12309028.65949  -9566259.94547  21978487.950    21978493.696
  20525114.639   -17281694.19249 -13457010.69748  20525114.109    20525118.986
  21934083.045    -9093362.00949  -7067506.16747  21934082.211    21934088.096
  23766765.320    -2575574.05849  -1822962.85245  23766765.201    23766769.064
                   -624379.06948   -476941.96044                  23838179.592
 04  1 10  1 11  0.0000000  0  9G18G 5G21G30G10G 6G17G29G26
  23748486.056    -3537989.71049  -1051726.99444  23748484.934    23748491.824
  23915200.736     -301699.48349   -176906.50544  23915199.554    23915200.183
  21851622.258   -12184760.53049  -9471874.77847  21851621.457    21851625.466
  21348077.489   -11477676.20449  -8688149.27347  21348077.414    21348082.157
  21992695.054   -12234374.96849  -9508088.23847  21992693.995    21992699.832
  20519646.468   -17310429.62449 -13479401.94348  20519645.945    20519650.780
  21945088.280    -9035529.09049  -7022441.54947  21945087.502    21945093.301
  23755727.288    -2633580.47749  -1868162.59145  23755727.233    23755730.758
  23821587.847     -711474.63749   -544808.66044  23821592.325    23821610.004
 04  1 10  1 11 30.0000000  0  9G18G 5G21G30G10G 6G17G29G26
  23728111.810    -3645057.01749  -1135156.03444  23728110.940    23728116.822
  23935743.991     -193745.08149    -92786.22144  23935742.911    23935743.666
  21841539.788   -12237743.98749  -9513160.56647  21841539.007    21841543.070
  21362791.253   -11400354.53849  -8627898.63547  21362791.247    21362795.961
  22006982.082   -12159296.25749  -9449585.32347  22006980.984    22006986.838
  20514237.432   -17338854.06649 -13501550.84648  20514236.939    20514241.818
  21956117.630    -8977569.00549  -6977277.83647  21956116.947    21956122.715
  23744743.728    -2691300.15149  -1913138.87045  23744743.805    23744747.477
  23805044.895     -798437.11749   -612571.57045  23805050.886    23805055.652
 04  1 10  1 12  0.0000000  0  9G18G 5G21G30G10G 6G17G29G26
  23707764.398    -3751984.18849  -1218475.97344  23707763.347    23707768.572
  23956295.900      -85743.97349     -8629.53144  23956294.483    23956296.643
  21831499.130   -12290508.24249  -9554275.54347  21831498.318    21831502.404
  21377580.185   -11322638.61949  -8567340.79547  21377580.139    21377584.823
  22021349.922   -12083792.67149  -9390751.34747  22021348.857    22021354.702
  20508888.357   -17366963.63549 -13523454.39948  20508887.852    20508892.717
  21967171.536    -8919480.44449  -6932014.00847  21967170.824    21967176.607
  23733815.589    -2748727.74749  -1957887.54045  23733815.623    23733819.715
  23788524.967     -885260.51149   -680225.95545  23788527.605    23788533.117
 04  1 10  1 12 30.0000000  0  9G18G 5G21G30G10G 6G17G29G26
  23687443.974    -3858768.60349  -1301684.56444  23687442.945    23687447.860
  23976855.976       22301.97549     75562.06144  23976855.598    23976857.966
  21821500.251   -12343052.95049  -9595219.46047  21821499.430    21821503.450
  21392443.710   -11244530.33449  -8506477.21747  21392443.649    21392448.341
  22035798.163   -12007866.31749  -9331587.94947  22035797.165    22035802.992
  20503599.568   -17394756.25949 -13545110.97848  20503599.054    20503603.919
  21978249.868    -8861263.69849  -6886650.30047  21978249.105    21978254.855
  23722943.624    -2805859.76249  -2002405.92145  23722943.678    23722948.296
  23772030.223     -971940.54148   -747768.63944  23772030.141    23772037.443
 04  1 10  1 13  0.0000000  0  9G18G 5G21G30G10G 6G17G29G26
  23667151.332    -3965407.76849  -1384779.96745  23667150.512    23667155.031
  23997424.239      130390.19849    159786.61844  23997424.317    23997426.485
  21811543.126   -12395378.10349  -9635992.28547  21811542.333    21811546.336
  21407381.488   -11166032.17849  -8445309.85347  21407381.358    21407386.065
  22050326.491   -11931520.17549  -9272097.43347  22050325.397    22050331.180
  20498371.458   -17422230.14849 -13566519.20148  20498370.933    20498375.807
  21989352.468    -8802919.63249  -6841187.38647  21989351.689    21989357.355
  23712128.456    -2862693.53349  -2046691.92545  23712128.366    23712133.359
  23755561.216    -1058473.62249   -815197.00144  23755560.295    23755569.148
 04  1 10  1 13 30.0000000  0  9G18G 5G21G30G10G 6G17G29G26
  23646885.884    -4071902.91549  -1467763.17945  23646885.363    23646889.687
  24017999.860      238514.32149    244039.09144  24017999.835    24018002.931
  21801627.071   -12447487.45749  -9676596.95347  21801626.179    21801630.186
  21422392.176   -11087150.67849  -8383843.77147  21422391.997    21422396.762
  22064933.398   -11854760.54849  -9212284.72847  22064932.305    22064937.975
  20493203.503   -17449387.41049 -13587680.69548  20493202.981    20493207.957
  22000478.344    -8744452.82349  -6795628.82347  22000477.576    22000483.185
  23701370.106    -2919229.63849  -2090745.99245  23701369.723    23701374.882
  23739124.114    -1144860.14849   -882511.02244  23739123.502    23739128.758
 04  1 10  1 14  0.0000000  0  9G18G 5G21G30G10G 6G17G29G26
  23626649.173    -4178249.64849  -1550630.76745  23626648.470    23626652.634
  24038582.513      346674.00549    328319.32844  24038581.607    24038585.958
  21791752.382   -12499379.09049  -9717031.96947  21791751.535    21791755.540
  21437475.618   -11007886.51649  -8322079.51447  21437475.395    21437480.250
  22079618.906   -11777587.90649  -9152150.17547  22079617.828    22079623.315
  20488096.519   -17476224.43049 -13608592.64848  20488096.016    20488101.023
  22011627.859    -8685862.13249  -6749973.73447  22011627.107    22011632.599
  23690668.685    -2975463.38949  -2134564.46845  23690668.353    23690673.849
  23722715.734    -1231094.39649   -949706.32345  23722715.274    23722718.824
 04  1 10  1 14 30.0000000  0  9G18G 5G21G30G10G 6G17G29G26
  23606441.799    -4284441.89749  -1633377.95445  23606440.981    23606445.030
  24059171.898      454870.35249    412628.08944  24059170.883    24059175.344
  21781919.721   -12551049.53049  -9757294.63347  21781918.941    21781922.876
  21452632.012   -10928238.55249  -8260016.18647  21452631.872    21452636.749
  22094383.155   -11700001.17549  -9091692.97347  22094382.078    22094387.578
  20483051.560   -17502735.85349 -13629250.89648  20483051.049    20483056.067
  22022801.455    -8627144.79849  -6704219.95447  22022800.672    22022806.103
  23680026.192    -3031388.25549  -2178142.22545  23680025.750    23680031.829
  23706336.517    -1317168.98349  -1016777.24944  23706335.599    23706339.627
 04  1 10  1 15  0.0000000  0  9G18G 5G21G30G10G 6G17G29G26
  23586262.543    -4390485.68949  -1716009.46745  23586261.512    23586265.640
  24079765.493      563092.07048    496956.66244  24079764.745    24079769.616
  21772127.654   -12602507.01949  -9797391.35947  21772126.880    21772130.767
  21467859.473   -10848217.62349  -8197662.24447  21467859.330    21467864.221
  22109224.142   -11622011.52649  -9030921.79947  22109223.083    22109228.471
  20478067.184   -17528928.56549 -13649660.79148  20478066.700    20478071.767
  22033997.377    -8568310.11849  -6658374.73347  22033996.611    22034001.988
  23669441.612    -3087009.74249  -2221483.60445  23669441.406    23669447.409
  23689984.253    -1403088.62649  -1083727.63444  23689983.905    23689989.807
 04  1 10  1 15 30.0000000  0  9G18G 5G21G30G10G 6G17G29G26
  23566113.701    -4496368.54549  -1798515.56545  23566112.739    23566117.033
  24100365.473      671347.13749    581311.21144  24100365.114    24100370.278
  21762378.069   -12653741.65449  -9837314.43647  21762377.260    21762381.047
  21483159.305   -10767816.66349  -8135012.16847  21483159.168    21483164.041
  22124143.229   -11543611.87449  -8969831.14847  22124142.105    22124147.418
  20473145.747   -17554790.87049 -13669813.22948  20473145.276    20473150.328
  22045217.350    -8509349.06949  -6612431.04147  22045216.554    22045221.933
  23658917.956    -3142315.20649  -2264578.70045  23658917.611    23658923.115
  23673666.948    -1488840.14949  -1150546.87044  23673667.059    23673670.838
 04  1 10  1 16  0.0000000  0  9G18G 5G21G30G10G 6G17G29G26
  23545994.477    -4602095.16849  -1880899.93745  23545993.489    23545997.928
  24120969.934      779625.81948    665684.20144  24120969.343    24120975.448
  21752669.536   -12704760.43549  -9877069.31447  21752668.711    21752672.467
  21498529.620   -10687045.03049  -8072073.25647  21498529.528    21498534.364
  22139138.520   -11464811.69349  -8908428.38847  22139137.404    22139142.629
  20468286.185   -17580328.11249 -13689712.36848  20468285.711    20468290.734
  22056459.954    -8450269.08549  -6566394.67847  22056459.091    22056464.545
  23648453.397    -3197308.43849  -2307430.49945  23648452.966    23648458.100
  23657381.632    -1574426.66949  -1217237.36345  23657381.494    23657384.087
 04  1 10  1 16 30.0000000  0  9G18G 5G21G30G10G 6G17G29G26
  23525905.701    -4707662.08749  -1963159.82745  23525904.695    23525909.357
  24141578.153      887927.14948    750074.81944  24141577.675    24141584.581
  21743002.191   -12755562.13949  -9916655.04847  21743001.433    21743005.156
  21513970.231   -10605904.27849  -8008846.71447  21513970.128    21513974.950
  22154209.659   -11385612.48949  -8846714.70547  22154208.530    22154213.782
  20463488.949   -17605537.71749 -13709356.20548  20463488.482    20463493.523
  22067724.960    -8391070.20749  -6520265.67447  22067724.142    22067729.708
  23638048.412    -3251985.51749  -2350035.97845  23638048.131    23638053.117
  23641127.663    -1659843.42149  -1283795.71845  23641127.340    23641130.087
 04  1 10  1 17  0.0000000  0  9G18G 5G21G30G10G 6G17G29G26
  23505848.284    -4813061.93049  -2045289.54145  23505847.632    23505852.415
  24162190.963      996253.60548    834485.04144  24162190.786    24162198.528
  21733377.166   -12806142.30649  -9956068.15547  21733376.307    21733380.002
  21529481.497   -10524392.20249  -7945330.82647  21529481.390    21529486.235
  22169357.171   -11306012.04349  -8784688.37347  22169356.064    22169361.246
  20458755.352   -17630412.91149 -13728739.46448  20458754.899    20458759.984
  22079013.450    -8331748.30049  -6474040.79747  22079012.727    22079018.307
  23627704.819    -3306338.91049  -2392389.21545  23627704.751    23627709.689
  23624904.970    -1745081.62558  -1350215.10044  23624904.772    23624910.413
 04  1 10  1 17 30.0000000  0  9G18G 5G21G30G10G 6G17G29G26
  23485822.613    -4918296.76749  -2127290.64245  23485821.844    23485826.891
  24182806.779     1104598.00048    918909.21544  24182807.083    24182815.832
  21723793.314   -12856505.32649  -9995312.05447  21723792.472    21723796.153
  21545062.015   -10442516.01549  -7881531.21847  21545061.934    21545066.789
  22184579.758   -11226017.62549  -8722355.04747  22184578.576    22184583.730
  20454084.896   -17654956.52949 -13747864.35048  20454084.442    20454089.496
  22090324.556    -8272308.57549  -6427724.10547  22090323.777    22090329.337
  23617423.094    -3360370.29249  -2434491.50945  23617422.938    23617427.721
  23608718.840    -1830142.59749  -1416496.38244  23608718.833    23608724.166
 04  1 10  1 18  0.0000000  0  9G18G 5G21G30G10G 6G17G29G26
  23465828.611    -5023364.93849  -2209161.89245  23465827.917    23465833.130
  24203426.655     1212957.32948   1003345.07744  24203426.378    24203436.223
  21714250.653   -12906651.85949 -10034387.27047  21714249.788    21714253.553
  21560711.300   -10360278.89549  -7817450.37347  21560711.190    21560716.043
  22199876.563   -11145632.67249  -8659717.40047  22199875.386    22199880.474
  20449477.691   -17679167.75549 -13766730.23448  20449477.251    20449482.238
  22101657.837    -8212752.66449  -6381316.88547  22101656.961    22101662.472
  23607203.289    -3414077.43449  -2476341.17045  23607203.003    23607207.441
  23592567.795    -1915023.41149  -1482637.04945  23592567.274    23592571.936
 04  1 10  1 18 30.0000000  0  9G18G 5G21G30G10G 6G17G29G26
  23445866.834    -5128263.27349  -2290900.77145  23445866.144    23445871.638
  24224048.944     1321329.74848   1087791.09844  24224048.602    24224059.445
  21704749.298   -12956581.30549 -10073293.32047  21704748.475    21704752.259
  21576428.767   -10277682.83249  -7753089.82647  21576428.699    21576433.560
  22215247.264   -11064858.98149  -8596776.84747  22215246.115    22215251.257
  20444934.197   -17703044.14149 -13785335.19948  20444933.737    20444938.738
  22113013.136    -8153080.40349  -6334819.00747  22113012.220    22113017.746
  23597045.579    -3467456.91149  -2517935.49145  23597045.196    23597049.518
  23576451.445    -1999719.41849  -1548633.73645  23576450.593    23576454.790
 04  1 10  1 19  0.0000000  0  9G18G 5G21G30G10G 6G17G29G26
  23425937.942    -5232989.97849  -2372505.91945  23425937.042    23425942.839
  24244673.582     1429712.46248   1172245.13144  24244672.881    24244683.952
  21695289.165   -13006294.07049 -10112030.53247  21695288.315    21695292.238
  21592213.971   -10194731.19449  -7688452.20947  21592213.862    21592218.756
  22230691.304   -10983699.77949  -8533535.90347  22230690.183    22230695.389
  20440454.643   -17726584.60149 -13803678.41348  20440454.188    20440459.142
  22124390.100    -8093293.45749  -6288231.76547  22124389.284    22124394.868
  23586950.786    -3520506.28649  -2559272.58745  23586950.234    23586954.564
  23560369.828    -2084227.63048  -1614484.21445  23560368.820    23560373.532
 04  1 10  1 19 30.0000000  0  9G18G 5G21G30G10G 6G17G29G26
  23406042.310    -5337540.27649  -2453973.62945  23406041.664    23406047.445
  24265300.622     1538105.02948   1256706.85444  24265299.362    24265310.306
  21685870.530   -13055788.57849 -10150597.67347  21685869.695    21685873.665
  21608066.726   -10111424.34549  -7623537.80647  21608066.597    21608071.573
  22246208.656   -10902155.80649  -8469995.13147  22246207.521    22246212.727
  20436039.704   -17749785.67249 -13821757.15648  20436039.194    20436044.096
  22135789.333    -8033390.28849  -6241553.94847  22135788.512    22135794.075
  23576920.027    -3573220.88249  -2600348.82445  23576919.158    23576923.192
  23544322.883    -2168542.30249  -1680184.03345  23544322.837    23544329.022
 04  1 10  1 20  0.0000000  0  9G18G 5G21G30G10G 6G17G29G26
  23386180.086    -5441916.24749  -2535305.47945  23386179.395    23386185.293
  24285926.803     1646500.67048   1341170.91744  24285927.121    24285937.096
  21676492.691   -13105068.58249 -10188997.66747  21676491.917    21676495.940
  21623985.738   -10027769.23849  -7558352.02747  21623985.616    21623990.671
  22261797.973   -10820233.94749  -8406159.88947  22261796.809    22261801.992
  20431688.915   -17772649.47949 -13839573.09648  20431688.406    20431693.257
  22147209.824    -7973375.73349  -6194789.34547  22147208.946    22147214.504
  23566952.551    -3625601.75549  -2641165.00445  23566951.499    23566955.364
  23528315.023    -2252663.78749  -1745733.10845  23528314.796    23528321.296
 04  1 10  1 20 30.0000000  0  9G18G 5G21G30G10G 6G17G29G26
  23366352.043    -5546111.15949  -2616496.25645  23366351.403    23366357.695
  24306554.903     1754901.79858   1425639.31444  24306555.771    24306565.757
  21667156.712   -13154129.70049 -10227227.10047  21667155.910    21667159.912
  21639971.300    -9943763.96449  -7492893.40147  21639971.270    21639976.431
  22277459.456   -10737932.13249  -8342028.60147  22277458.287    22277463.567
  20427403.501   -17795170.04849 -13857121.58648  20427402.973    20427407.737
  22158652.171    -7913246.15349  -6147935.11047  22158651.285    22158656.769
  23557049.659    -3677641.89949  -2681715.69845  23557048.564    23557052.302
  23512345.694    -2336584.12949  -1811125.52745  23512345.702    23512351.569
 04  1 10  1 21  0.0000000  0  9G18G 5G21G30G10G 6G17G29G26
  23346558.933    -5650124.95849  -2697545.90845  23346557.924    23346564.487
  24327183.343     1863303.13158   1510107.84744  24327184.848    24327193.921
  21657861.867   -13202974.56249 -10265288.02347  21657861.035    21657865.014
  21656022.585    -9859413.99249  -7427166.17847  21656022.528    21656027.761
  22293192.252   -10655255.73349  -8277605.41947  22293191.095    22293196.399
  20423183.206   -17817348.33949 -13874403.36148  20423182.665    20423187.311
  22170115.811    -7853005.00549  -6100993.93947  22170114.909    22170120.304
  23547211.682    -3729340.93749  -2722000.57645  23547210.575    23547214.098
  23496414.424    -2420302.14649  -1876360.25345  23496414.283    23496420.340
 04  1 10  1 21 30.0000000  0  9G18G 5G21G30G10G 6G17G29G26
  23326799.876    -5753960.13749  -2778456.38345  23326798.574    23326805.081
  24347813.028     1971697.89448   1594571.12444  24347814.802    24347820.803
  21648607.235   -13251607.84649 -10303184.07747  21648606.442    21648610.367
  21672138.121    -9774726.34249  -7361175.82947  21672138.101    21672143.363
  22308994.943   -10572212.11349  -8212896.08547  22308993.775    22308999.056
  20419027.459   -17839187.32749 -13891420.74248  20419026.892    20419031.538
  22181599.570    -7792657.23049  -6053969.68247  22181598.719    22181604.117
  23537438.025    -3780700.92449  -2762021.26645  23537437.091    23537440.594
  23480520.570    -2503818.59349  -1941437.98345  23480520.414    23480527.521
 04  1 10  1 22  0.0000000  0  9G18G 5G21G30G10G 6G17G29G26
  23307076.684    -5857605.78349  -2859219.19745  23307075.228    23307081.972
  24368441.602     2080091.93848   1679033.99144  24368442.214    24368448.276
  21639394.483   -13300021.27149 -10340908.81947  21639393.649    21639397.578
  21688318.915    -9689695.59749  -7294918.13047  21688318.939    21688324.233
  22324868.536   -10488795.87349  -8147896.40047  22324867.366    22324872.672
  20414938.070   -17860677.27549 -13908166.14848  20414937.533    20414942.125
  22193105.109    -7732195.72349  -6006856.79247  22193104.174    22193109.542
  23527730.888    -3831710.87449  -2801769.20945  23527730.052    23527733.910
  23464668.878    -2587121.96649  -2006349.66245  23464668.807    23464675.314
 04  1 10  1 22 30.0000000  0  9G18G 5G21G30G10G 6G17G29G26
  23287388.431    -5961066.41449  -2939837.82345  23287387.118    23287393.882
  24389068.057     2188475.79348   1763488.93144  24389067.401    24389072.821
  21630222.240   -13348222.00249 -10378467.81447  21630221.379    21630225.274
  21704563.239    -9604331.23949  -7228400.46247  21704563.283    21704568.542
  22340811.198   -10405016.52449  -8082613.77347  22340809.989    22340815.357
  20410914.036   -17881823.37349 -13924643.62048  20410913.519    20410918.108
  22204630.792    -7671627.71649  -5959660.92047  22204629.885    22204635.290
  23518089.634    -3882374.61049  -2841247.35145  23518088.976    23518092.954
  23448857.269    -2670215.25949  -2071097.58245  23448857.182    23448863.254
 04  1 10  1 23  0.0000000  0  9G18G 5G21G30G10G 6G17G29G26
  23267736.462    -6064337.15549  -3020308.48245  23267735.322    23267742.152
  24409691.268     2296849.91158   1847936.29844  24409689.007    24409695.517
  21621090.936   -13396207.22749 -10415858.89047  21621090.111    21621093.948
  21720871.081    -9518633.57149  -7161623.08247  21720871.044    21720876.275
  22356822.992   -10320874.04749  -8017048.19447  22356821.804    22356827.142
  20406956.318   -17902621.31149 -13940849.80248  20406955.818    20406960.383
  22216177.013    -7610951.65849  -5912380.85647  22216176.111    22216181.653
  23508514.995    -3932687.12449  -2880451.82845  23508514.664    23508518.888
  23433087.098    -2753092.04449  -2135676.81845  23433086.652    23433092.638
 04  1 10  1 23 30.0000000  0  9G18G 5G21G30G10G 6G17G29G26
  23248121.242    -6167415.75749  -3100629.44345  23248119.792    23248126.753
  24430311.364     2405211.57248   1932373.89044  24430308.523    24430315.814
  21612000.602   -13443977.40749 -10453082.39547  21611999.744    21612003.607
  21737241.695    -9432605.45649  -7094588.20547  21737241.701    21737246.860
  22372903.322   -10236371.62449  -7951202.13047  22372902.082    22372907.406
  20403065.110   -17923069.80849 -13956783.68948  20403064.592    20403069.129
  22227743.536    -7550168.25449  -5865017.14647  22227742.655    22227748.365
  23499007.931    -3982645.73949  -2919380.55145  23499007.586    23499012.071
  23417357.531    -2835749.00449  -2200084.79445  23417357.143    23417363.722
 04  1 10  1 24  0.0000000  0  9G18G 5G21G30G10G 6G17G29G26
  23228544.045    -6270293.64949  -3180793.99545  23228542.655    23228549.537
  24450927.913     2513564.56048   2016804.82644  24450926.050    24450935.108
  21602952.322   -13491526.40549 -10490133.55347  21602951.518    21602955.382
  21753675.975    -9346243.32349  -7027293.05047  21753675.963    21753681.041
  22389052.851   -10151505.61549  -7885072.74847  22389051.592    22389056.847
  20399241.894   -17943161.02349 -13972439.17248  20399241.399    20399245.845
  22239331.554    -7489271.96749  -5817565.47347  22239330.702    22239336.573
  23489569.901    -4032241.61049  -2958026.60845  23489569.589    23489574.256
  23401671.265    -2918176.10149  -2264313.60245  23401671.001    23401678.398
 04  1 10  1 24 30.0000000  0  9G18G 5G21G30G10G 6G17G29G26
  23209003.799    -6372975.71149  -3260805.98745  23209002.642    23209009.567
  24471541.011     2621899.44348   2101221.67744  24471540.516    24471550.358
  21593944.881   -13538861.40449 -10527017.96347  21593944.013    21593947.790
  21770171.892    -9259557.38949  -6959745.58847  21770171.833    21770176.822
  22405269.483   -10066286.15249  -7818667.95947  22405268.316    22405273.537
  20395485.596   -17962900.65049 -13987820.69748  20395485.089    20395489.499
  22250939.499    -7428270.98549  -5770032.21947  22250938.666    22250944.673
  23480200.070    -4081479.40349  -2996393.63045  23480199.866    23480204.597
  23386028.627    -3000377.53849  -2328366.58445  23386028.240    23386035.742
 04  1 10  1 25  0.0000000  0  9G18G 5G21G30G10G 6G17G29G26
  23189501.273    -6475459.15749  -3340663.19145  23189500.682    23189507.570
  24492149.590     2730214.05248   2185622.64944  24492150.939    24492161.983
  21584978.125   -13585982.35249 -10563735.57547  21584977.261    21584980.956
  21786728.959    -9172549.94549  -6891947.59147  21786728.891    21786733.801
  22421553.060    -9980715.35749  -7751989.39947  22421551.893    22421557.038
  20391796.535   -17982286.83149 -14002926.80748  20391796.003    20391800.410
  22262567.407    -7367165.65649  -5722417.66147  22262566.566    22262572.668
  23470899.059    -4130356.10249  -3034479.27345  23470898.795    23470903.699
  23370429.798    -3082348.85449  -2392240.23545  23370429.489    23370436.898
 04  1 10  1 25 30.0000000  0  9G18G 5G21G30G10G 6G17G29G26
  23170038.395    -6577737.60449  -3420360.66645  23170037.767    23170044.486
  24512756.991     2838509.79548   2270009.04944  24512758.718    24512769.999
  21576052.882   -13632884.94249 -10600283.04047  21576052.010    21576055.713
  21803347.494    -9085219.69549  -6823898.05947  21803347.377    21803352.186
  22437903.792    -9894791.85649  -7685036.00847  22437902.564    22437907.706
  20388175.826   -18001313.83849 -14017753.04548  20388175.320    20388179.651
  22274215.875    -7305952.39949  -5674719.00047  22274215.052    22274221.152
  23461667.924    -4178864.69249  -3072278.09145  23461667.606    23461672.570
  23354875.647    -3164082.26449  -2455928.50645  23354875.398    23354883.548
 04  1 10  1 26  0.0000000  0  9G18G 5G21G30G10G 6G17G29G26
  23150614.180    -6679812.52449  -3499899.54845  23150613.534    23150620.255
  24533360.939     2946781.72848   2354376.78044  24533362.139    24533373.415
  21567168.440   -13679572.85249 -10636663.22547  21567167.590    21567171.303
  21820026.230    -8997572.63249  -6755601.66647  21820026.070    21820030.849
  22454320.330    -9808521.88449  -7617812.64447  22454319.138    22454324.263
  20384623.146   -18019983.32449 -14032300.69148  20384622.629    20384626.925
  22285884.006    -7244635.38849  -5626939.49646  22285883.174    22285889.369
  23452506.401    -4227005.96449  -3109790.69445  23452506.148    23452511.360
  23339367.186    -3245577.64849  -2519431.35045  23339366.942    23339375.187
 04  1 10  1 26 30.0000000  0  9G18G 5G21G30G10G 6G17G29G26
  23131227.849    -6781688.57849  -3579283.47045  23131227.284    23131233.823
  24553958.420     3055019.46748   2438717.87044  24553958.977    24553970.579
  21558323.484   -13726053.46549 -10672881.86647  21558322.584    21558326.330
  21836763.223    -8909619.13849  -6687066.48147  21836763.074    21836767.874
  22470801.006    -9721915.87349  -7550327.41147  22470799.779    22470804.805
  20381137.376   -18038301.25149 -14046574.38548  20381136.853    20381141.131
  22297570.303    -7183222.68449  -5579085.41546  22297569.504    22297575.807
  23443414.124    -4274784.84349  -3147020.92145  23443413.853    23443419.298
  23323903.827    -3326838.73449  -2582751.58545  23323903.837    23323911.595
 04  1 10  1 27  0.0000000  0  9G18G 5G21G30G10G 6G17G29G26
  23111881.865    -6883354.11749  -3658503.34145  23111881.287    23111887.510
  24574552.280     3163230.00148   2523037.79444  24574551.472    24574562.554
  21549519.702   -13772317.43049 -10708931.70547  21549518.888    21549522.605
  21853559.769    -8821352.33949  -6618287.17847  21853559.635    21853564.463
  22487346.915    -9634966.88749  -7482574.94347  22487345.545    22487350.608
  20377720.569   -18056256.57549 -14060565.54448  20377720.048    20377724.302
  22309276.556    -7121705.52549  -5531149.96246  22309275.770    22309282.084
  23434393.352    -4322189.11949  -3183959.25945  23434392.918    23434398.287
  23308488.105    -3407852.37849  -2645878.97045  23308487.858    23308494.994
 04  1 10  1 27 30.0000000  0  9G18G 5G21G30G10G 6G17G29G26
  23092575.679    -6984811.30449  -3737560.87845  23092574.972    23092580.876
  24595138.064     3271407.01849   2607331.52844  24595137.150    24595147.831
  21540756.464   -13818369.13749 -10744816.14247  21540755.575    21540759.241
  21870414.564    -8732779.55249  -6549269.43447  21870414.407    21870419.337
  22503956.600    -9547682.13849  -7414560.84547  22503955.246    22503960.344
  20374372.271   -18073852.03149 -14074276.28548  20374371.726    20374375.989
  22321001.718    -7060089.00949  -5483137.08246  22321001.022    22321007.229
  23425443.480    -4369220.88049  -3220607.32545  23425443.062    23425448.534
  23293119.223    -3488619.32049  -2708814.11045  23293118.809    23293125.485
 04  1 10  1 28  0.0000000  0  9G18G 5G21G30G10G 6G17G29G26
  23073310.223    -7086054.92549  -3816451.98445  23073309.190    23073314.750
  24615718.473     3379550.62048   2691599.31444  24615716.912    24615727.023
  21532033.961   -13864206.06749 -10780533.22447  21532033.094    21532036.789
  21887327.557    -8643900.80649  -6480013.28647  21887327.429    21887332.472
  22520630.105    -9460061.65849  -7346285.13546  22520628.763    22520633.813
  20371093.240   -18091083.37949 -14087703.30148  20371092.706    20371096.973
  22332746.476    -6998370.91049  -5435045.04146  22332745.682    22332751.670
  23416565.820    -4415874.45149  -3256960.68345  23416565.489    23416570.536
  23277797.620    -3569133.17349  -2771552.10145  23277797.128    23277804.024
 04  1 10  1 28 30.0000000  0  9G18G 5G21G30G10G 6G17G29G26
  23054085.296    -7187083.79749  -3895175.74946  23054084.358    23054089.466
  24636291.239     3487657.56648   2775838.45144  24636289.780    24636299.288
  21523352.225   -13909829.25049 -10816083.74647  21523351.384    21523354.998
  21904298.057    -8554719.88249  -6410521.68047  21904297.960    21904303.092
  22537366.792    -9372109.28949  -7277750.81246  22537365.467    22537370.539
  20367883.586   -18107950.32049 -14100846.36448  20367883.048    20367887.305
  22344510.091    -6936553.02549  -5386875.24646  22344509.248    22344515.092
  23407760.314    -4462148.59549  -3293018.40745  23407759.904    23407764.881
  23262524.565    -3649391.50949  -2834090.97145  23262524.220    23262530.962
 04  1 10  1 29  0.0000000  0  9G18G 5G21G30G10G 6G17G29G26
  23034901.825    -7287895.99649  -3973730.68046  23034900.630    23034905.314
  24656856.065     3595724.87048   2860046.73844  24656854.365    24656864.213
  21514711.024   -13955239.26549 -10851468.16647  21514710.186    21514713.764
  21921325.392    -8465240.24249  -6340797.30147  21921325.362    21921330.578
  22554166.038    -9283827.89049  -7208960.09946  22554164.787    22554169.846
  20364743.396   -18124451.81549 -14113704.66048  20364742.862    20364747.115
  22356292.491    -6874636.55249  -5338628.62546  22356291.611    22356297.287
  23399027.155    -4508041.00049  -3328778.66745  23399026.702    23399031.797
  23247301.004    -3729391.14749  -2896428.28045  23247300.848    23247307.131
 04  1 10  1 29 30.0000000  0  9G18G 5G21G30G10G 6G17G29G26
  23015760.559    -7388485.27649  -4052111.89946  23015759.261    23015763.510
  24677413.357     3703753.93348   2944225.19044  24677411.663    24677421.537
  21506111.209   -14000432.64549 -10886683.77247  21506110.320    21506113.799
  21938409.928    -8375460.81349  -6270839.32647  21938409.835    21938415.086
  22571028.092    -9195216.79549  -7139912.47246  22571026.854    22571031.953
  20361673.783   -18140582.51249 -14126274.02248  20361673.267    20361677.518
  22368094.341    -6812618.30049  -5290302.68946  22368093.431    22368098.868
  23390367.793    -4553545.48049  -3364236.64045  23390367.366    23390372.888
  23232128.515    -3809124.57749  -2958558.12245  23232128.172    23232133.903
 04  1 10  1 30  0.0000000  0  9G18G 5G21G30G10G 6G17G29G26
  22996660.178    -7488858.62949  -4130324.87146  22996658.924    22996662.870
  24697961.390     3811733.42949   3028364.99745  24697960.235    24697969.446
  21497550.857   -14045418.24149 -10921737.47347  21497549.896    21497553.364
  21955549.242    -8285393.46449  -6200656.99447  21955549.130    21955554.396
  22587950.766    -9106287.70449  -7070617.06846  22587949.498    22587954.572
  20358673.321   -18156349.83749 -14138560.24848  20358672.804    20358677.051
  22379913.585    -6750508.06249  -5241905.08446  22379912.689    22379918.010
  23381780.989    -4598668.38949  -3399397.29645  23381780.770    23381786.199
  23217005.598    -3888597.22449  -3020484.78345  23217005.281    23217010.176
 04  1 10  1 30 30.0000000  0  9G18G 5G21G30G10G 6G17G29G26
  22977603.126    -7589003.62949  -4208359.90146  22977602.027    22977605.702
  24718502.839     3919671.24349   3112472.38744  24718501.068    24718509.109
  21489031.808   -14090186.23449 -10956621.61747  21489030.854    21489034.321
  21972744.768    -8195030.91349  -6130244.63047  21972744.635    21972749.860
  22604935.323    -9017033.20849  -7001068.08946  22604934.060    22604938.974
  20355744.233   -18171742.18649 -14150554.27748  20355743.722    20355747.957
  22391752.166    -6688296.26649  -5193428.33246  22391751.293    22391756.406
  23373269.505    -4643397.23149  -3434250.88945  23373269.262    23373274.740
  23201934.729    -3967795.25349  -3082197.44745  23201934.395    23201939.044
 04  1 10  1 31  0.0000000  0  9G18G 5G21G30G10G 6G17G29G26
  22958588.843    -7688924.69949  -4286220.43546  22958587.621    22958591.127
  24739033.529     4027558.22949   3196540.17145  24739031.842    24739039.461
  21480552.865   -14134743.19649 -10991341.30847  21480551.933    21480555.408
  21989994.773    -8104382.45949  -6059609.47647  21989994.534    21989999.735
  22621980.002    -8927462.68149  -6931272.85346  22621978.740    22621983.593
  20352885.547   -18186764.64649 -14162260.07848  20352885.021    20352889.237
  22403608.719    -6625990.08349  -5144878.02546  22403607.835    22403612.709
  23364832.128    -4687735.97049  -3468800.48945  23364831.933    23364837.145
  23186915.445    -4046721.78649  -3143698.53545  23186915.223    23186919.841
 04  1 10  1 31 30.0000000  0  9G18G 5G21G30G10G 6G17G29G26
  22939617.520    -7788618.92049  -4363904.20046  22939616.465    22939619.763
  24759554.685     4135393.11449   3280567.37445  24759553.525    24759559.546
  21472114.121   -14179088.86749 -11025896.36547  21472113.205    21472116.724
  22007298.484    -8013450.61949  -5988753.50047  22007298.305    22007303.511
  22639084.255    -8837578.63649  -6861233.32246  22639083.010    22639087.868
  20350097.557   -18201415.30249 -14173676.16248  20350097.051    20350101.304
  22415483.208    -6563589.69449  -5096254.33646  22415482.284    22415486.947
  23356469.592    -4731681.87849  -3503044.00945  23356469.153    23356474.236
  23171948.515    -4125372.76949  -3204984.90545  23171948.274    23171953.282
 04  1 10  1 32  0.0000000  0  9G18G 5G21G30G10G 6G17G29G26
  22920690.651    -7888079.49449  -4441405.90446  22920689.676    22920692.849
  24780065.900     4243177.30249   3364555.01845  24780064.697    24780070.070
  21463716.400   -14223218.83349 -11060283.34247  21463715.499    21463719.039
  22024656.559    -7922233.69149  -5917675.38947  22024656.347    22024661.509
  22656248.543    -8747379.17749  -6790948.01546  22656247.347    22656252.177
  20347381.466   -18215688.07649 -14184797.79448  20347380.961    20347385.267
  22427376.272    -6501091.31649  -5047554.28846  22427375.421    22427379.955
  23348182.938    -4775227.78349  -3536975.83745  23348182.351    23348187.454
  23157035.488    -4203739.98049  -3266050.17545  23157035.378    23157040.564
 04  1 10  1 32 30.0000000  0  9G18G 5G21G30G10G 6G17G29G26
  22901807.932    -7987308.56849  -4518727.22545  22901806.959    22901810.071
  24800566.145     4350904.53949   3448498.39645  24800564.995    24800570.012
  21455358.991   -14267136.88149 -11094505.19147  21455358.125    21455361.675
  22042067.529    -7830738.63349  -5846380.55547  22042067.324    22042072.426
  22673471.525    -8656871.32049  -6720422.38946  22673470.383    22673475.198
  20344736.752   -18229585.74149 -14195627.13948  20344736.272    20344740.575
  22439287.261    -6438499.51749  -4998781.43446  22439286.335    22439290.831
  23339971.909    -4818375.28749  -3570597.23945  23339971.424    23339976.735
  23142176.527    -4281823.96249  -3326894.75245  23142176.325    23142181.608
 04  1 10  1 33  0.0000000  0  9G18G 5G21G30G10G 6G17G29G26
  22882970.067    -8086301.34149  -4595864.40346  22882969.271    22882972.313
  24821056.131     4458575.15549   3532397.56945  24821054.919    24821059.116
  21447042.186   -14310841.39749 -11128560.64947  21447041.352    21447044.910
  22059531.340    -7738965.96349  -5774869.39447  22059531.164    22059536.180
  22690753.142    -8566055.27549  -6649656.62246  22690752.039    22690756.902
  20342164.177   -18243104.46649 -14206161.20548  20342163.703    20342168.027
  22451216.229    -6375812.74249  -4949934.58846  22451215.347    22451219.742
  23331837.820    -4861119.94549  -3603904.71845  23331837.385    23331842.607
  23127372.453    -4359618.93649  -3387514.10445  23127372.344    23127377.463
 04  1 10  1 33 30.0000000  0  8G18G21G30G10G 6G17G29G26
  22864177.692    -8185057.00249  -4672816.81046  22864176.700    22864179.692
  21438765.767   -14354333.86149 -11162450.87347  21438764.972    21438768.540
  22077047.115    -7646920.11149  -5703145.35947  22077046.978    22077051.914
  22708092.702    -8474935.38549  -6578654.08746  22708091.526    22708096.351
  20339663.746   -18256244.30949 -14216400.03548  20339663.274    20339667.580
  22463162.910    -6313032.98749  -4901015.28446  22463162.016    22463166.271
  23323780.862    -4903460.61449  -3636897.41345  23323780.342    23323785.376
  23112623.715    -4437122.69349  -3447906.54745  23112623.605    23112628.591
 04  1 10  1 34  0.0000000  0  8G18G21G30G10G 6G17G29G26
  22845430.923    -8283571.71149  -4749581.46046  22845429.908    22845432.963
  21430530.137   -14397612.34749 -11196174.35547  21430529.253    21430532.840
  22094614.774    -7554602.00349  -5631209.17647  22094614.586    22094619.430
  22725489.789    -8383512.50049  -6507415.45146  22725488.641    22725493.518
  20337236.058   -18269001.96549 -14226341.05648  20337235.585    20337239.857
  22475127.490    -6250159.10249  -4852022.62746  22475126.573    22475130.752
  23315801.698    -4945393.03049  -3669571.96345  23315801.076    23315805.767
  23097931.390    -4514329.78649  -3508067.82045  23097931.256    23097936.064
 04  1 10  1 34 30.0000000  0  8G18G21G30G10G 6G17G29G26
  22826730.254    -8381843.69949  -4826156.99846  22826729.364    22826732.441
  21422334.968   -14440677.88149 -11229731.91047  21422334.137    21422337.760
  22112233.440    -7462015.28249  -5559063.69047  22112233.349    22112238.135
  22742943.911    -8291790.27649  -6435943.58046  22742942.749    22742947.733
  20334881.240   -18281376.68949 -14235983.69048  20334880.745    20334885.015
  22487109.606    -6187192.28349  -4802957.56746  22487108.699    22487112.887
  23307900.557    -4986915.40149  -3701927.03045  23307899.846    23307904.287
  23083295.983    -4591237.27949  -3567995.65145  23083295.936    23083300.721
 04  1 10  1 35  0.0000000  0  8G18G21G30G10G 6G17G29G26
  22808075.373    -8479876.18649  -4902545.90546  22808074.339    22808077.387
  21414179.397   -14483535.60449 -11263127.52347  21414178.513    21414182.183
  22129901.730    -7369167.99649  -5486715.15947  22129901.648    22129906.348
  22760453.435    -8199776.54949  -6364244.55046  22760452.307    22760457.322
  20332598.556   -18293372.22449 -14245330.84748  20332598.065    20332602.370
  22499108.283    -6124138.25649  -4753824.55646  22499107.462    22499111.738
  23300076.654    -5028030.86749  -3733965.00945  23300075.953    23300080.237
  23068717.801    -4667846.89049  -3627691.35545  23068717.579    23068722.317
 04  1 10  1 35 30.0000000  0  8G18G21G30G10G 6G17G29G26
  22789467.106    -8577662.93449  -4978743.31446  22789466.061    22789469.114
  21406064.015   -14526181.96149 -11296358.44147  21406063.181    21406066.844
  22147619.820    -7276059.16449  -5414162.83247  22147619.752    22147624.406
  22778018.736    -8107470.45849  -6292317.70646  22778017.577    22778022.556
  20330389.038   -18304983.18549 -14254378.34348  20330388.525    20330392.849
  22511124.230    -6060993.97149  -4704621.20546  22511123.354    22511127.745
  23292331.394    -5068732.77749  -3765680.73845  23292330.725    23292334.795
  23054197.602    -4744151.11749  -3687149.11445  23054197.391    23054202.232
 04  1 10  1 36  0.0000000  0  8G18G21G30G10G 6G17G29G26
  22770905.962    -8675202.21749  -5054747.90746  22770905.000    22770907.995
  21397988.802   -14568617.55749 -11329425.12647  21397987.901    21397991.632
  22165387.083    -7182692.03349  -5341409.23947  22165386.972    22165391.634
  22795639.099    -8014874.98849  -6220165.37846  22795637.868    22795642.972
  20328252.819   -18316208.80149 -14263125.56448  20328252.314    20328256.733
  22523157.102    -5997760.26549  -4655348.18046  22523156.254    22523160.798
  23284665.050    -5109019.58849  -3797073.02246  23284664.432    23284668.538
  23039736.282    -4820146.85049  -3746366.50645  23039735.942    23039740.944
 04  1 10  1 36 30.0000000  0  8G18G21G30G10G 6G17G29G26
  22752392.542    -8772490.68149  -5130557.05946  22752391.617    22752394.600
  21389953.834   -14610840.83349 -11362326.36847  21389953.004    21389956.743
  22183202.993    -7089068.19749  -5268455.60147  22183202.998    22183207.673
  22813314.253    -7921991.43049  -6147788.56746  22813313.002    22813318.256
  20326190.542   -18327046.23749 -14271570.30348  20326190.031    20326194.463
  22535207.030    -5934436.44449  -4606004.92946  22535206.192    22535211.003
  23277078.398    -5148887.31149  -3828138.74646  23277077.834    23277082.022
  23025334.438    -4895828.94849  -3805339.53045  23025333.993    23025339.111
 04  1 10  1 37  0.0000000  0  8G18G21G30G10G 6G17G29G26
  22733926.079    -8869532.58749  -5206174.07946  22733925.112    22733928.116
  21381958.046   -14652858.67849 -11395067.54047  21381957.219    21381960.959
  22201065.998    -6995197.18549  -5195309.37847  22201066.082    22201070.743
  22831042.176    -7828829.41449  -6075194.77946  22831040.989    22831046.400
  20324201.116   -18337500.70549 -14279716.63048  20324200.579    20324205.078
  22547272.779    -5871029.73249  -4556597.08946  22547271.929    22547276.961
  23269570.573    -5188340.57849  -3858881.50646  23269570.142    23269574.377
  23010991.589    -4971200.81449  -3864070.75945  23010991.143    23010996.087
 04  1 10  1 37 30.0000000  0  8G18G21G30G10G 6G17G29G26
  22715508.803    -8966316.32249  -5281589.93346  22715507.761    22715510.852
  21374003.020   -14694662.14649 -11427641.66947  21374002.226    21374005.953
  22218977.428    -6901072.68349  -5121965.62147  22218977.442    22218982.052
  22848824.558    -7735382.51149  -6002378.99946  22848823.329    22848828.744
  20322286.573   -18347561.49049 -14287556.19248  20322286.074    20322290.611
  22559356.063    -5807531.34749  -4507117.82246  22559355.144    22559360.328
  23262143.994    -5227367.65549  -3889292.17546  23262143.553    23262147.942
  22996710.122    -5046249.56249  -3922550.22945  22996709.929    22996714.128
 04  1 10  1 38  0.0000000  0  8G18G21G30G10G 6G17G29G26
  22697140.082    -9062843.94349  -5356806.22146  22697139.107    22697142.318
  21366088.112   -14736255.27049 -11460051.88247  21366087.316    21366090.984
  22236935.688    -6806701.66349  -5048429.77847  22236935.680    22236940.242
  22866659.706    -7641657.48349  -5929346.50746  22866658.482    22866664.040
  20320446.475   -18357231.26449 -14295091.06848  20320445.938    20320450.532
  22571455.867    -5743945.83449  -4457570.66446  22571454.987    22571460.281
  23254798.141    -5265970.33449  -3919372.14746  23254797.669    23254802.227
  22982490.304    -5120975.66649  -3980778.27345  22982490.063    22982493.308
 04  1 10  1 38 30.0000000  0  8G18G21G30G10G 6G17G29G26
  22678820.045    -9159114.84349  -5431822.45546  22678819.180    22678822.653
  21358212.796   -14777640.20349 -11492299.87047  21358212.018    21358215.675
  22254939.926    -6712089.03049  -4974705.65747  22254939.916    22254944.431
  22884546.863    -7547659.28149  -5856101.13846  22884545.639    22884551.354
  20318680.573   -18366510.71849 -14302321.80048  20318680.080    20318684.756
  22583571.766    -5680276.00049  -4407957.79446  22583570.939    22583576.338
  23247533.021    -5304148.60349  -3949121.39846  23247532.528    23247537.093
                  -5195377.71049  -4038753.82045                  22968334.722
 04  1 10  1 39  0.0000000  0  8G18G21G30G10G 6G17G29G26
  22660549.707    -9255125.06749  -5506635.58046  22660548.899    22660552.577
  21350377.592   -14818814.61549 -11524383.82347  21350376.832    21350380.447
  22272990.025    -6617235.18749  -4900793.59147  22272989.990    22272994.504
  22902485.973    -7453388.32449  -5782643.25446  22902484.770    22902490.569
  20316989.773   -18375396.11649 -14309245.48348  20316989.251    20316994.005
  22595704.174    -5616519.85149  -4358277.67946  22595703.330    22595708.775
  23240349.669    -5341897.45449  -3978536.05846  23240349.201    23240353.698
  22954236.633    -5269449.75549  -4096472.25945  22954236.413    22954239.405
 04  1 10  1 39 30.0000000  0  8G18G21G30G10G 6G17G29G26
  22642329.259    -9350873.20849  -5581244.47546  22642328.442    22642332.349
  21342582.246   -14859779.44349 -11556304.45747  21342581.488    21342585.072
  22291085.256    -6522143.71049  -4826696.35047  22291085.283    22291089.818
  22920476.487    -7358847.71549  -5708975.22846  22920475.205    22920481.066
  20315374.001   -18383886.67649 -14315861.49048  20315373.510    20315378.295
  22607852.756    -5552678.65649  -4308531.27046  22607851.890    22607857.382
  23233248.310    -5379215.61649  -4007615.10346  23233247.757    23233252.101
  22940204.548    -5343188.82649  -4153931.21145  22940204.338    22940207.527
 04  1 10  1 40  0.0000000  0  8G18G21G30G10G 6G17G29G26
  22624159.490    -9446355.04949  -5655645.87846  22624158.721    22624162.716
  21334827.199   -14900532.74849 -11588060.26047  21334826.397    21334829.966
  22309225.447    -6426815.99149  -4752415.02247  22309225.505    22309230.045
  22938518.015    -7264038.56749  -5635097.97546  22938516.715    22938522.684
  20313833.965   -18391979.49749 -14322167.56848  20313833.446    20313838.275
  22620017.677    -5488751.30649  -4258717.74846  22620016.818    22620022.281
  23226229.494    -5416099.15849  -4036355.48446  23226229.046    23226233.298
  22926236.672    -5416589.81849  -4211126.72445  22926236.477    22926240.124
 04  1 10  1 40 30.0000000  0  8G18G21G30G10G 6G17G29G26
  22606039.888    -9541573.95049  -5729842.39046  22606039.125    22606043.187
  21327111.234   -14941080.35649 -11619655.78547  21327110.469    21327113.966
  22327409.100    -6331260.05249  -4677955.85547  22327409.186    22327413.769
  22956609.242    -7168968.99149  -5561017.76846  22956607.921    22956613.865
  20312368.853   -18399678.44649 -14328166.73248  20312368.360    20312373.237
  22632197.873    -5424743.38149  -4208841.43146  22632197.026    22632202.512
  23219292.893    -5452551.05849  -4064759.52646  23219292.518    23219296.565
  22912332.777    -5489654.38849  -4268060.09245  22912332.552    22912336.486
 04  1 10  1 41  0.0000000  0  8G18G21G30G10G 6G17G29G26
  22587971.834    -9636522.29549  -5803828.08146  22587971.043    22587975.136
  21319435.433   -14981417.12149 -11651087.01547  21319434.633    21319438.136
  22345636.748    -6235473.63349  -4603317.10047  22345636.698    22345641.303
  22974750.332    -7073636.48449  -5486732.69246  22974749.062    22974755.010
  20310979.932   -18406976.98649 -14333853.88948  20310979.452    20310984.333
  22644394.237    -5360650.31149  -4158898.76246  22644393.413    22644398.970
  23212439.896    -5488563.92049  -4092821.45646  23212439.543    23212443.538
  22898494.705    -5562373.85549  -4324724.57545  22898494.432    22898498.487
 04  1 10  1 41 30.0000000  0  8G18G21G30G10G 6G17G29G26
  22569955.286    -9731200.23849  -5877603.08146  22569954.436    22569958.457
  21311799.339   -15021545.07449 -11682355.53547  21311798.569    21311802.003
  22363907.093    -6139461.79349  -4528502.69347  22363907.049    22363911.712
  22992940.529    -6978045.94849  -5412246.55746  22992939.289    22992945.302
  20309667.085   -18413875.95849 -14339229.69648  20309666.630    20309671.542
  22656606.346    -5296474.71049  -4108891.79546  22656605.539    22656611.102
  23205670.506    -5524137.79949  -4120541.33346  23205670.178    23205674.070
  22884722.534    -5634746.90949  -4381119.09845  22884722.327    22884726.259
 04  1 10  1 42  0.0000000  0  8G18G21G30G10G 6G17G29G26
  22551990.507    -9825606.54549  -5951166.42546  22551989.593    22551993.521
  21304202.774   -15061465.36749 -11713462.24147  21304202.008    21304205.305
  22382219.646    -6043228.17549  -4453515.47346  22382219.612    22382224.345
  23011179.122    -6882200.99249  -5337562.16646  23011177.973    23011184.001
  20308430.370   -18420374.82249 -14344293.73248  20308429.897    20308434.838
  22668834.009    -5232217.80649  -4058821.47446  22668833.174    22668838.819
  23198984.997    -5559271.22149  -4147918.02146  23198984.567    23198988.439
  22871016.774    -5706770.69949  -4437241.45146  22871016.635    22871020.634
 04  1 10  1 42 30.0000000  0  9G18G16G21G30G10G 6G17G29G26
  22534078.155    -9919737.70949  -6024515.34846  22534077.023    22534080.968
                  -1609992.81749  -1245781.60243                  24068437.661
  21296646.020   -15101176.59049 -11744406.03547  21296645.229    21296648.409
  22400574.135    -5946774.15249  -4378356.51946  22400574.165    22400578.911
  23029466.237    -6786102.69249  -5262680.36746  23029464.963    23029470.998
  20307270.289   -18426470.79649 -14349043.83848  20307269.830    20307274.836
  22681077.301    -5167878.62949  -4008687.03246  22681076.448    22681082.194
  23192383.816    -5593960.54749  -4174948.62946  23192383.437    23192387.204
  22857378.389    -5778440.35949  -4493087.88446  22857378.227    22857382.252
 04  1 10  1 43  0.0000000  0  9G18G16G21G30G10G 6G17G29G26
  22516217.901   -10013593.34249  -6097649.58946  22516216.827    22516220.858
  24054586.611    -1682745.70949  -1302472.15845  24054587.426    24054592.492
  21289128.638   -15140680.65749 -11775188.40547  21289127.844    21289130.998
  22418969.763    -5850104.62149  -4303029.62746  22418969.770    22418974.474
  23047800.439    -6689755.83149  -5187604.88746  23047799.061    23047805.171
  20306186.776   -18432164.32849 -14353480.35148  20306186.320    20306191.413
  22693335.634    -5103459.56449  -3958490.35046  22693334.871    22693340.725
  23185867.221    -5628205.70549  -4201633.15046  23185866.859    23185870.516
  22843807.750    -5849754.27149  -4548657.12646  22843807.581    22843811.521
 04  1 10  1 43 30.0000000  0  9G18G16G21G30G10G 6G17G29G26
  22498410.321   -10107171.40849  -6170567.53846  22498409.435    22498413.515
  24040818.542    -1755096.83149  -1358849.62945  24040819.217    24040825.131
  21281650.583   -15179978.25949 -11805809.87947  21281649.780    21281652.838
  22437405.821    -5753222.74349  -4227537.26346  22437405.767    22437410.478
  23066181.391    -6593163.30549  -5112337.97746  23066180.005    23066186.108
  20305180.044   -18437454.57049 -14357602.60348  20305179.577    20305184.708
  22705609.174    -5038961.45349  -3908232.07046  22705608.454    22705614.242
  23179435.461    -5662004.72649  -4227970.01446  23179435.111    23179438.659
  22830305.555    -5920709.27449  -4603946.65846  22830305.328    22830309.195
 04  1 10  1 44  0.0000000  0  9G18G16G21G30G10G 6G17G29G26
  22480656.997   -10200464.96849  -6243263.79246  22480656.146    22480660.313
  24027129.386    -1827038.80549  -1414908.31045  24027129.595    24027134.113
  21274212.892   -15219063.95549 -11836266.24347  21274212.039    21274215.109
  22455882.571    -5656126.34449  -4151877.74246  22455882.606    22455887.309
  23084609.522    -6496322.89249  -5036877.90546  23084608.228    23084614.231
  20304251.295   -18442335.11849 -14361405.61648  20304250.830    20304255.976
  22717898.740    -4974379.63949  -3857908.58446  22717897.986    22717903.642
  23173089.887    -5695350.43449  -4253953.67946  23173089.524    23173093.081
  22816873.238    -5991296.65649  -4658949.76846  22816873.007    22816877.023
 04  1 10  1 44 30.0000000  0  9G18G16G21G30G10G 6G17G29G26
  22462956.197   -10293482.67249  -6315745.08946  22462955.340    22462959.596
  24013515.540    -1898579.90749  -1470654.59145  24013515.128    24013519.107
  21266813.472   -15257948.74149 -11866566.05647  21266812.602    21266815.613
  22474397.649    -5558828.83249  -4076061.51546  22474397.689    22474402.428
  23103082.421    -6399247.80149  -4961234.96946  23103081.080    23103087.025
  20303398.679   -18446815.40049 -14364896.73648  20303398.200    20303403.359
  22730202.146    -4909725.11549  -3807528.43946  22730201.369    22730206.955
  23166828.869    -5728251.41249  -4279590.79846  23166828.468    23166832.178
  22803509.494    -6061523.65349  -4713672.05546  22803509.249    22803513.374
 04  1 10  1 45  0.0000000  0  9G18G16G21G30G10G 6G17G29G26
  22445310.526   -10386210.42149  -6388000.45546  22445309.686    22445314.048
  23999981.441    -1969706.23249  -1526077.70945  23999981.118    23999984.080
  21259454.393   -15296620.97949 -11896700.23747  21259453.536    21259456.508
  22492952.503    -5461321.51549  -4000081.80646  22492952.633    22492957.498
  23121601.486    -6301929.27549  -4885402.33746  23121600.219    23121606.190
  20302624.724   -18450882.34049 -14368065.76048  20302624.266    20302629.394
  22742521.491    -4844986.52249  -3757082.77746  22742520.691    22742526.358
  23160655.183    -5760693.92649  -4304870.65646  23160654.792    23160658.611
  22790217.050    -6131375.01149  -4768101.64646  22790216.791    22790221.140
 04  1 10  1 45 30.0000000  0  9G18G16G21G30G10G 6G17G29G26
  22427718.759   -10478654.60149  -6460034.86146  22427718.004    22427722.460
  23986524.939    -2040423.68149  -1581182.24145  23986524.484    23986527.175
  21252134.265   -15335088.86249 -11926675.18847  21252133.354    21252136.326
  22511545.345    -5363615.60849  -3923947.35346  22511545.392    22511550.426
  23140165.001    -6204378.19949  -4809388.50146  23140163.638    23140169.621
  20301928.099   -18454543.07949 -14370918.28348  20301927.658    20301932.710
  22754855.041    -4780172.95649  -3706578.69746  22754854.272    22754859.901
  23154567.647    -5792684.25049  -4329798.16246  23154567.246    23154571.116
  22776995.186    -6200855.79649  -4822242.48246  22776994.995    22776999.312
 04  1 10  1 46  0.0000000  0  9G18G16G21G30G10G 6G17G29G26
  22410182.701   -10570806.30849  -6531841.36746  22410181.984    22410186.605
  23973147.175    -2110723.53049  -1635961.30945  23973146.647    23973149.871
  21244854.205   -15373345.96549 -11956485.88747  21244853.284    21244856.239
  22530176.502    -5265707.42749  -3847655.28546  22530176.644    22530181.817
  23158773.436    -6106590.69849  -4733190.45446  23158772.115    23158777.976
  20301310.344   -18457789.69249 -14373448.10148  20301309.896    20301314.882
  22767204.099    -4715278.08449  -3656011.27646  22767203.343    22767208.956
  23148567.930    -5824213.93049  -4354366.71246  23148567.450    23148571.251
  22763845.895    -6269955.76449  -4876086.57846  22763845.728    22763849.985
 04  1 10  1 46 30.0000000  0  9G18G16G21G30G10G 6G17G29G26
  22392701.649   -10662668.26949  -6603422.09246  22392701.136    22392705.883
  23959848.263    -2180607.80549  -1690416.54345  23959847.484    23959851.979
  21237613.233   -15411397.04749 -11986136.05347  21237612.337    21237615.379
  22548844.960    -5167604.16349  -3771211.20846  22548844.980    22548850.373
  23177425.420    -6008573.94849  -4656813.76046  23177424.133    23177429.930
  20300770.813   -18460625.18249 -14375657.55648  20300770.339    20300775.233
  22779567.893    -4650306.57449  -3605384.12946  22779567.054    22779572.542
  23142655.219    -5855285.02649  -4378577.93646  23142654.784    23142658.659
  22750769.048    -6338675.93449  -4929634.70246  22750768.830    22750773.003
 04  1 10  1 47  0.0000000  0  9G18G16G21G30G10G 6G17G29G26
  22375276.956   -10754235.25549  -6674772.95546  22375276.508    22375281.329
  23946629.072    -2250071.50249  -1744544.06845  23946628.117    23946633.841
  21230412.094   -15449239.29749 -12015623.49047  21230411.202    21230414.176
  22567550.214    -5069305.88949  -3694615.17646  22567550.361    22567556.023
  23196121.170    -5910327.69749  -4580258.22946  23196119.790    23196125.564
  20300310.244   -18463045.60649 -14377543.58348  20300309.768    20300314.639
  22791946.723    -4585256.10549  -3554695.46046  22791945.804    22791951.184
  23136830.693    -5885892.80849  -4402428.14046  23136830.296    23136834.222
  22737765.558    -6407010.09449  -4982882.07046  22737765.333    22737769.543
 04  1 10  1 47 30.0000000  0  9G18G16G21G30G10G 6G17G29G26
  22357908.468   -10845507.35149  -6745894.04646  22357907.992    22357912.864
  23933490.111    -2319114.24849  -1798343.55845  23933489.181    23933495.124
  21223250.301   -15486874.69349 -12044949.74447  21223249.380    21223252.344
  22586291.925    -4970817.67249  -3617871.12746  22586291.946    22586297.796
  23214859.615    -5811856.64549  -4503527.53346  23214858.258    23214863.951
  20299928.486   -18465051.79849 -14379106.83548  20299928.022    20299932.817
  22804340.104    -4520128.99349  -3503947.05446  22804339.234    22804344.381
  23131094.278    -5916037.41649  -4425917.42446  23131093.957    23131097.938
  22724835.678    -6474956.82149  -5035827.54446  22724835.414    22724839.917
 04  1 10  1 48  0.0000000  0  9G18G16G21G30G10G 6G17G29G26
  22340596.382   -10936483.11649  -6816784.22146  22340595.897    22340600.777
  23920432.215    -2387734.65449  -1851814.02745  23920431.339    23920436.438
  21216127.710   -15524303.83949 -12074115.28547  21216126.831    21216129.787
  22605069.167    -4872142.75549  -3540981.59746  22605069.087    22605075.090
  23233640.211    -5713163.92849  -4426624.12046  23233638.837    23233644.540
  20299625.764   -18466643.04049 -14380346.75648  20299625.282    20299630.028
  22816747.993    -4454926.39349  -3453139.83946  22816747.054    22816751.975
  23125446.330    -5945717.42049  -4449044.69546  23125445.917    23125449.958
  22711979.994    -6542513.23649  -5088468.88846  22711979.664    22711984.593
 04  1 10  1 48 30.0000000  0  9G18G16G21G30G10G 6G17G29G26
  22323341.013   -11027161.30649  -6887442.52347  22323340.473    22323345.290
  23907454.871    -2455931.23049  -1904954.21745  23907454.114    23907458.601
  21209044.163   -15561527.96449 -12103121.06848  21209043.285    21209046.245
  22623881.287    -4773285.16349  -3463949.72246  22623881.053    22623887.105
  23252462.192    -5614253.26349  -4349550.88646  23252460.886    23252466.667
  20299401.969   -18467819.17849 -14381263.22348  20299401.477    20299406.164
  22829169.908    -4389649.45049  -3402274.68446  22829169.004    22829173.861
  23119887.061    -5974931.72749  -4471809.07146  23119886.606    23119890.627
  22699199.060    -6609676.91249  -5140804.21246  22699198.732    22699203.792
 04  1 10  1 49  0.0000000  0  9G18G16G21G30G10G 6G17G29G26
  22306143.253   -11117536.39449  -6957864.64347  22306142.749    22306147.492
  23894559.089    -2523698.32949  -1957759.75945  23894558.690    23894562.497
  21202000.338   -15598543.71249 -12131964.48548  21201999.471    21202002.428
  22642728.191    -4674244.10949  -3386774.88646  22642727.936    22642734.003
  23271325.899    -5515123.68949  -4272307.06946  23271324.627    23271330.368
  20299258.086   -18468575.35749 -14381852.44548  20299257.626    20299262.243
  22841606.566    -4324295.10849  -3351349.22746  22841605.645    22841610.482
  23114417.255    -6003675.07349  -4494206.46646  23114416.763    23114420.883
  22686494.227    -6676440.88249  -5192828.06746  22686493.937    22686499.070
 04  1 10  1 49 30.0000000  0  9G18G16G21G30G10G 6G17G29G26
  22289002.606   -11207611.50249  -7028053.01947  22289002.075    22289006.771
  23881745.036    -2591038.53349  -2010232.66445  23881744.404    23881747.569
  21194995.264   -15635356.03549 -12160649.38848  21194994.331    21194997.303
  22661608.533    -4575027.38349  -3309463.18346  22661608.315    22661614.257
  23290229.901    -5415782.89349  -4194898.65646  23290228.571    23290234.241
  20299193.481   -18468915.23849 -14382117.27948  20299192.991    20299197.558
  22854056.858    -4258868.54449  -3300367.50646  22854055.907    22854060.760
  23109036.712    -6031950.29849  -4516239.08846  23109036.128    23109040.163
  22673865.239    -6742806.64849  -5244541.63246  22673864.811    22673870.072
 04  1 10  1 50  0.0000000  0  9G18G16G21G30G10G 6G17G29G26
  22271919.702   -11297382.51849  -7098004.43847  22271919.281    22271923.932
  23869011.687    -2657948.28949  -2062370.09345  23869011.108    23869015.163
  21188029.153   -15671962.98649 -12189174.25648  21188028.224    21188031.222
  22680522.143    -4475636.30649  -3232015.60146  22680521.891    22680527.748
  23309173.684    -5316232.11449  -4117326.61846  23309172.416    23309177.980
  20299208.549   -18468836.23249 -14382055.70048  20299208.071    20299212.569
  22866520.975    -4193368.81949  -3249328.75546  22866520.028    22866524.839
  23103745.607    -6059753.91649  -4537904.21646  23103745.150    23103749.252
  22661312.674    -6808769.11349  -5295940.94246  22661312.331    22661317.753
 04  1 10  1 50 30.0000000  0  9G18G16G21G30G10G 6G17G29G26
  22254895.444   -11386846.58649  -7167716.67447  22254894.887    22254899.517
  23856361.258    -2724424.24349  -2114169.55545  23856360.527    23856364.791
  21181102.221   -15708363.96249 -12217538.62548  21181101.329    21181104.345
  22699469.044    -4376072.68649  -3154433.57746  22699468.306    22699474.023
  23328157.191    -5216472.79249  -4039592.08846  23328155.993    23328161.477
  20299303.769   -18468336.02849 -14381665.91248  20299303.285    20299307.748
  22878999.195    -4127794.91849  -3198232.21046  22878998.240    22879003.187
  23098545.042    -6087083.23749  -4559199.75146  23098544.510    23098548.714
  22648837.554    -6874323.99049  -5347022.67646  22648837.436    22648843.002
 04  1 10  1 51  0.0000000  0  9G18G16G21G30G10G 6G17G29G26
  22237930.122   -11476000.55249  -7237187.27247  22237929.512    22237934.133
  23843793.790    -2790463.22449  -2165628.44745  23843793.256    23843798.193
  21174214.778   -15744557.76249 -12245741.56348  21174213.867    21174216.901
  22718447.806    -4276338.47549  -3076718.61945  22718447.187    22718452.757
  23347180.258    -5116506.49749  -3961696.27046  23347179.004    23347184.327
  20299479.581   -18467412.30049 -14380946.11648  20299479.093    20299483.504
  22891491.581    -4062146.28649  -3147077.44246  22891490.691    22891495.764
  23093435.275    -6113935.00949  -4580123.20046  23093434.738    23093438.989
  22636441.369    -6939466.77449  -5397783.27846  22636441.088    22636446.740
 04  1 10  1 51 30.0000000  0  9G18G16G21G30G10G 6G17G29G26
  22221023.483   -11564846.01949  -7306417.47347  22221022.816    22221027.447
  23831310.450    -2856066.32149  -2216747.74945  23831309.836    23831314.880
  21167366.015   -15780548.06449 -12273785.91948  21167365.138    21167368.070
  22737457.780    -4176439.62049  -2998875.37545  22737457.256    22737462.795
  23366241.671    -5016338.95149  -3883643.63746  23366240.418    23366245.424
  20299735.632   -18466067.08349 -14379897.88548  20299735.126    20299739.484
  22903997.781    -3996426.43449  -3095867.16346  22903996.892    22904001.794
  23088416.107    -6140310.85649  -4600675.78046  23088415.513    23088419.932
  22624123.479    -7004197.40849  -5448222.70446  22624123.186    22624129.003
 04  1 10  1 52  0.0000000  0  9G18G16G21G30G10G 6G17G29G26
  22204176.533   -11653377.39649  -7375402.93847  22204175.839    22204180.487
  23818910.881    -2921227.95249  -2267523.03445  23818910.260    23818915.104
  21160556.664   -15816331.27349 -12301668.91748  21160555.782    21160558.751
  22756499.319    -4076375.73049  -2920903.50645  22756498.834    22756504.120
  23385341.484    -4915969.72149  -3805433.83746  23385340.285    23385344.957
  20300072.670   -18464295.89849 -14378517.73948  20300072.172    20300076.432
  22916518.102    -3930632.26649  -3044598.98046  22916517.185    22916521.937
  23083488.307    -6166205.56549  -4620853.46546  23083487.784    23083492.311
  22611885.315    -7068509.28449  -5498335.83046  22611884.799    22611890.891
 04  1 10  1 52 30.0000000  0  9G18G16G21G30G10G 6G17G29G26
  22187388.602   -11741598.52049  -7444146.65947  22187387.921    22187392.546
  23806594.540    -2985952.08849  -2317957.44045  23806593.977    23806598.264
  21153785.491   -15851913.48249 -12329395.28947  21153784.650    21153787.679
  22775570.528    -3976155.54449  -2842809.85445  22775570.041    22775575.353
  23404478.113    -4815407.13349  -3727073.38246  23404476.848    23404481.355
  20300489.846   -18462103.68049 -14376809.51248  20300489.344    20300493.579
  22929051.330    -3864770.25649  -2993277.94446  22929050.448    22929055.138
  23078651.336    -6191623.19749  -4640659.40546  23078650.843    23078655.559
  22599725.956    -7132404.87049  -5548124.60046  22599725.536    22599732.004
 04  1 10  1 53  0.0000000  0  9G18G16G21G30G10G 6G17G29G26
  22170660.953   -11829502.92049  -7512643.56547  22170660.271    22170664.861
  23794362.421    -3050231.76249  -2368045.49745  23794361.887    23794366.162
  21147053.583   -15887289.59549 -12356961.06547  21147052.750    21147055.785
  22794672.215    -3875777.14849  -2764592.94445  22794671.347    22794676.542
  23423651.682    -4714648.81449  -3648560.40746  23423650.594    23423654.975
  20300988.288   -18459484.36049 -14374768.47648  20300987.799    20300991.969
  22941598.379    -3798835.79849  -2941900.44546  22941597.482    22941602.049
  23073906.361    -6216557.24249  -4660088.52146  23073905.927    23073910.804
  22587647.770    -7195876.00049  -5597582.60146  22587647.197    22587653.859
 04  1 10  1 53 30.0000000  0  9G18G16G21G30G10G 6G17G29G26
  22153994.221   -11917087.47749  -7580891.23947  22153993.529    22153998.083
  23782214.970    -3114064.00349  -2417784.85845  23782214.637    23782219.350
  21140360.920   -15922459.39349 -12384366.07247  21140360.113    21140363.199
  22813803.377    -3775242.74349  -2686254.44245  22813802.473    22813807.519
  23442862.228    -4613696.74749  -3569896.46446  23442861.144    23442865.463
  20301568.359   -18456436.06249 -14372393.16048  20301567.867    20301571.999
  22954159.171    -3732828.34349  -2890466.06146  22954158.297    22954162.810
  23069253.927    -6241005.16449  -4679138.83546  23069253.549    23069258.517
  22575651.130    -7258918.66449  -5646706.73346  22575650.562    22575657.277
 04  1 10  1 54  0.0000000  0  9G18G16G21G30G10G 6G17G29G26
  22137388.125   -12004353.69249  -7648890.85647  22137387.355    22137391.856
  23770152.582    -3177450.09649  -2467176.61545  23770151.987    23770157.396
  21133706.994   -15957426.30049 -12411612.98648  21133706.170    21133709.234
  22832962.826    -3674558.51249  -2607799.19345  22832962.010    22832967.024
  23462108.557    -4512557.05049  -3491086.29646  23462107.401    23462111.567
  20302229.672   -18452961.11449 -14369685.39448  20302229.179    20302233.272
  22966733.210    -3666751.68849  -2838977.77046  22966732.302    22966736.669
  23064693.777    -6264968.53049  -4697811.56946  23064693.435    23064698.543
  22563736.193    -7321532.80449  -5695496.92946  22563735.641    22563742.270
 04  1 10  1 54 30.0000000  0  9G18G16G21G30G10G 6G17G29G26
  22120842.794   -12091299.87649  -7716641.10547  22120842.119    22120846.597
  23758175.784    -3240388.26849  -2516219.29245  23758175.027    23758180.517
  21127091.637   -15992190.47249 -12438701.91948  21127090.759    21127093.821
  22852150.045    -3573727.44549  -2529229.50745  22852149.446    22852154.615
  23481390.040    -4411232.66949  -3412132.23246  23481388.823    23481392.829
  20302972.320   -18449058.53449 -14366644.41048  20302971.805    20302975.876
  22979320.297    -3600606.12349  -2787435.77746  22979319.458    22979323.647
  23060226.157    -6288445.95049  -4716105.63946  23060225.798    23060230.944
  22551903.243    -7383715.47149  -5743950.90646  22551902.613    22551909.254
 04  1 10  1 55  0.0000000  0  9G18G16G21G30G10G 6G17G29G26
  22104359.897   -12177918.84749  -7784136.38447  22104359.120    22104363.560
  23746286.483    -3302871.15449  -2564907.25345  23746285.608    23746290.513
  21120515.849   -16026746.39949 -12465628.58548  21120514.992    21120518.062
  22871365.699    -3472746.91249  -2450543.40445  22871365.284    22871370.565
  23500707.198    -4309720.33349  -3333031.71046  23500705.930    23500709.717
  20303797.577   -18444721.87149 -14363265.19248  20303797.064    20303801.120
  22991921.398    -3534386.81949  -2735836.31746  22991920.465    22991924.748
  23055852.269    -6311430.25849  -4734015.47246  23055851.926    23055857.260
  22540153.954    -7445457.86749  -5792061.84646  22540153.357    22540159.919
 04  1 10  1 55 30.0000000  0  9G18G16G21G30G10G 6G17G29G26
  22087938.176   -12264215.64949  -7851380.62947  22087937.449    22087941.832
  23734482.465    -3364903.55349  -2613244.19745  23734481.560    23734485.952
  21113978.424   -16061101.33449 -12492398.63948  21113977.518    21113980.568
  22890608.144    -3371627.06249  -2371748.72545  22890607.622    22890613.073
  23520058.194    -4208029.98749  -3253792.48946  23520056.983    23520060.553
  20304704.276   -18439957.15249 -14359552.42348  20304703.766    20304707.781
  23004534.994    -3468101.01449  -2684185.05146  23004534.152    23004538.404
  23051571.176    -6333926.82949  -4751545.26846  23051570.900    23051576.368
  22528487.715    -7506763.97849  -5839832.80746  22528487.193    22528493.574
 04  1 10  1 56  0.0000000  0  9G18G16G21G30G10G 6G17G29G26
  22071578.226   -12350187.89349  -7918371.95047  22071577.495    22071581.872
  23722764.734    -3426483.15849  -2661228.28045  23722763.851    23722767.933
  21107479.099   -16095255.03349 -12519011.88948  21107478.217    21107481.315
  22909876.672    -3270370.24349  -2292847.33645  22909876.053    22909881.533
  23539442.767    -4106163.74149  -3174416.18546  23539441.524    23539445.030
  20305692.722   -18434762.87349 -14355504.92348  20305692.182    20305696.215
  23017161.359    -3401748.60549  -2632481.88546  23017160.471    23017164.857
  23047383.368    -6355933.79049  -4768693.52746  23047382.999    23047388.593
  22516905.177    -7567630.15049  -5887260.95246  22516904.672    22516911.047
 04  1 10  1 56 30.0000000  0  9G18G16G21G30G10G 6G17G29G26
  22055281.313   -12435829.00749  -7985105.24547  22055280.527    22055284.885
  23711134.062    -3487603.47449  -2708854.49345  23711133.125    23711137.219
  21101019.032   -16129203.04549 -12545464.86148  21101018.169    21101021.223
  22929171.354    -3168974.79149  -2213837.90945  22929170.895    22929176.479
  23558861.171    -4004119.49549  -3094901.20046  23558859.901    23558863.488
  20306763.966   -18429133.40949 -14351118.32448  20306763.440    20306767.455
  23029801.296    -3335325.18349  -2580723.36446  23029800.371    23029804.893
  23043290.061    -6377444.68649  -4785455.25446  23043289.702    23043295.234
  22505407.815    -7628048.60349  -5934340.24546  22505407.311    22505413.795
 04  1 10  1 57  0.0000000  0  9G18G16G21G30G10G 6G17G29G26
  22039047.284   -12521138.94249  -8051580.48247  22039046.536    22039050.867
  23699590.379    -3548264.27349  -2756122.59245  23699589.665    23699594.232
  21094597.819   -16162946.70549 -12571758.59648  21094596.934    21094600.001
  22948491.782    -3067445.23049  -2134723.96445  22948491.410    22948497.050
  23578312.579    -3901901.64949  -3015250.93246  23578311.324    23578314.964
  20307917.856   -18423069.50549 -14346393.19948  20307917.312    20307921.385
  23042454.159    -3268833.02949  -2528911.29446  23042453.292    23042457.990
  23039291.031    -6398459.68949  -4801830.57446  23039290.621    23039296.186
  22493995.859    -7688017.67649  -5981069.37146  22493995.421    22494001.991
 04  1 10  1 57 30.0000000  0  9G18G16G21G30G10G 6G17G29G26
  22022876.383   -12606117.42749  -8117797.44647  22022875.631    22022879.966
  23688134.560    -3608465.22349  -2803032.41245  23688133.547    23688138.635
  21088215.085   -16196488.12849 -12597894.75248  21088214.223    21088217.263
  22967837.030    -2965786.24149  -2055509.17445  22967836.747    22967842.154
  23597796.015    -3799514.65049  -2935468.84945  23597794.808    23597798.528
  20309154.221   -18416572.08549 -14341330.26948  20309153.715    20309157.779
  23055120.008    -3202273.98649  -2477047.10746  23055119.172    23055123.832
  23035386.311    -6418979.15549  -4817819.75346  23035385.865    23035391.534
  22482669.874    -7747536.02049  -6027447.27446  22482669.482    22482675.930
 04  1 10  1 58  0.0000000  0  9G18G16G21G30G10G 6G17G29G26
  22006769.338   -12690759.92749  -8183752.59347  22006768.601    22006772.937
  23676766.991    -3668201.24249  -2849579.93145  23676766.157    23676771.114
  21081871.408   -16229824.68049 -12623871.25948  21081870.505    21081873.519
  22987207.048    -2863997.71449  -1976193.46545  22987206.608    22987211.938
  23617311.632    -3696957.91249  -2855554.50945  23617310.486    23617314.380
  20310473.860   -18409637.27049 -14335926.51748  20310473.322    20310477.453
  23067799.018    -3135645.42649  -2425128.73846  23067798.165    23067802.778
  23031576.591    -6438998.42649  -4833419.18046  23031576.212    23031582.036
  22471430.885    -7806597.50349  -6073469.16246  22471430.652    22471436.638
 04  1 10  1 58 30.0000000  0  9G18G16G21G30G10G 6G17G29G26
  21990725.526   -12775070.03549  -8249448.74947  21990724.838    21990729.175
  23665487.351    -3727475.79549  -2895767.88245  23665486.434    23665491.226
  21075565.625   -16262961.69249 -12649692.29047  21075564.710    21075567.748
  23006599.929    -2762087.90149  -1896783.24045  23006599.532    23006604.829
  23636858.060    -3594239.36549  -2775514.09045  23636856.924    23636860.995
  20311875.900   -18402269.22149 -14330185.19548  20311875.381    20311879.537
  23080490.300    -3068952.79249  -2373160.46746  23080489.430    23080493.967
  23027861.261    -6458521.23549  -4848631.75546  23027860.994    23027866.995
  22460278.565    -7865204.29949  -6119136.74346  22460278.183    22460283.901
 04  1 10  1 59  0.0000000  0  9G18G16G21G30G10G 6G17G29G26
  21974746.296   -12859040.80149  -8314880.47847  21974745.640    21974749.975
  23654296.890    -3786282.26849  -2941591.10845  23654295.952    23654300.339
  21069298.750   -16295893.79849 -12675353.65647  21069297.869    21069300.950
  23026016.710    -2660054.56049  -1817276.78845  23026016.000    23026021.231
  23656435.798    -3491356.75349  -2695345.82745  23656434.712    23656439.022
  20313361.520   -18394461.94449 -14324101.60948  20313361.013    20313365.228
  23093194.624    -3002191.53049  -2321138.71446  23093193.725    23093198.169
  23024241.852    -6477541.29649  -4863452.56346  23024241.510    23024247.635
  22449213.953    -7923348.31849  -6164443.74646  22449213.663    22449219.307
 04  1 10  1 59 30.0000000  0 10G18G16G21G30G10G 6G17G15G29G26
  21958831.748   -12942671.90049  -8380047.51047  21958831.088    21958835.439
  23643195.776    -3844620.27749  -2987049.27545  23643194.598    23643198.664
  21063070.610   -16328622.44749 -12700856.47847  21063069.740    21063072.878
  23045455.609    -2557902.21049  -1737677.56945  23045455.153    23045460.095
  23676043.947    -3388314.31349  -2615053.02445  23676042.907    23676047.438
  20314930.621   -18386216.07349 -14317676.25148  20314930.127    20314934.382
  23105911.560    -2935363.30149  -2269064.74546  23105910.651    23105915.242
                  -1179728.44749   -904107.39743
  23020718.071    -6496058.55849  -4877881.59346  23020717.689    23020723.990
  22438237.749    -7981027.94049  -6209388.88746  22438237.551    22438243.223
 04  1 10  2  0  0.0000000  0 10G18G16G21G30G10G 6G17G15G29G26
  21942981.226   -13025966.29849  -8444952.18747  21942980.621    21942984.996
  23632182.940    -3902492.68049  -3032144.61745  23632181.980    23632185.885
  21056880.146   -16361153.24949 -12726205.13447  21056879.296    21056882.424
  23064915.571    -2455638.61149  -1657991.67845  23064915.370    23064920.153
  23695681.366    -3285119.25849  -2534641.30245  23695680.222    23695684.769
  20316582.421   -18377535.63949 -14310912.27448  20316581.923    20316586.223
  23118639.962    -2868473.57849  -2216942.90046  23118639.209    23118643.908
                  -1257928.66549   -965042.94043
  23017289.438    -6514076.36749  -4891921.42846  23017289.002    23017295.365
  22427349.723    -8038245.06049  -6253973.63146  22427349.559    22427355.252
 04  1 10  2  0 30.0000000  0 10G18G16G21G30G10G 6G17G15G29G26
  21927196.920   -13108913.28149  -8509586.15647  21927196.258    21927200.691
  23621260.929    -3959888.66349  -3076868.74145  23621260.022    23621263.519
  21050729.057   -16393477.26849 -12751392.66347  21050728.214    21050731.356
  23084398.224    -2353257.78649  -1578214.42445  23084398.063    23084402.544
  23715348.922    -3181765.27749  -2454105.72745  23715347.776    23715352.181
  20318318.804   -18368410.77249 -14303801.98048  20318318.301    20318322.643
  23131382.022    -2801513.37749  -2164766.10946  23131381.139    23131385.742
                  -1336040.69449  -1025909.37844                  24180509.020
  23013957.528    -6531584.67449  -4905564.25446  23013957.189    23013963.576
  22416552.237    -8094987.51249  -6298188.50546  22416551.884    22416557.540
 04  1 10  2  1  0.0000000  0 10G18G16G21G30G10G 6G17G15G29G26
  21911478.175   -13191515.71349  -8573951.64547  21911477.530    21911481.981
  23610428.689    -4016810.86249  -3121223.65745  23610427.673    23610431.765
  21044616.489   -16425598.70649 -12776422.32847  21044615.606    21044618.754
  23103902.125    -2250766.93149  -1498351.44545  23103901.671    23103905.894
  23735045.454    -3078259.34449  -2373451.76345  23735044.321    23735048.597
  20320139.049   -18358845.09249 -14296348.19848  20320138.561    20320142.891
  23144136.304    -2734487.75949  -2112538.37146  23144135.558    23144140.341
  24165657.910    -1414068.84249  -1086710.51344  24165657.443    24165662.188
  23010722.161    -6548586.25949  -4918812.21846  23010721.789    23010728.172
  22405844.397    -8151256.89649  -6342034.74046  22405844.167    22405849.864
 04  1 10  2  1 30.0000000  0 10G18G16G21G30G10G 6G17G15G29G26
  21895824.795   -13273774.59049  -8638049.41947  21895824.137    21895828.591
  23599686.542    -4073260.49849  -3165210.33045  23599685.389    23599690.305
  21038541.843   -16457520.89749 -12801296.74447  21038540.991    21038544.132
  23123425.793    -2148171.77449  -1418407.19845  23123425.166    23123429.148
  23754769.867    -2974606.81049  -2292683.55145  23754768.685    23754772.850
  20322042.815   -18348840.61649 -14288552.50248  20322042.313    20322046.668
  23156903.001    -2667399.40649  -2060261.71246  23156902.140    23156906.753
  24150825.384    -1492015.92149  -1147448.51944  24150826.741    24150830.478
  23007582.952    -6565082.57849  -4931666.47946  23007582.632    23007588.932
  22395226.819    -8207052.97649  -6385512.16246  22395226.617    22395232.056
 04  1 10  2  2  0.0000000  0 10G18G16G21G30G10G 6G17G15G29G26
  21880237.531   -13355686.18849  -8701876.59247  21880236.847    21880241.322
  23589034.874    -4129233.62549  -3208825.69545  23589033.842    23589039.161
  21032505.543   -16489241.86649 -12826014.36547  21032504.670    21032507.801
  23142968.545    -2045473.33249  -1338382.43745  23142968.206    23142972.156
  23774522.066    -2870808.06049  -2211801.40245  23774521.072    23774525.027
  20324030.563   -18338394.48849 -14280412.66148  20324030.097    20324034.490
  23169681.637    -2600246.99649  -2007935.17346  23169680.923    23169685.654
  24136009.008    -1569879.73649  -1208121.58844  24136007.850    24136013.056
  23004540.528    -6581070.56349  -4944124.62646  23004540.258    23004546.412
  22384700.362    -8262370.65249  -6428616.81546  22384700.114    22384705.250
 04  1 10  2  2 30.0000000  0 10G18G16G21G30G10G 6G17G15G29G26
  21864716.634   -13437248.58849  -8765431.67147  21864715.972    21864720.461
  23578474.459    -4184728.52149  -3252068.45545  23578473.612    23578478.558
  21026507.535   -16520761.43349 -12850575.04847  21026506.642    21026509.742
  23162530.441    -1942674.47949  -1258279.45245  23162530.094    23162534.071
  23794301.603    -2766865.76349  -2130807.41345  23794300.430    23794304.632
  20326102.577   -18327505.85749 -14271928.02048  20326102.102    20326106.493
  23182472.533    -2533030.65449  -1955558.79046  23182471.769    23182476.344
  24121207.804    -1647660.42649  -1268729.94144  24121206.416    24121211.974
  23001595.198    -6596548.71649  -4956185.51046  23001594.897    23001600.922
  22374265.368    -8317207.05349  -6471346.43346  22374265.129    22374270.081
 04  1 10  2  3  0.0000000  0 10G18G16G21G30G10G 6G17G15G29G26
  21849262.852   -13518458.86649  -8828712.35247  21849262.131    21849266.614
  23568005.801    -4239742.00949  -3294936.06345  23568005.019    23568009.612
  21020548.092   -16552078.13449 -12874977.65747  21020547.218    21020550.359
  23182110.990    -1839776.55949  -1178099.27245  23182110.699    23182114.986
  23814108.129    -2662781.04849  -2049702.43745  23814106.948    23814111.589
  20328259.291   -18316172.33549 -14263096.71348  20328258.799    20328263.176
  23195275.737    -2465748.98949  -1903131.50546  23195275.065    23195279.529
  24106423.193    -1725356.09649  -1329272.03044  24106421.582    24106427.099
  22998747.517    -6611514.18449  -4967846.89546  22998747.178    22998753.125
  22363922.886    -8371557.55249  -6513697.43046  22363922.688    22363927.532
 04  1 10  2  3 30.0000000  0 10G18G16G21G30G10G 6G17G15G29G26
  21833876.731   -13599313.15049  -8891715.64847  21833876.012    21833880.501
  23557629.313    -4294270.35149  -3337425.67545  23557628.622    23557632.628
  21014627.467   -16583191.02649 -12899221.45347  21014626.637    21014629.808
  23201710.454    -1736780.23249  -1097842.43845  23201710.210    23201714.588
  23833941.542    -2558554.51749  -1968486.97445  23833940.545    23833945.272
  20330501.179   -18304391.10649 -14253916.53848  20330500.677    20330504.992
  23208091.922    -2398400.31149  -1850652.01646  23208091.133    23208095.783
  24091655.003    -1802964.79649  -1389746.33344  24091653.296    24091658.701
  22995998.000    -6625963.68349  -4979106.23446  22995997.552    22996003.449
  22353673.699    -8425417.23249  -6555665.98646  22353673.504    22353678.427
 04  1 10  2  4  0.0000000  0 10G18G16G21G30G10G 6G17G15G29G26
  21818557.441   -13679816.46049  -8954445.45547  21818556.648    21818561.136
  23547344.415    -4348318.58849  -3379541.19845  23547343.744    23547347.255
  21008744.599   -16614105.76949 -12923310.85047  21008743.720    21008746.914
  23221327.270    -1633695.57349  -1017516.75445  23221326.700    23221330.815
  23853800.333    -2454195.52849  -1887168.27245  23853799.379    23853804.369
  20332827.071   -18292168.42249 -14244392.36848  20332826.577    20332830.888
  23220919.383    -2330991.78549  -1798125.89446  23220918.692    23220923.033
  24076901.705    -1880493.42849  -1450158.24844  24076900.018    24076905.775
  22993345.548    -6639902.96149  -4989967.99746  22993345.178    22993350.809
  22343517.039    -8478790.16049  -6597255.26646  22343516.885    22343521.853
 04  1 10  2  4 30.0000000  0 10G18G16G21G30G10G 6G17G15G29G26
  21803305.944   -13759963.53449  -9016897.67047  21803305.096    21803309.596
  23537151.152    -4401881.21749  -3421278.20545  23537150.620    23537155.039
  21002900.056   -16644818.86749 -12947243.11847  21002899.186    21002902.413
  23240960.412    -1530521.36549   -937121.23545  23240960.317    23240964.116
  23873684.711    -2349702.60349  -1805745.19945  23873683.743    23873688.696
  20335237.850   -18279499.53049 -14234520.50048  20335237.368    20335241.636
  23233759.190    -2263519.52649  -1745550.11846  23233758.364    23233762.687
  24062164.506    -1957937.69049  -1510504.37744  24062163.041    24062168.413
  22990791.149    -6653326.98249  -5000428.26646  22990790.807    22990796.253
  22333454.526    -8531669.30749  -6638459.76746  22333454.381    22333459.236
 04  1 10  2  5  0.0000000  0 10G18G16G21G30G10G 6G17G15G29G26
  21788122.798   -13839751.15349  -9079069.80247  21788121.927    21788126.450
  23527051.587    -4454954.69449  -3462634.13545  23527051.151    23527055.891
  20997094.203   -16675328.86749 -12971017.13247  20997093.295    20997096.486
  23260610.690    -1427258.77649   -856656.91745  23260610.704    23260614.270
  23893594.591    -2245076.44849  -1724218.31945  23893593.391    23893598.435
  20337734.071   -18266381.88349 -14224298.96148  20337733.580    20337737.839
  23246611.239    -2195982.30249  -1692923.70146  23246610.486    23246614.509
  24047442.792    -2035295.77249  -1570783.41344                  24047441.367
  22988335.210    -6666232.57549  -5010484.55646  22988334.947    22988340.277
  22323486.915    -8584050.02049  -6679275.88046  22323486.731    22323491.405
 04  1 10  2  5 30.0000000  0 10G18G16G21G30G10G 6G17G15G29G26
  21773008.162   -13919178.45449  -9140961.16347  21773007.321    21773011.892
  23517045.390    -4507538.66349  -3503608.63445  23517044.877    23517049.465
  20991326.686   -16705637.15749 -12994633.97347  20991325.817    20991328.994
  23280277.253    -1323911.90749   -776126.87345  23280276.909    23280280.219
  23913528.743    -2140320.85749  -1642590.59945  23913527.779    23913532.796
  20340315.613   -18252816.16849 -14213728.28648  20340315.103    20340319.311
  23259475.462    -2128381.52949  -1640247.78246  23259474.511    23259478.397
  24032737.019    -2112569.11448  -1630996.39244                  24032735.924
  22985978.049    -6678619.91849  -5020137.00846  22985977.738    22985982.933
  22313614.528    -8635930.90549  -6719702.50246  22313614.267    22313618.748
 04  1 10  2  6  0.0000000  0  9G18G16G21G30G10G 6G17G29G26
  21757962.097   -13998245.54849  -9202571.84747  21757961.287    21757965.904
  23507132.686    -4559633.04349  -3544201.62645  23507132.011    23507136.253
  20985597.307   -16735745.23049 -13018094.79047  20985596.444    20985599.534
  23299958.420    -1220485.15049   -695534.60045  23299958.205    23299961.406
  23933486.924    -2035439.87249  -1560865.13645  23933486.113    23933491.096
  20342982.308   -18238802.95549 -14202808.91048  20342981.777    20342985.957
  23272351.218    -2060718.92949  -1587523.66946  23272350.377    23272354.551
  22983719.373    -6690489.25249  -5029385.83646  22983719.062    22983724.244
  22303837.361    -8687310.49249  -6759738.50946  22303837.035    22303841.468
 04  1 10  2  6 30.0000000  0  9G18G16G21G30G10G 6G17G29G26
  21742985.176   -14076949.35049  -9263899.45047  21742984.395    21742989.043
  23497313.186    -4611235.05749  -3584410.96945  23497312.549    23497316.626
  20979906.280   -16765651.86849 -13041398.64148  20979905.414    20979908.420
  23319654.502    -1116980.21249   -614881.42445  23319654.419    23319657.712
  23953468.557    -1930435.03649  -1479043.16945  23953467.780    23953472.985
  20345734.465   -18224340.49949 -14191539.46748  20345733.931    20345738.091
  23285239.004    -1992993.43449  -1534750.55146  23285238.065    23285242.306
  22981559.935    -6701838.41249  -5038229.31846  22981559.507    22981564.516
  22294156.357    -8738184.64749  -6799380.68946  22294156.007    22294160.420
 04  1 10  2  7  0.0000000  0  9G18G16G21G30G10G 6G17G29G26
  21728077.956   -14155287.29849  -9324941.97947  21728077.145    21728081.779
  23487587.760    -4662341.86749  -3624234.46145  23487587.152    23487591.030
  20974253.719   -16795356.16849 -13064544.83548  20974252.857    20974255.816
  23339365.267    -1013398.70649   -534168.61945  23339364.825    23339368.536
  23973473.164    -1825307.51449  -1397125.61845  23973472.740    23973478.063
  20348572.484   -18209426.83949 -14179918.44248  20348571.947    20348576.069
  23298138.738    -1925204.53949  -1481928.04346  23298137.924    23298142.388
  22979499.780    -6712665.19649  -5046665.76246  22979499.443    22979504.283
  22284572.142    -8788549.51649  -6838626.01846  22284571.832    22284576.337
 04  1 10  2  7 30.0000000  0  9G18G16G21G30G10G 6G17G29G26
  21713239.943   -14233261.59049  -9385701.14647  21713239.157    21713243.749
  23477956.127    -4712955.83749  -3663673.87345  23477955.569    23477959.496
  20968639.028   -16824861.82249 -13087536.23948  20968638.174    20968641.109
  23359088.969     -909747.30949   -453401.33344  23359088.690    23359092.365
  23993500.092    -1720063.35349  -1315117.18045  23993499.627    23993505.402
  20351495.779   -18194065.05449 -14167948.21148  20351495.243    20351499.335
  23311050.207    -1857355.80049  -1429058.88346  23311049.247    23311053.560
  22977538.702    -6722972.08649  -5054697.08646  22977538.231    22977542.990
  22275084.813    -8838406.04449  -6877475.22946  22275084.440    22275088.933
 04  1 10  2  8  0.0000000  0  9G18G16G21G30G10G 6G17G29G26
  21698471.915   -14310868.47049  -9446174.01147  21698471.091    21698475.637
  23468419.422    -4763072.96049  -3702726.17045  23468418.692    23468422.389
  20963062.502   -16854167.08749 -13110371.50148  20963061.564    20963064.475
  23378825.869     -806026.68349   -372580.02844  23378825.706    23378829.478
  24013549.138    -1614702.73649  -1233018.00744  24013548.749    24013554.954
  20354504.917   -18178252.21949 -14155626.52148  20354504.340    20354508.391
  23323973.204    -1789445.19449  -1376141.54546  23323972.290    23323976.342
  22975677.015    -6732755.84649  -5062320.78546  22975676.520    22975681.204
  22265695.066    -8887749.26449  -6915924.46046  22265694.721    22265699.194
 04  1 10  2  8 30.0000000  0  9G18G16G21G30G10G 6G17G29G26
  21683773.784   -14388108.33249  -9506360.88947  21683772.906    21683777.379
  23458976.937    -4812693.52449  -3741391.49845  23458976.238    23458980.197
  20957523.687   -16883273.57949 -13133051.86748  20957522.799    20957525.680
  23398575.455     -702241.54049   -291708.53344  23398574.836    23398578.899
  24033620.297    -1509230.29049  -1150831.67344  24033619.481    24033625.628
  20357599.575   -18161989.66749 -14142954.40348  20357598.997    20357603.070
  23336907.522    -1721474.94549  -1323177.73146  23336906.516    23336910.755
  22973914.711    -6742017.24849  -5069537.44746  22973914.160    22973918.659
  22256403.217    -8936578.14149  -6953972.91346  22256402.853    22256407.286
 04  1 10  2  9  0.0000000  0  9G18G16G21G30G10G 6G17G29G26
  21669146.401   -14464976.05449  -9566257.79147  21669145.493    21669149.918
  23449630.034    -4861812.92549  -3779666.36445  23449629.299    23449633.272
  20952023.348   -16912177.89749 -13155574.69448  20952022.477    20952025.397
  23418337.767     -598391.53949   -210786.50044  23418336.854    23418340.679
  24053712.734    -1403645.39349  -1068557.73644  24053711.724    24053718.135
  20360780.525   -18145273.60549 -14129928.90248  20360779.965    20360784.033
  23349853.545    -1653441.97049  -1270165.03546  23349852.743    23349856.761
  22972252.373    -6750752.24149  -5076343.92646  22972251.911    22972256.335
  22247210.179    -8984886.73349  -6991615.94746  22247209.927    22247214.469
 04  1 10  2  9 30.0000000  0 10G18G16G21G30G10G 6G17G15G29G26
  21654589.409   -14541473.95049  -9625866.51447  21654588.460    21654592.858
  23440377.792    -4910433.21749  -3817552.26645  23440377.115    23440381.261
  20946560.748   -16940883.65849 -13177942.80648  20946559.908    20946562.847
  23438110.269     -494483.12248   -129818.91044  23438109.405    23438114.190
  24073825.241    -1297954.01949   -986200.82244  24073824.020    24073830.564
  20364047.230   -18128106.93249 -14116552.27748  20364046.674    20364050.747
  23362811.173    -1585350.12749  -1217106.44746  23362810.203    23362814.123
                  -1018361.12649   -777906.04043
  22970689.942    -6758963.27249  -5082742.12646  22970689.442    22970693.617
  22238116.118    -9032675.99849  -7028854.31846  22238115.833    22238120.479
 04  1 10  2 10  0.0000000  0 10G18G16G21G30G10G 6G17G15G29G26
  21640103.515   -14617597.35549  -9685183.42847  21640102.629    21640107.043
  23431221.592    -4958550.00649  -3855045.84845  23431220.773    23431225.019
  20941136.398   -16969388.88249 -13200154.65348  20941135.514    20941138.485
  23457894.028     -390516.28748    -48805.80944  23457892.929    23457898.453
  24093957.759    -1192155.37848   -903760.35244  24093956.660    24093963.461
  20367400.374   -18110486.18149 -14102821.82448  20367399.822    20367403.906
  23375780.106    -1517196.77649  -1163999.96145  23375779.274    23375783.181
                  -1094878.59449   -837535.33043
  22969227.817    -6766646.77649  -5088729.26246  22969227.355    22969231.472
  22229121.857    -9079940.45349  -7065683.75346  22229121.719    22229126.422
 04  1 10  2 10 30.0000000  0 10G18G16G21G30G10G 6G17G15G29G26
  21625688.619   -14693347.41349  -9744209.43347  21625687.818    21625692.247
  23422161.041    -5006164.37349  -3892147.93345  23422160.366    23422164.231
  20935749.828   -16997695.33849 -13222211.62148  20935748.993    20935751.986
  23477688.009     -286496.16048     32248.78844  23477686.926    23477692.680
  24114110.267    -1086254.67649   -821240.29444  24114109.559    24114115.332
  20370839.563   -18092413.29949 -14088739.06748  20370839.002    20370843.092
  23388760.581    -1448984.51449  -1110847.54645  23388759.649    23388763.425
                  -1171313.24649   -897100.02843
  22967865.934    -6773804.11549  -5094306.39546  22967865.477    22967869.392
  22220227.743    -9126679.86349  -7102104.04346  22220227.556    22220232.346
 04  1 10  2 11  0.0000000  0 10G18G16G21G30G10G 6G17G15G29G26
  21611345.521   -14768720.04649  -9802941.32647  21611344.827    21611349.258
  23413196.681    -5053272.35149  -3928855.42345  23413195.991    23413199.829
  20930401.574   -17025800.54849 -13244111.76248  20930400.725    20930403.788
  23497492.241     -182423.25948    113344.52544  23497491.413    23497496.803
  24134282.651     -980251.76049   -738640.58544  24134281.334    24134286.858
  20374365.363   -18073885.09449 -14074301.51548  20374364.811    20374368.910
  23401752.392    -1380710.95549  -1057647.39945  23401751.644    23401755.527
                  -1247662.33049   -752251.46343
  22966604.675    -6780431.81949  -5099470.82646  22966604.251    22966608.125
  22211434.442    -9172888.87149  -7138111.04546  22211434.353    22211439.137
 04  1 10  2 11 30.0000000  0 10G18G16G21G30G10G 6G17G15G29G26
  21597074.117   -14843716.99649  -9861380.47247  21597073.357    21597077.765
  23404328.339    -5099875.49649  -3965169.54945  23404327.692    23404331.432
  20925090.979   -17053708.01249 -13265857.82748  20925090.141    20925093.204
  23517305.849      -78303.34749    194476.91444  23517304.808    23517310.691
  24154473.347     -874151.96149   -655965.46344  24154471.577    24154477.215
  20377977.234   -18054904.07749 -14059511.12048  20377976.730    20377980.890
  23414755.521    -1312379.54849  -1004402.14145  23414754.574    23414758.338
                  -1323929.16449   -811678.96443
  22965443.995    -6786531.97949  -5104224.18746  22965443.544    22965447.240
  22202742.028    -9218567.94149  -7173705.10846  22202741.862    22202746.744
 04  1 10  2 12  0.0000000  0 10G18G16G21G30G10G 6G17G15G29G26
  21582874.337   -14918337.47449  -9919526.26547  21582873.528    21582877.924
  23395556.399    -5145972.94449  -4001089.61445  23395555.724    23395559.321
  20919817.949   -17081418.35349 -13287450.28848  20919817.072    20919820.101
  23537127.522       25859.99948    275643.15344  23537126.645    23537133.154
  24174682.110     -767958.38649   -573217.18844  24174679.966    24174684.637
  20381675.343   -18035470.44149 -14044368.02948  20381674.820    20381679.022
  23427769.221    -1243990.74449   -951112.17545  23427768.362    23427772.022
                  -1400114.05549   -871042.48943
  22964383.504    -6792104.56649  -5108566.44346  22964383.058    22964386.665
  22194150.633    -9263715.12049  -7208884.71446  22194150.540    22194155.494
 04  1 10  2 12 30.0000000  0 10G18G16G21G30G10G 6G17G15G29G26
  21568747.183   -14992576.10049  -9977374.52647  21568746.338    21568750.722
  23386881.648    -5191559.69949  -4036611.73246  23386880.879    23386884.530
  20914583.093   -17108927.69849 -13308886.12948  20914582.206    20914585.267
  23556957.900      130067.81648    356844.00244  23556957.667    23556963.009
  24194908.426     -661669.76349   -490394.87044  24194906.625    24194910.500
  20385460.344   -18015579.90749 -14028868.91148  20385459.840    20385464.083
  23440794.847    -1175541.43949   -897775.03545  23440793.867    23440797.425
                  -1476213.53649   -725500.32143
  22963424.357    -6797144.83649  -5112493.90446  22963423.972    22963427.547
  22185661.770    -9308324.05749  -7243644.91446  22185661.656    22185666.707
 04  1 10  2 13  0.0000000  0 10G18G16G21G30G10G 6G17G15G29G26
  21554692.980   -15066430.98849 -10034923.77447  21554692.147    21554696.548
  23378304.060    -5236634.34149  -4071734.81545  23378303.337    23378307.214
  20909386.337   -17136236.39149 -13330165.62548  20909385.494    20909388.590
  23576796.013      234317.42548    438077.45144  23576796.442    23576801.649
  24215152.390     -555288.25348   -407500.16744  24215150.060    24215154.325
  20389332.474   -17995231.90249 -14013013.33548  20389331.939    20389336.229
  23453831.679    -1107031.34449   -844390.56645  23453830.791    23453834.319
                  -1552227.14049   -784731.66943
  22962566.681    -6801651.96449  -5116005.94846  22962566.366    22962569.793
  22177275.866    -9352392.08549  -7277983.64146  22177275.801    22177280.901
 04  1 10  2 13 30.0000000  0 10G18G16G21G30G10G 6G17G15G29G26
  21540711.573   -15139903.58849 -10092175.11947  21540710.707    21540715.145
  23369823.903    -5281197.98449  -4106459.68446  23369823.079    23369827.065
  20904227.450   -17163346.54049 -13351290.40248  20904226.615    20904229.621
  23596640.723      338603.28249    519339.16944  23596641.835    23596646.902
  24235412.724     -448818.87049   -324537.00744  24235410.853    24235414.659
  20393291.227   -17974428.34849 -13996802.77448  20393290.719    20393295.011
  23466879.899    -1038463.24849   -790960.84845  23466878.968    23466882.314
                  -1628157.25249   -843897.99444                  23799638.126
  22961810.248    -6805627.62949  -5119103.84446  22961809.950    22961813.182
  22168993.106    -9395919.37149  -7311900.99046  22168992.965    22168997.961
 04  1 10  2 14  0.0000000  0 10G18G16G21G30G10G 6G17G15G29G26
  21526803.730   -15212989.02849 -10149124.79847  21526802.975    21526807.411
  23361441.819    -5325246.15149  -4140782.92145  23361441.041    23361444.901
  20899106.997   -17190255.06649 -13372258.07748  20899106.140    20899109.108
  23616493.169      442926.13548    600629.66344  23616493.162
  24255690.270     -342260.48149   -241504.49944  24255688.536    24255692.678
  20397337.413   -17953165.55149 -13980234.37048  20397336.927    20397341.236
  23479939.581     -969833.81849   -737483.40445  23479938.637    23479942.049
  23785205.176    -1704000.50449   -902996.59745  23785202.887    23785206.275
  22961155.702    -6809067.67649  -5121784.39446  22961155.293    22961158.528
  22160814.352    -9438899.90049  -7345392.30046  22160814.167    22160819.025
 04  1 10  2 14 30.0000000  0 10G18G16G21G30G10G 6G17G15G29G26
  21512969.542   -15285688.29649 -10205773.56047  21512968.742    21512973.144
  23353157.591    -5368779.79549  -4174705.21545  23353156.806    23353160.662
  20894024.445   -17216964.41549 -13393070.55248  20894023.558    20894026.501
  23636351.360      547280.58648    681944.87144  23636351.774    23636356.641
  24275984.407     -235618.20449   -158406.62544  24275982.006    24275985.893
  20401470.660   -17931445.35949 -13963309.55448  20401470.156    20401474.483
  23493010.474     -901146.06849   -683960.46145  23493009.518    23493012.717
  23770788.461    -1779759.48149   -962029.56045  23770785.628    23770790.092
  22960602.600    -6811974.06849  -5124049.10246  22960602.226    22960605.399
  22152739.581    -9481333.69849  -7378457.57846  22152739.308    22152744.116
 04  1 10  2 15  0.0000000  0 10G18G16G21G30G10G 6G17G15G29G26
  21499208.504   -15358003.16649 -10262122.77847  21499207.708    21499212.024
  23344970.804    -5411800.59249  -4208227.88945  23344970.143    23344973.776
  20888979.126   -17243477.57649 -13413730.14548  20888978.231    20888981.215
  23656214.012      651661.01249    763280.28144  23656215.429    23656217.876
  24296292.835     -128897.24148    -75247.38044  24296290.040    24296294.333
  20405690.513   -17909270.20149 -13946030.20748  20405689.985    20405694.357
  23506091.874     -832402.70949   -630394.16345  23506090.891    23506094.093
  23756387.201    -1855437.04049  -1020999.07645  23756386.355    23756390.002
  22960150.748    -6814348.57649  -5125899.35646  22960150.359    22960153.572
  22144768.703    -9523220.86049  -7411096.89746  22144768.406    22144773.238
 04  1 10  2 15 30.0000000  0 10G18G16G21G30G10G 6G17G15G29G26
  21485521.816   -15429927.52349 -10318167.68347  21485520.973    21485525.253
  23336882.946    -5454302.46649  -4241346.20945  23336882.332    23336885.752
  20883972.070   -17269789.69549 -13434233.07848  20883971.218    20883974.164
  23676082.568      756069.38948    844637.50044  23676084.637    23676086.494
  24316616.829      -22095.15248      7974.98844  24316613.108    24316618.736
  20409997.839   -17886634.99949 -13928392.38848  20409997.333    20410001.751
  23519184.745     -763599.16949   -576780.98745  23519183.689    23519187.100
  23742002.881    -1931028.42149  -1079901.43145  23742002.103    23742006.154
  22959801.236    -6816186.15049  -5127331.21846  22959800.770    22959803.978
  22136903.163    -9564554.41849  -7443304.84046  22136902.851    22136907.743
 04  1 10  2 16  0.0000000  0 10G18G16G21G30G10G 6G17G15G29G26
  21471909.831   -15501459.47349 -10373906.81547  21471908.947    21471913.203
  23328894.158    -5496284.03749  -4274059.07345  23328893.503    23328896.976
  20879003.335   -17295900.73649 -13454579.33748  20879002.417    20879005.367
  23695956.540      860503.01049    926014.33344  23695957.522    23695958.609
  24336955.960       84785.61748     91258.68644  24336952.088    24336957.529
  20414392.813   -17863539.15849 -13910395.64848  20414392.300    20414396.754
  23532288.807     -694735.54949   -523121.02445  23532287.757    23532291.465
  23727635.130    -2006533.50149  -1138736.51845  23727634.061    23727638.622
  22959553.991    -6817485.86249  -5128343.97246  22959553.472    22959556.647
  22129143.307    -9605331.84349  -7475079.46146  22129142.984    22129148.049
 04  1 10  2 16 30.0000000  0 10G18G16G21G30G10G 6G17G15G29G26
  21458372.183   -15572600.15849 -10429341.06947  21458371.339    21458375.593
  23321004.243    -5537746.50849  -4306367.47146  23321003.536    23321006.956
  20874072.379   -17321813.07649 -13474770.76548  20874071.451    20874074.424
  23715834.159      964956.81549   1007406.92644  23715834.008    23715835.182
  24357307.869      191741.01348    174600.54344                  24357304.710
  20418875.081   -17839984.57649 -13892041.43948  20418874.607    20418879.127
  23545403.866     -625814.35249   -469416.18445  23545403.016    23545406.906
  23713283.210    -2081954.35249  -1197505.97644  23713282.076    23713286.940
  22959408.694    -6818249.22149  -5128938.78246  22959408.182    22959411.347
  22121489.255    -9645552.86549  -7506420.50146  22121488.972    22121494.281
 04  1 10  2 17  0.0000000  0 10G18G16G21G30G10G 6G17G15G29G26
  21444908.730   -15643351.06949 -10484471.60847  21444907.929    21444912.142
  23313212.618    -5578691.34749  -4338272.51545  23313211.970    23313215.474
  20869178.652   -17347529.67549 -13494809.66048  20869177.709    20869180.713
  23735714.921     1069425.03549   1088810.71244  23735713.798    23735714.534
  24377673.711      298765.51958    257996.24344                  24377670.511
  20423444.140   -17815973.89449 -13873331.82248  20423443.674    20423448.228
  23558529.334     -556838.55649   -415668.80645  23558528.491    23558532.765
  23698947.195    -2157293.84549  -1256212.02644  23698946.189    23698950.341
  22959365.013    -6818478.67249  -5129117.55746  22959364.503    22959367.668
  22113941.010    -9685218.19849  -7537328.54346  22113940.857    22113946.220
 04  1 10  2 17 30.0000000  0 10G18G16G21G30G10G 6G17G15G29G26
  21431520.963   -15713704.17449 -10539292.18747  21431520.217    21431524.358
  23305521.005    -5619110.76449  -4369768.13045  23305520.294    23305523.869
  20864323.383   -17373043.80149 -13514690.78948  20864322.470    20864325.536
  23755598.649     1173911.70549   1170228.87644  23755597.540    23755596.897
                    405863.48848    341449.21144
  20428101.447   -17791499.66849 -13854260.99448  20428100.960    20428105.529
  23571665.948     -487801.27449   -361873.52045  23571665.367    23571670.492
  23684627.035    -2232545.09849  -1314849.37144  23684626.464    23684630.339
  22959424.436    -6818166.72049  -5128874.46146  22959423.852    22959426.972
  22106500.466    -9724318.60249  -7567796.38346  22106500.298    22106505.685
 04  1 10  2 18  0.0000000  0 10G18G16G21G30G10G 6G17G15G29G26
  21418208.181   -15783663.71949 -10593806.08147  21418207.423    21418211.475
  23297928.473    -5659009.04349  -4400857.68045  23297927.781    23297931.051
  20859505.610   -17398360.92949 -13534418.40748  20859504.716    20859507.843
  23775483.869     1278408.59348   1251655.04044  23775481.699    23775482.493
                    513027.17658   1864967.37443
  20432845.882   -17766567.37949 -13834833.24348  20432845.405    20432849.999
  23584813.761     -418708.29949   -308034.82945  23584813.074    23584818.776
  23670323.856    -2307713.83649  -1373422.32844  23670322.993    23670325.705
  22959585.854    -6817318.25749  -5128213.29746  22959585.280    22959588.437
  22099166.855    -9762857.24149  -7597826.47546  22099166.675    22099172.042
 04  1 10  2 18 30.0000000  0 10G18G16G21G30G10G 6G17G15G29G26
  21404971.081   -15853225.41449 -10648009.98147  21404970.307    21404974.289
  23290435.801    -5698382.21349  -4431538.02945  23290435.158    23290438.314
  20854725.886   -17423478.28149 -13553990.36548  20854724.975    20854728.182
  23795370.248     1382915.74249   1333089.13144  23795368.630    23795369.643
                    620257.07258   1948545.32043
  20437678.099   -17741173.90949 -13815046.13848  20437677.640    20437682.251
  23597972.502     -349556.99949   -254150.68645  23597971.895    23597977.942
  23656036.794    -2382796.84049  -1431928.50544  23656036.026    23656037.786
  22959849.931    -6815930.10649  -5127131.62646  22959849.367    22959852.595
  22091941.173    -9800829.04349  -7627414.88546  22091940.938    22091946.271
 04  1 10  2 19  0.0000000  0 10G18G16G21G30G10G 6G17G15G29G26
  21391809.793   -15922388.80349 -10701903.50647  21391808.999    21391812.907
  23283043.305    -5737230.12449  -4461809.11845  23283042.625    23283045.458
  20849983.907   -17448396.80349 -13573407.38648  20849983.037    20849986.289
  23815258.187     1487429.56949   1414528.42444  23815257.459    23815258.702
                    727550.19257   2032229.02843
  20442597.969   -17715319.90049 -13794900.17048  20442597.494    20442602.135
  23611142.617     -280348.24149   -200221.76545  23611141.806    23611147.945
  23641765.148    -2457795.00049  -1490368.62944  23641764.337    23641766.375
  22960216.628    -6814002.51649  -5125629.59046  22960216.064    22960219.347
  22084823.645    -9838232.42749  -7656560.37046  22084823.375    22084828.551
 04  1 10  2 19 30.0000000  0  9G18G16G21G30G 6G17G15G29G26
  21378724.198   -15991154.81449 -10755487.38247  21378723.328    21378727.161
  23275750.621    -5775553.50249  -4491671.47245  23275749.784    23275752.435
  20845279.479   -17473118.27949 -13592670.85848  20845278.624    20845281.897
  23835146.763     1591945.34249   1495969.28844  23835146.409    23835147.383
  20447605.189   -17689006.86849 -13774396.52248  20447604.708    20447609.357
  23624323.264     -211084.30049   -146249.87045  23624322.333    23624328.728
  23627509.134    -2532710.10549  -1548744.04244  23627508.468    23627510.603
  22960685.688    -6811536.85649  -5123708.28246  22960685.089    22960688.629
  22077814.283    -9875067.05849  -7685262.67346  22077814.008    22077819.168
 04  1 10  2 20  0.0000000  0  9G18G16G21G30G 6G17G15G29G26
  21365715.572   -16059515.73149 -10808755.61047  21365714.713    21365718.466
  23268558.933    -5813344.84249  -4521119.23745  23268558.263    23268560.977
  20840613.835   -17497636.37749 -13611775.85848  20840612.964    20840616.235
  23855036.642     1696466.84849   1577414.64144  23855036.333    23855037.904
  20452701.039   -17662227.98249 -13753529.87448  20452700.560    20452705.177
  23637515.142     -141758.65848    -92229.90145  23637514.310    23637521.184
  23613269.542    -2607536.00449  -1607049.93844  23613268.526    23613271.649
  22961258.439    -6808526.27049  -5121362.36546  22961257.833    22961261.678
  22070914.741    -9911324.34949  -7713515.09147  22070914.534    22070919.626
 04  1 10  2 20 30.0000000  0  9G18G16G21G30G 6G17G15G29G26
  21352783.499   -16127474.22449 -10861710.25147  21352782.646    21352786.400
  23261467.941    -5850606.89849  -4550154.54445  23261467.201    23261470.034
  20835986.173   -17521954.67749 -13630725.16648  20835985.278    20835988.602
  23874925.958     1800987.25149   1658859.07844  23874925.973    23874928.125
  20457884.879   -17634986.85549 -13732303.03448  20457884.381    20457888.985
  23650718.365      -72375.20949    -38164.86345  23650717.569    23650724.473
  23599046.090    -2682276.13549  -1665289.02745  23599045.452    23599048.628
  22961934.374    -6804974.12249  -5118594.44746  22961933.814    22961937.613
  22064124.813    -9947005.94249  -7741318.90947  22064124.584    22064129.643
 04  1 10  2 21  0.0000000  0  9G18G16G21G30G 6G17G15G29G26
  21339927.669   -16195031.74149 -10914352.46047  21339926.856    21339930.560
  23254477.459    -5887341.86949  -4578779.19545  23254476.710    23254479.401
  20831395.712   -17546076.82249 -13649521.64048  20831394.866    20831398.296
  23894813.635     1905500.81749   1740298.20444  23894814.065    23894816.980
  20463156.131   -17607286.38949 -13710718.26748  20463155.642    20463160.210
  23663932.094       -2937.37148     15942.52645  23663931.152    23663938.228
  23584838.106    -2756933.79949  -1723463.84145  23584837.239    23584841.454
  22962712.763    -6800883.16149  -5115406.69146  22962712.245    22962716.052
  22057444.385    -9982112.69549  -7768674.80047  22057444.119    22057449.093
 04  1 10  2 21 30.0000000  0  9G18G16G21G30G 6G17G15G29G26
  21327148.876   -16262184.67149 -10966679.40847  21327148.073    21327151.721
  23247587.994    -5923546.09349  -4606990.25245  23247587.320    23247589.939
  20826843.300   -17569999.92449 -13668163.00948  20826842.447    20826845.873
  23914700.508     2010007.51449   1821731.93744  23914700.638    23914704.694
  20468515.333   -17579123.68549 -13688773.31948  20468514.822    20468519.374
  23677156.005       66557.55049     70094.41945  23677155.297    23677162.928
  23570646.636    -2831506.11949  -1781572.14545  23570645.424    23570651.199
  22963594.278    -6796250.26149  -5111796.63746  22963593.745    22963597.572
  22050874.159   -10016639.80249  -7795579.01047  22050873.898    22050878.801
 04  1 10  2 22  0.0000000  0  9G18G16G21G30G 6G17G15G29G26
  21314447.208   -16328932.57849 -11018690.75347  21314446.406    21314449.976
  23240799.553    -5959219.20449  -4634787.48845  23240798.871    23240801.357
  20822328.617   -17593724.63349 -13686649.77948  20822327.743    20822331.192
  23934585.155     2114504.05449   1903157.79244  23934585.521    23934590.138
  20473962.398   -17550499.14949 -13666468.49048  20473961.881    20473966.455
  23690391.251      136108.85949    124290.23345  23690390.364    23690398.076
  23556471.291    -2905993.82649  -1839614.47845  23556469.987    23556476.673
  22964578.861    -6791075.71049  -5107764.50246  22964578.344    22964582.201
  22044414.390   -10050585.79949  -7822030.40946  22044414.150    22044419.082
 04  1 10  2 22 30.0000000  0  9G18G16G21G30G 6G17G15G29G26
  21301823.873   -16395268.80749 -11070381.32347  21301823.025    21301826.526
  23234113.445    -5994354.78349  -4662165.81245  23234112.698    23234115.156
  20817852.780   -17617245.20649 -13704977.49448  20817851.931    20817855.334
  23954468.082     2218993.06249   1984577.76045  23954468.757    23954474.058
  20479498.394   -17521407.17649 -13643799.43048  20479497.889    20479502.488
  23703638.378      205721.95849    178534.16645  23703637.304    23703645.062
  23542312.627    -2980391.38348  -1897586.62545  23542311.539    23542318.971
  22965667.767    -6785353.52449  -5103305.66446  22965667.219    22965670.995
  22038066.548   -10083942.98449  -7848023.00746  22038066.355    22038071.388
 04  1 10  2 23  0.0000000  0  9G18G16G21G30G 6G17G15G29G26
  21289276.738   -16461204.53049 -11121759.79547  21289275.901    21289279.361
  23227527.198    -6028964.15949  -4689134.14145  23227526.548    23227529.235
  20813413.351   -17640574.28449 -13723155.97848  20813412.494    20813415.930
  23974346.928     2323459.39949   2065980.10145  23974347.685    23974353.817
  20485120.981   -17491860.01449 -13620775.67548  20485120.476    20485125.134
  23716894.123      275383.97849    232816.26145  23716893.028    23716901.468
  23528169.128    -3054711.29148  -1955498.17945  23528168.050    23528176.205
  22966858.590    -6779096.02049  -5098429.66646  22966857.975    22966861.689
  22031828.774   -10116721.80549  -7873564.92346  22031828.623    22031833.790
 04  1 10  2 23 30.0000000  0  9G18G16G21G30G 6G17G15G29G26
  21276808.574   -16526724.95249 -11172814.68647  21276807.752    21276811.186
  23221044.107    -6063032.89449  -4715681.18345  23221043.535    23221046.211
  20809013.047   -17663697.83849 -13741174.32448  20809012.171    20809015.651
  23994224.011     2427914.08549   2147373.33945  23994224.623    23994231.218
  20490832.866   -17461843.71149 -13597386.36448  20490832.362    20490837.077
  23730161.998      345108.90649    287147.33545  23730160.812    23730169.736
  23514042.857    -3128939.59948  -2013338.38245  23514042.069    23514051.113
  22968153.669    -6772289.18649  -5093125.63746  22968153.178    22968156.915
  22025704.158   -10148906.57349  -7898643.94846  22025703.953    22025709.163
 04  1 10  2 24  0.0000000  0  9G18G16G21G30G 6G17G15G29G26
  21264417.650   -16591839.51749 -11223553.28047  21264416.861    21264420.233
  23214662.222    -6096571.16149  -4741814.88645  23214661.504    23214664.087
  20804649.568   -17686627.64149 -13759041.69548  20804648.711    20804652.204
  24014096.857     2532343.41049   2228746.84845  24014097.106    24014103.649
  20496631.919   -17431369.14249 -13573639.96048  20496631.417    20496636.173
  23743440.209      414885.59749    341518.76545  23743438.899    23743447.702
  23499931.424    -3203087.43248  -2071115.86945  23499931.209    23499941.419
  22969551.555    -6764943.78849  -5087401.94746  22969550.941    22969554.685
  22019690.971   -10180506.06549  -7923266.91346  22019690.775    22019695.916
 04  1 10  2 24 30.0000000  0  9G18G16G21G30G 6G17G15G29G26
  21252104.939   -16656543.40149 -11273971.85747  21252104.125    21252107.436
  23208382.125    -6129573.71349  -4767531.14845  23208381.302    23208383.875
  20800323.869   -17709358.94449 -13776754.38048  20800323.046    20800326.547
  24033964.910     2636748.75849   2310101.65944  24033964.703    24033971.448
  20502519.055   -17400432.03149 -13549533.11748  20502518.532    20502523.327
  23756729.058      484718.09949    395933.68645  23756727.789    23756736.579
  23485836.921    -3277150.40748  -2128827.23245  23485836.934    23485847.889
  22971052.478    -6757055.20249  -5081254.99546  22971052.011    22971055.786
  22013790.394   -10211514.35549  -7947429.19546  22013790.150    22013795.269
 04  1 10  2 25  0.0000000  0  9G18G16G21G30G 6G17G15G29G26
  21239871.215   -16720831.72049 -11324066.63947  21239870.424    21239873.736
  23202204.741    -6162035.80349  -4792826.27045  23202203.909    23202206.560
  20796036.685   -17731888.09949 -13794309.56048  20796035.874    20796039.366
  24053828.911     2741131.41849   2391438.74244  24053828.172    24053835.029
  20508494.907   -17369028.46249 -13525062.81448  20508494.405    20508499.188
  23770028.571      554610.08349    450394.93945  23770027.642    23770036.589
  23471760.104    -3351124.67348  -2186469.42345  23471759.860    23471771.118
  22972657.711    -6748619.63549  -5074681.82546  22972657.161    22972660.935
  22008003.553   -10241925.36149  -7971126.06846  22008003.196    22008008.230
 04  1 10  2 25 30.0000000  0  9G18G16G21G30G 6G17G15G29G26
  21227715.307   -16784710.70149 -11373842.46347  21227714.549    21227717.899
  23196128.689    -6193964.41549  -4817705.67945  23196128.025    23196130.880
  20791786.649   -17754222.37549 -13811712.88848  20791785.856    20791789.301
  24073685.726     2845480.94148   2472750.04944  24073684.988    24073692.433
  20514558.082   -17337166.01849 -13500234.94848  20514557.587    20514562.368
  23783338.951      624554.04349    504896.74845  23783338.026    23783346.398
  23457698.400    -3425017.67748  -2244048.36045  23457698.234    23457709.678
  22974365.576    -6739644.33949  -5067688.07846  22974365.078    22974368.820
  22002329.087   -10271744.73649  -7994361.93146  22002328.775    22002333.766
 04  1 10  2 26  0.0000000  0  9G18G16G21G30G 6G17G15G29G26
  21215638.585   -16848173.87249 -11423294.27247  21215637.860    21215641.239
  23190155.610    -6225353.15349  -4842164.41145  23190154.910    23190158.018
  20787574.746   -17776356.29349 -13828960.08648  20787573.902    20787577.337
  24093536.694     2949800.33648   2554037.90144  24093536.203    24093544.010
  20520709.741   -17304838.98949 -13475045.06548  20520709.249    20520713.984
  23796660.328      694555.50749    559443.30145  23796659.346    23796667.603
  23443652.897    -3498823.72349  -2301559.50345  23443653.336    23443664.501
  22976177.239    -6730123.43249  -5060269.18846  22976176.824    22976180.608
  21996768.638   -10300965.12649  -8017131.05146  21996768.324    21996773.319
 04  1 10  2 26 30.0000000  0  9G18G16G21G30G 6G17G15G29G26
  21203640.276   -16911225.55449 -11472425.43347  21203639.506    21203642.859
  23184284.256    -6256206.48749  -4866205.97245  23184283.764    23184286.660
  20783399.861   -17798295.15549 -13846055.29548  20783399.102    20783402.456
  24113380.459     3054081.65348   2635296.04244  24113380.325    24113387.910
  20526948.717   -17272052.80649 -13449497.39448  20526948.220    20526952.955
  23809991.025      764608.95849    614030.38545  23809990.196    23809998.584
  23429624.229    -3572548.21649  -2359007.12645  23429624.258    23429635.312
  22978091.772    -6720062.15749  -5052429.22746  22978091.369    22978095.193
  21991321.508   -10329589.67949  -8039435.87546  21991321.205    21991326.157
 04  1 10  2 27  0.0000000  0  9G18G16G21G30G 6G17G15G29G26
  21191721.818   -16973857.72049 -11521229.69947  21191720.967    21191724.338
  23178516.356    -6286517.19149  -4889824.68145  23178515.797    23178518.655
  20779263.499   -17820032.65449 -13862993.59348  20779262.676    20779265.946
  24133217.543     3158328.74149   2716527.51044  24133217.750    24133225.470
  20533276.379   -17238800.71249 -13423586.68248  20533275.879    20533280.593
  23823333.383      834721.13549    668663.26645  23823332.509    23823340.428
  23415612.294    -3646184.58249  -2416386.05345  23415611.868    23415622.809
  22980110.514    -6709453.82349  -5044162.98546  22980110.130    22980113.931
  21985989.415   -10357610.23649  -8061270.05446  21985989.077    21985993.972
 04  1 10  2 27 30.0000000  0  9G18G16G21G30G 6G17G15G29G26
  21179882.151   -17036074.94949 -11569710.64547  21179881.343    21179884.765
  23172850.682    -6316289.83649  -4913024.13045  23172850.290    23172853.191
  20775164.378   -17841573.76849 -13879778.87448  20775163.603    20775166.783
  24153046.683     3262533.49348   2797726.02044  24153046.345    24153054.838
  20539691.663   -17205088.05549 -13397317.07948  20539691.158    20539695.852
  23836685.791      904886.26649    723337.34845  23836684.836    23836692.648
  23401616.211    -3719738.06749  -2473700.41645  23401615.617    23401625.978
  22982232.449    -6698303.74849  -5035474.60246  22982232.082    22982235.821
  21980771.548   -10385030.17149  -8082636.22746  21980771.239    21980776.104
 04  1 10  2 28  0.0000000  0  9G18G16G21G30G 6G17G15G29G26
  21168122.269   -17097873.18749 -11617865.09847  21168121.465    21168124.948
  23167287.952    -6345520.57849  -4935801.28145  23167287.620    23167290.852
  20771103.339   -17862915.45149 -13896408.74048  20771102.535    20771105.589
  24172868.396     3366696.41849   2878891.95644  24172867.963    24172876.446
  20546195.191   -17170911.69649 -13370686.15948  20546194.675    20546199.345
  23850048.638      975107.57249    778055.24045  23850047.815    23850055.615
  23387635.937    -3793205.65849  -2530947.82945  23387635.507    23387645.277
  22984458.121    -6686608.64549  -5026361.51946  22984457.701    22984461.405
  21975668.791   -10411844.65549  -8103530.60346  21975668.551    21975673.449
 04  1 10  2 28 30.0000000  0  9G18G16G21G30G 6G17G15G29G26
  21156442.226   -17159251.97249 -11665692.71547  21156441.440    21156444.952
  23161828.602    -6374209.22849  -4958156.09145  23161828.240    23161831.652
  20767080.155   -17884058.00749 -13912883.45248  20767079.290    20767082.290
  24192682.146     3470814.18949   2960022.63844  24192681.143    24192690.217
  20552786.854   -17136272.32149 -13343694.45048  20552786.342    20552791.019
  23863421.935     1045384.38049    832816.38245  23863421.087    23863429.012
  23373672.475    -3866587.74649  -2588128.63145  23373671.642    23373680.838
  22986787.285    -6674369.23349  -5016824.30546  22986786.749    22986790.655
  21970681.597   -10438052.51549  -8123952.29446  21970681.334    21970686.210
 04  1 10  2 29  0.0000000  0  9G18G16G21G30G 6G17G15G29G26
  21144842.210   -17220210.49049 -11713192.83947  21144841.401    21144844.922
  23156472.420    -6402355.45249  -4980088.19045  23156472.138    23156475.541
  20763094.565   -17905002.34449 -13929203.70848  20763093.729    20763096.674
  24212486.823     3574883.96549   3041115.99244  24212485.734    24212493.573
  20559466.610   -17101170.11949 -13316342.09848  20559466.098    20559470.760
  23876805.884     1115716.63449    887620.72045  23876805.051    23876812.854
  23359725.187    -3939884.44749  -2645242.88345  23359724.109    23359732.848
  22989219.877    -6661585.68949  -5006863.08746  22989219.414    22989223.377
  21965810.211   -10463652.14849  -8143900.04647  21965809.936    21965814.734
 04  1 10  2 29 30.0000000  0  9G18G16G21G30G 6G17G15G29G26
  21133322.016   -17280749.31349 -11760365.91247  21133321.226    21133324.742
  23151219.314    -6429960.31849  -5001598.47045  23151219.054    23151222.456
  20759146.491   -17925749.69649 -13945370.46748  20759145.662    20759148.573
  24232281.208     3678901.36749   3122168.54844  24232279.831    24232287.702
  20566234.104   -17065606.82549 -13288630.45148  20566233.583    20566238.195
  23890200.085     1186102.36149    942466.70845  23890199.399    23890206.714
  23345793.779    -4013097.50849  -2702291.96545  23345792.573    23345800.926
  22991755.688    -6648259.53649  -4996479.04746  22991755.209    22991759.303
  21961054.462   -10488643.45149  -8163373.77147  21961054.228    21961059.061
 04  1 10  2 30  0.0000000  0  9G18G16G21G30G 6G17G15G29G26
  21121882.558   -17340864.38849 -11807208.81248  21121881.736    21121885.226
  23146070.134    -6457019.97349  -5022683.87745  23146069.669    23146073.254
  20755236.679   -17946296.42249 -13961380.89648  20755235.829    20755238.662
  24252065.571     3782867.21449   3203180.86744  24252063.617    24252071.869
  20573089.924   -17029579.23149 -13260557.01148  20573089.407    20573093.994
  23903604.919     1256544.95349    997357.02345  23903604.010    23903611.719
  23331878.604    -4086223.56949  -2759273.29745  23331877.297    23331885.615
  22994395.282    -6634387.39749  -4985669.58146  22994394.932    22994399.214
  21956415.544   -10513021.32349  -8182369.50247  21956415.260    21956420.130
 04  1 10  2 30 30.0000000  0  9G18G16G21G30G 6G17G15G29G26
  21110524.383   -17400552.32449 -11853718.86448  21110523.489    21110526.962
  23141025.284    -6483531.21849  -5043341.98245  23141024.782    23141028.400
  20751365.448   -17966640.01449 -13977233.03848  20751364.589    20751367.344
  24271839.208     3886781.21949   3284152.84944  24271837.726    24271845.849
  20580034.637   -16993084.81949 -13232119.81848  20580034.139    20580038.650
  23917020.847     1327046.48449   1052293.24045  23917019.911    23917027.869
  23317980.500    -4159260.01549  -2816184.76945  23317979.068    23317987.160
  22997139.425    -6619967.14349  -4974432.99846  22997138.902    22997143.311
  21951894.083   -10536782.00649  -8200884.30247  21951893.820    21951898.656
 04  1 10  2 31  0.0000000  0  9G18G16G21G30G 6G17G15G29G26
  21099245.916   -17459820.79549 -11899902.06248  21099245.047    21099248.521
  23136083.221    -6509502.26849  -5063579.14945  23136082.783    23136086.388
  20747531.165   -17986789.17349 -13992933.67248  20747530.284    20747533.038
  24291600.690     3990632.18349   3365075.68444  24291599.916    24291607.680
  20587066.458   -16956132.39149 -13203325.73848  20587065.961    20587070.455
  23930446.897     1397598.85949   1107269.12045  23930445.766    23930453.620
  23304097.971    -4232215.49949  -2873033.12145  23304096.430    23304104.139
  22999986.121    -6605007.42049  -4962776.06546  22999985.691    22999990.038
  21947488.742   -10559932.09149  -8218923.33247  21947488.500    21947493.368
 04  1 10  2 31 30.0000000  0  9G18G16G21G30G 6G17G15G29G26
  21088048.959   -17518660.56749 -11945751.21248  21088048.138    21088051.617
  23131245.997    -6534923.86349  -5083388.17946  23131245.332    23131248.915
  20743735.454   -18006735.51749 -14008476.26248  20743734.621    20743737.324
  24311352.040     4094425.92449   3445953.95044  24311351.362    24311358.865
  20594187.030   -16918713.70249 -13174168.32948  20594186.551    20594191.024
  23943883.957     1468209.96449   1162290.73844  23943882.576    23943890.363
  23290231.932    -4305081.50549  -2929811.77145  23290230.658    23290238.253
  23002937.128    -6589499.75849  -4950692.14746  23002936.698    23002940.980
  21943201.484   -10582461.71549  -8236478.85747  21943201.238    21943206.162
 04  1 10  2 32  0.0000000  0  9G18G16G21G30G 6G17G15G29G26
  21076932.433   -17577078.34449 -11991271.54748  21076931.624    21076935.035
  23126511.562    -6559803.56549  -5102774.93046  23126510.959    23126514.728
  20739976.946   -18026486.97249 -14023867.00348  20739976.024    20739978.760
  24331090.619     4198152.03249   3526779.42944  24331089.259    24331097.542
  20601394.811   -16880836.74849 -13144653.83448  20601394.331    20601398.787
  23957330.474     1538872.33349   1217352.26044  23957328.796    23957337.027
  23276381.942    -4377865.44249  -2986526.47945  23276380.607    23276387.654
  23005990.877    -6573452.03649  -4938187.42146  23005990.424    23005994.734
  21939031.109   -10604377.03949  -8253555.73647  21939030.895    21939035.839
 04  1 10  2 32 30.0000000  0  9G18G16G21G30G 6G17G15G29G26
  21065897.466   -17635067.40249 -12036457.80748  21065896.653    21065899.989
  23121881.638    -6584134.32049  -5121733.95146  23121880.965    23121884.793
  20736256.569   -18046036.97649 -14039100.77048  20736255.699    20736258.527
  24350816.264     4301814.32149   3607555.19544  24350815.252    24350823.497
  20608690.953   -16842495.22749 -13114777.34148  20608690.490    20608694.954
  23970788.307     1609592.04248   1272458.51744  23970786.729    23970794.086
  23262548.574    -4450561.23749  -3043172.48045  23262547.223    23262554.274
  23009148.494    -6556858.28449  -4925257.22846  23009148.078    23009152.381
  21934979.190   -10625670.15549  -8270147.76447  21934978.910    21934983.889
 04  1 10  2 33  0.0000000  0  9G18G16G21G30G 6G17G15G29G26
  21054944.430   -17692626.23049 -12081308.83248  21054943.616    21054946.876
  23117356.227    -6607915.38149  -5140264.62746  23117355.657    23117359.561
  20732574.776   -18065385.06649 -14054177.19248  20732573.908    20732576.705
  24370529.674     4405410.41549   3688279.40944  24370529.105    24370536.981
  20616075.586   -16803688.86049 -13084538.62348  20616075.128    20616079.565
  23984255.696     1680369.58648   1327609.77344  23984254.878    23984262.394
  23248731.850    -4523168.30249  -3099749.36245  23248730.738    23248737.553
  23012410.214    -6539718.03349  -4911901.17946  23012409.751    23012414.193
  21931045.916   -10646339.10149  -8286253.42547  21931045.733    21931050.679
 04  1 10  2 33 30.0000000  0  9G18G16G21G30G 6G17G15G29G26
  21044072.801   -17749757.05049 -12125826.33748  21044071.962    21044075.213
  23112935.129    -6631149.73249  -5158369.29746  23112934.419    23112938.368
  20728930.808   -18084534.29349 -14069098.65548  20728929.940    20728932.713
  24390229.512     4508934.55448   3768947.53644  24390228.927    24390236.528
  20623547.960   -16764421.27549 -13053940.51248  20623547.535    20623551.931
  23997734.630     1751201.62548   1382803.48744  23997733.823    23997741.340
  23234931.503    -4595689.94149  -3156259.67545  23234930.552    23234937.067
  23015775.192    -6522034.95549  -4898122.14946  23015774.840    23015779.359
  21927231.255   -10666385.74149  -8301874.16247  21927230.974    21927235.849
 04  1 10  2 34  0.0000000  0  9G18G16G21G30G 6G17G15G29G26
  21033282.768   -17806458.66849 -12170009.40548  21033281.962    21033285.266
  23108617.850    -6653836.64249  -5176047.39246  23108617.267    23108621.383
  20725324.668   -18103484.21649 -14083864.82148  20725323.837    20725326.631
  24409915.096     4612384.19848   3849557.57844  24409913.881    24409922.444
  20631108.177   -16724692.48549 -13022983.03448  20631107.711    20631112.080
  24011223.879     1822088.41748   1438039.84344  24011223.206    24011230.182
  23221147.579    -4668125.87249  -3212703.16545  23221146.524    23221152.649
  23019243.547    -6503809.00349  -4883920.10146  23019243.160    23019247.775
  21923535.163   -10685808.42649  -8317008.70947  21923534.922    21923539.804
 04  1 10  2 34 30.0000000  0  9G18G16G21G30G 6G17G15G29G26
  21022574.539   -17862730.63549 -12213857.67948  21022573.745    21022577.084
  23104404.885    -6675975.66049  -5193298.55946  23104404.314    23104408.678
  20721756.460   -18122234.91849 -14098475.75648  20721755.677    20721758.428
  24429585.300     4715757.15048   3930107.95744  24429584.259    24429593.553
  20638756.122   -16684502.47149 -12991666.14348  20638755.627    20638760.004
  24024724.053     1893029.74349   1493318.78844  24024723.638    24024730.291
  23207379.834    -4740475.82149  -3269079.69345  23207378.776    23207384.735
  23022815.171    -6485040.26049  -4869295.10346  23022814.797    23022819.451
  21919958.397   -10704605.41249  -8331655.68947  21919958.049    21919962.775
 04  1 10  2 35  0.0000000  0  9G18G16G21G30G 6G17G15G29G26
  21011948.047   -17918572.82649 -12257371.06148  21011947.272    21011950.625
  23100296.350    -6697566.97749  -5210122.94046  23100295.668    23100300.098
  20718226.160   -18140787.06849 -14112931.96448  20718225.311    20718228.077
  24449241.349     4819051.02648   4010596.79744  24449240.354
  20646491.671   -16643852.09149 -12959990.53248  20646491.172    20646495.562
  24038234.560     1964025.49449   1548640.10145  24038234.106    24038240.502
  23193628.507    -4812740.48149  -3325389.75045  23193627.416    23193633.273
  23026490.028    -6465729.47549  -4854247.73046  23026489.553    23026494.121
  21916500.596   -10722776.05349  -8345814.60047  21916500.263    21916504.989
 04  1 10  2 35 30.0000000  0  9G18G16G21G30G 6G17G15G29G26
  21001404.046   -17973982.14449 -12300547.13848  21001403.211    21001406.548
  23096292.509    -6718608.10849  -5226518.61046  23096291.750    23096296.112
  20714733.917   -18159138.21049 -14127231.55648  20714733.109    20714735.949
  24468881.204     4922263.51458   4091022.36944  24468880.437    24468890.292
  20654315.107   -16602739.55249 -12927954.80348  20654314.625    20654319.046
  24051755.306     2035077.40049   1604005.13245  24051754.877    24051761.213
  23179893.848    -4884917.60149  -3381631.60045  23179892.684    23179898.367
  23030268.218    -6445875.07049  -4838776.75746  23030267.757    23030272.300
  21913162.607   -10740316.95949  -8359482.82647  21913162.333    21913167.023
 04  1 10  2 36  0.0000000  0  9G18G16G21G30G 6G17G15G29G26
  20990942.256   -18028958.55249 -12343385.88748  20990941.484    20990944.805
  23092393.001    -6739099.52449  -5242485.92246  23092392.329    23092396.689
  20711279.834   -18177289.29049 -14141375.24748  20711279.030    20711281.885
  24488505.271     5025392.09048   4171382.23344  24488505.818    24488515.522
  20662226.298   -16561165.98249 -12895559.82248  20662225.799    20662230.296
  24065286.983     2106184.56249   1659413.32445  24065286.418    24065292.335
  23166175.303    -4957007.92349  -3437805.81545  23166174.291    23166179.994
  23034149.528    -6425478.21549  -4822883.09346  23034149.150    23034153.667
  21909944.740   -10757227.43549  -8372659.80247  21909944.381    21909949.045
 04  1 10  2 36 30.0000000  0  9G18G16G21G30G 6G17G15G29G26
  20980563.154   -18083500.86949 -12385886.38348  20980562.389    20980565.718
  23088598.502    -6759040.22549  -5258024.11846  23088597.817    23088602.059
  20707863.985   -18195239.74549 -14155362.61348  20707863.165    20707866.010
  24508113.407     5128434.85048   4251675.18444  24508114.382    24508123.449
  20670225.250   -16519131.15349 -12862805.41948  20670224.761    20670229.300
  24078828.914     2177347.71549   1714865.14545  24078828.284    24078834.756
  23152473.511    -5029010.84949  -3493911.92545  23152472.497    23152478.230
  23038134.194    -6404538.65449  -4806566.55146  23038133.832    23038138.379
  21906846.985   -10773505.70949  -8385344.15547  21906846.666    21906851.308
 04  1 10  2 37  0.0000000  0  9G18G16G21G30G 6G17G15G29G26
  20970266.096   -18137612.33049 -12428051.14148  20970265.317    20970268.637
  23084908.057    -6778434.14149  -5273136.26446  23084907.292    23084911.537
  20704485.726   -18212992.77149 -14169196.13048  20704484.873    20704487.698
  24527704.200     5231384.55158   4331895.78544  24527704.767
  20678311.189   -16476639.36049 -12829694.93748  20678310.693    20678315.247
  24092380.899     2248562.78049   1770357.28545  24092380.341    24092386.560
  23138787.802    -5100930.25449  -3549952.95645  23138786.781    23138792.422
  23042221.264    -6383060.62649  -4789830.41846  23042220.922    23042225.500
  21903868.926   -10789154.39249  -8397537.92647  21903868.677    21903873.445
 04  1 10  2 37 30.0000000  0  9G18G16G21G30G 6G17G15G29G26
  20960052.249   -18191286.29649 -12469874.98648  20960051.468    20960054.836
  23081322.722    -6797275.26849  -5287817.64046  23081321.934    23081326.181
  20701145.929   -18230543.03349 -14182871.65648  20701145.106    20701147.997
  24547278.076     5334245.12958   4412046.50444  24547277.953    24547288.701
  20686485.164   -16433685.07249 -12796224.07848  20686484.625    20686489.192
  24105944.068     2319835.59749   1825894.49345  24105943.412    24105949.305
  23125118.956    -5172760.21449  -3605924.27145  23125117.894    23125123.454
  23046411.897    -6361038.58349  -4772670.37846  23046411.531    23046416.149
  21901012.095   -10804166.37249  -8409235.55547  21901011.836    21901016.756
 04  1 10  2 38  0.0000000  0  9G18G16G21G30G 6G17G15G29G26
  20949921.370   -18244524.20349 -12511359.05448  20949920.622    20949923.993
  23077842.107    -6815565.22949  -5302069.53446  23077841.373    23077845.664
  20697844.416   -18247892.08549 -14196390.39348  20697843.621    20697846.558
  24566833.587     5437012.80448   4492125.28244  24566834.814    24566842.824
  20694746.671   -16390270.67949 -12762394.70448  20694746.145    20694750.721
  24119517.489     2391164.24949   1881475.31045  24119516.806    24119523.311
  23111466.824    -5244502.58249  -3661827.36445  23111465.786    23111471.169
  23050705.604    -6338475.13549  -4755088.47546  23050705.209    23050709.859
  21898276.272   -10818542.31249  -8420437.57447  21898276.069    21898281.028
 04  1 10  2 38 30.0000000  0  9G18G16G21G30G 6G17G15G29G26
  20939873.000   -18297328.76549 -12552505.44148  20939872.258    20939875.625
  23074466.056    -6833307.27649  -5315894.49646  23074465.230    23074469.323
  20694580.510   -18265043.65249 -14209755.23948  20694579.731    20694582.715
  24586370.445     5539680.93958   4572126.47144  24586372.469    24586380.085
  20703094.999   -16346399.98149 -12728209.74848  20703094.486    20703099.055
  24133101.166     2462545.20449   1937096.80945  24133100.311    24133107.126
  23097830.761    -5316160.77649  -3717664.83245  23097829.545    23097834.800
  23055101.681    -6315374.06749  -4737087.63446  23055101.236    23055105.690
  21895661.182   -10832284.65949  -8431145.87747  21895660.940    21895665.946
 04  1 10  2 39  0.0000000  0  9G18G16G21G30G 6G17G15G29G26
  20929908.165   -18349694.62949 -12593309.99548  20929907.377    20929910.720
  23071194.869    -6850496.65249  -5329288.80446  23071194.065    23071198.201
  20691355.124   -18281993.10149 -14222962.59948  20691354.354    20691357.338
  24605889.034     5642251.35448   4652051.48044  24605891.015    24605899.040
  20711530.957   -16302068.70849 -12693665.91648  20711530.426    20711535.009
  24146695.555     2533983.15349   1992762.64645  24146694.852    24146700.955
  23084211.338    -5387730.17549  -3773433.13845  23084210.344    23084215.266
  23059600.644    -6291731.26849  -4718664.67246  23059600.271    23059604.556
  21893167.773   -10845387.66349  -8441355.99347  21893167.515    21893172.409
 04  1 10  2 39 30.0000000  0  9G18G16G21G30G 6G17G15G29G26
  20920026.290   -18401624.72949 -12633774.98648  20920025.458    20920028.802
  23068028.391    -6867136.70249  -5342255.06345  23068027.478    23068031.575
  20688167.678   -18298743.13449 -14236014.56848  20688166.890    20688169.883
  24625388.705     5744718.42759   4731895.92744  24625389.877    24625398.619
  20720053.804   -16257280.73849 -12658766.21248  20720053.326    20720057.908
  24160300.011     2605474.49249   2048470.15544  24160299.353    24160305.024
  23070608.231    -5459213.88949  -3829134.64745  23070607.341    23070612.189
  23064202.182    -6267550.65249  -4699822.62146  23064201.755    23064205.879
  21890795.652   -10857853.46549  -8451069.59147  21890795.328    21890800.183
 04  1 10  2 40  0.0000000  0  9G18G16G21G30G 6G17G15G29G26
  20910227.598   -18453117.25749 -12673899.01148  20910226.751    20910230.099
  23064966.520    -6883225.98449  -5354792.14945  23064965.697    23064969.858
  20685018.445   -18315292.73349 -14248910.34948  20685017.630    20685020.610
  24644868.682     5847080.69649   4811658.84044  24644869.183    24644877.665
  20728663.786   -16212035.31849 -12623510.05548  20728663.295    20728667.860
  24173915.105     2677020.64849   2104220.49345  24173914.317    24173919.798
  23057021.960    -5530610.75749  -3884768.51745  23057020.847    23057025.736
  23068906.251    -6242831.63149  -4680561.03146  23068905.719    23068909.738
  21888545.170   -10869679.91349  -8460284.98647  21888544.836    21888549.624
 04  1 10  2 40 30.0000000  0  8G18G16G21G 6G17G15G29G26
  20900512.773   -18504168.57349 -12713679.24748  20900512.007    20900515.360
  23062010.210    -6898761.27349  -5366897.55945  23062009.303    23062013.511
  20681907.925   -18331638.58649 -14261647.37548  20681907.114    20681910.105
  20737361.238   -16166329.74549 -12587895.33848  20737360.784    20737365.350
  24187540.875     2748624.70249   2160015.78645  24187540.135    24187545.434
  23043452.521    -5601917.65949  -3940332.27045  23043451.342    23043456.573
  23073713.072    -6217571.42849  -4660877.74846  23073712.611    23073716.527
  21886417.143   -10880862.76549  -8468998.88747  21886416.799    21886421.507
 04  1 10  2 41  0.0000000  0  8G18G16G21G 6G17G15G29G26
  20890881.476   -18554781.61449 -12753117.95948  20890880.704    20890884.015
  23059158.778    -6913746.10349  -5378574.03345  23059157.907    23059161.804
  20678835.520   -18347784.15949 -14274228.33748  20678834.711    20678837.716
  20746145.580   -16120167.99949 -12551925.15648  20746145.113    20746149.663
  24201176.962     2820283.06549   2215853.37545  24201176.342    24201181.316
  23029899.546    -5673137.95149  -3995828.54045  23029898.473    23029903.483
  23078622.239    -6191774.13649  -4640775.95046  23078621.713    23078625.516
  21884411.087   -10891404.37249  -8477213.11347  21884410.778    21884415.502
 04  1 10  2 41 30.0000000  0  8G18G16G21G 6G17G15G29G26
  20881333.707   -18604955.75549 -12792214.66648  20881332.864    20881336.191
  23056411.887    -6928180.74949  -5389821.78645  23056411.099    23056414.868
  20675801.073   -18363730.01149 -14286653.67048  20675800.281    20675803.331
  20755016.544   -16073550.97049 -12515600.20348  20755016.081    20755020.604
  24214823.603     2891995.35149   2271733.09944  24214822.836    24214827.097
  23016363.018    -5744271.97549  -4051257.57045  23016361.874    23016367.083
  23083633.320    -6165440.70949  -4620256.39346  23083632.784    23083636.627
  21882527.259   -10901304.23549  -8484927.27547  21882526.952    21882531.537
 04  1 10  2 42  0.0000000  0  8G18G16G21G 6G17G15G29G26
  20871870.050   -18654687.31049 -12830966.51548  20871869.246    20871872.593
  23053770.636    -6942061.72549  -5400638.13445  23053769.648    23053773.354
  20672805.402   -18379472.21049 -14298920.31948  20672804.625    20672807.679
  20763974.695   -16026475.75549 -12478918.23548  20763974.220    20763978.714
  24228481.243     2963765.10249   2327657.59944  24228480.084    24228483.494
  23002843.731    -5815316.04149  -4106616.53545  23002842.603    23002847.883
  23088746.856    -6138568.54249  -4599317.05346  23088746.364    23088750.358
  21880766.351   -10910557.96249  -8492137.95947  21880766.061    21880770.536
 04  1 10  2 42 30.0000000  0  8G18G16G21G 6G17G15G29G26
  20862490.303   -18703978.10749 -12869374.91048  20862489.539    20862492.901
  23051233.619    -6955391.28249  -5411024.77345  23051232.934    23051236.751
  20669848.138   -18395012.64649 -14311029.73948  20669847.362    20669850.392
  20773019.560   -15978944.89049 -12441881.21048  20773019.108    20773023.572
  24242149.127     3035590.04749   2383624.95945  24242147.949    24242151.295
  22989341.147    -5886272.35349  -4161907.10745  22989339.991    22989345.518
  23093962.400    -6111160.34749  -4577960.01446  23093961.933    23093965.991
  21879128.149   -10919166.66649  -8498846.03447  21879127.855    21879132.251
 04  1 10  2 43  0.0000000  0  8G18G16G21G 6G17G15G29G26
  20853194.833   -18752826.23249 -12907438.36248  20853194.014    20853197.402
  23048802.285    -6968168.39249  -5420980.94745  23048801.447    23048805.364
  20666929.490   -18410350.51649 -14322981.31748  20666928.703    20666931.682
  20782151.224   -15930957.96749 -12404488.81848  20782150.746    20782155.180
  24255828.055     3107471.29049   2439636.26545  24255826.751    24255829.846
  22975855.589    -5957139.81249  -4217128.42945  22975854.556    22975860.054
  23099280.192    -6083215.51949  -4556184.81946  23099279.681    23099283.519
  21877613.013   -10927128.49749  -8505050.04347  21877612.774    21877617.100
 04  1 10  2 43 30.0000000  0  8G18G16G21G 6G17G15G29G26
  20843983.006   -18801234.65449 -12945159.19348  20843982.142    20843985.561
  23046475.556    -6980396.69649  -5430509.49445  23046474.499    23046478.350
  20664048.765   -18425489.20149 -14334777.69348  20664047.947    20664050.897
  20791368.858   -15882518.98849 -12366744.17948  20791368.365    20791372.849
  24269516.512     3179405.49949   2495688.89544  24269515.524    24269518.698
  22962386.473    -6027921.70749  -4272283.09945  22962385.321    22962390.713
  23104699.160    -6054738.51049  -4533994.94146  23104698.640    23104702.405
  21876220.566   -10934446.01349  -8510752.00547  21876220.368    21876224.546
 04  1 10  2 44  0.0000000  0  8G18G16G21G 6G17G15G29G26
  20834855.359   -18849200.27849 -12982534.98148  20834854.530    20834857.990
  23044253.217    -6992073.23949  -5439608.09545  23044252.406    23044256.342
  20661206.497   -18440425.27049 -14346416.17648  20661205.675    20661208.664
  20800672.985   -15833625.51249 -12328645.37648  20800672.474    20800677.017
  24283215.198     3251395.24749   2551784.81644  24283214.709    24283217.424
  22948934.027    -6098614.85749  -4327368.60945  22948932.954    22948938.449
  23110219.875    -6025726.98549  -4511388.53846  23110219.308    23110223.087
  21874951.522   -10941115.38249  -8515948.88847  21874951.276    21874955.335
 04  1 10  2 44 30.0000000  0  8G18G16G21G 6G17G15G29G26
  20825812.310   -18896721.42649 -13019564.43448  20825811.501    20825815.019
  23042136.273    -7003197.11649  -5448276.03445  23042135.372    23042139.542
  20658403.015   -18455157.67449 -14357895.96748  20658402.196    20658405.241
  20810063.640   -15784277.14749 -12290192.12347  20810063.123    20810067.664
  24296925.292     3323441.97549   2607925.07344  24296924.758    24296926.931
  22935498.884    -6169218.34849  -4382384.24346  22935497.845    22935503.290
  23115842.410    -5996180.49049  -4488365.30346  23115841.885    23115845.555
  21873806.045   -10947134.84749  -8520639.36747  21873805.799    21873809.770
 04  1 10  2 45  0.0000000  0  8G18G16G21G 6G17G15G29G26
  20816853.685   -18943799.33249 -13056248.49948  20816852.883    20816856.416
  23040124.253    -7013770.20849  -5456514.80045  23040123.314    23040127.494
  20655638.000   -18469687.90349 -14369218.21548  20655637.200    20655640.290
  20819540.432   -15734476.33049 -12251386.30447  20819539.902    20819544.466
  24310646.021     3395543.83949   2664108.23244  24310645.219    24310647.791
  22922080.466    -6239733.78149  -4437331.28546  22922079.314    22922084.790
  23121566.233    -5966101.76649  -4464927.33046  23121565.633    23121569.362
  21872783.979   -10952505.47349  -8524824.24947  21872783.737    21872787.768
 04  1 10  2 45 30.0000000  0  8G18G16G21G 6G17G15G29G26
  20807979.186   -18990434.99549 -13092587.96148  20807978.396    20807981.959
  23038216.979    -7023794.21149  -5464325.70545  23038215.975    23038220.204
  20652911.213   -18484017.47649 -14380384.10748  20652910.388    20652913.471
  20829102.900   -15684225.19149 -12212229.58447  20829102.353    20829106.951
  24324376.184     3467699.02648   2720333.12944                  24324374.898
  22908678.334    -6310162.60249  -4492210.84346  22908677.292    22908682.644
  23127390.906    -5935492.92249  -4441076.26646  23127390.281    23127394.120
  21871885.362   -10957227.72849  -8528503.91147  21871885.119    21871889.215
 04  1 10  2 46  0.0000000  0  8G18G16G21G 6G17G15G29G26
  20799189.758   -19036623.76949 -13128579.20748  20799188.931    20799192.504
  23036414.754    -7033264.80449  -5471705.38045  23036413.862    23036417.939
  20650223.398   -18498141.87949 -14391390.13548  20650222.598    20650225.699
  20838751.775   -15633519.91449 -12172718.99247  20838751.243    20838755.858
  24338117.790     3539912.44349   2776603.33844  24338116.424    24338119.869
  22895293.538    -6380500.13149  -4547019.27146  22895292.488    22895297.851
  23133317.063    -5904350.40749  -4416809.36546  23133316.468    23133320.377
  21871111.047   -10961296.73849  -8531674.55147  21871110.824    21871114.974
 04  1 10  2 46 30.0000000  0  8G18G16G21G 6G17G15G29G26
  20790485.024   -19082367.23549 -13164223.45148  20790484.227    20790487.778
  23034717.581    -7042184.34049  -5478655.66045  23034716.698    23034720.717
  20647574.325   -18512063.00949 -14402237.76248  20647573.532    20647576.631
  20848486.532   -15582363.19449 -12132856.62147  20848486.023    20848490.681
  24351870.330     3612181.73048   2832917.01144  24351868.842    24351872.835
  22881925.640    -6450748.38249  -4601758.12846  22881924.583    22881930.019
  23139344.175    -5872677.16849  -4392128.92046  23139343.635    23139347.629
  21870461.026   -10964713.81549  -8534337.18847  21870460.675    21870464.805
 04  1 10  2 47  0.0000000  0  7G18G16G21G 6G15G29G26
  20781864.933   -19127666.17949 -13199521.31048  20781864.115    20781867.635
  23033125.176    -7050554.08849  -5485177.54845  23033124.120    23033127.915
  20644963.850   -18525781.58049 -14412927.54948  20644963.009    20644966.118
  20858306.914   -15530756.73749 -12092643.80647  20858306.395    20858311.064
  22868574.704    -6520908.33849  -4656428.17546  22868573.636    22868578.904
  23145472.007    -5840475.00049  -4367036.31046  23145471.454    23145475.547
  21869934.663   -10967479.36249  -8536492.14547  21869934.419    21869938.566
 04  1 10  2 47 30.0000000  0  7G18G16G21G 6G15G29G26
  20773330.760   -19172513.42249 -13234467.19248  20773329.963    20773333.476
  23031638.335    -7058367.75949  -5491266.11246  23031637.408    23031641.114
  20642393.135   -18539290.82349 -14423454.21948  20642392.279    20642395.388
  20868213.931   -15478694.73149 -12052076.01447  20868213.437    20868218.089
  22855241.570    -6590973.27849  -4711024.21346  22855240.606    22855245.958
  23151701.573    -5807738.02649  -4341526.96646  23151701.140    23151705.126
  21869533.726   -10969586.16349  -8538133.79347  21869533.477    21869537.630
 04  1 10  2 48  0.0000000  0  7G18G16G21G 6G15G29G26
  20764880.888   -19216917.28049 -13269067.59348  20764880.123    20764883.664
  23030255.621    -7065633.97349  -5496928.08746  23030254.816    23030258.410
  20639860.588   -18552599.14549 -14433824.34048  20639859.752    20639862.852
  20878205.948   -15426186.34449 -12011160.40947  20878205.429    20878210.057
  22841925.342    -6660951.76049  -4765552.85446  22841924.234    22841929.386
  23158031.246    -5774476.05449  -4315608.54646  23158030.759    23158034.656
  21869256.736   -10971042.10549  -8539268.28847  21869256.439    21869260.568
 04  1 10  2 48 30.0000000  0  7G18G16G21G 6G15G29G26
  20756515.504   -19260877.14649 -13303322.01648  20756514.754    20756518.328
  23028977.341    -7072352.81049  -5502163.54646  23028976.411    23028979.897
  20637366.369   -18565706.22349 -14444037.63548  20637365.589    20637368.661
  20888282.878   -15373231.94449 -11969897.26047  20888282.313    20888286.907
  22828625.237    -6730843.34449  -4820013.82346  22828624.183    22828629.319
  23164460.615    -5740689.25949  -4289281.17046  23164460.168    23164463.977
  21869103.768   -10971846.17049  -8539894.81547  21869103.445    21869107.577
 04  1 10  2 49  0.0000000  0  7G18G16G21G 6G15G29G26
  20748235.192   -19304390.00749 -13337228.12148  20748234.456    20748238.061
  23027803.511    -7078522.00549  -5506970.69946  23027802.494    23027805.966
  20634911.076   -18578608.91249 -14454091.67448  20634910.239    20634913.339
  20898444.914   -15319829.73249 -11928285.15647  20898444.398    20898448.997
  22815342.493    -6800645.04749  -4874404.72346  22815341.468    22815346.398
  23170990.241    -5706376.25549  -4262543.75546  23170989.807    23170993.442
  21869075.324   -10971995.46349  -8540011.14747  21869075.054    21869079.235
 04  1 10  2 49 30.0000000  0  7G18G16G21G 6G15G29G26
  20740039.955   -19347456.35649 -13370786.30148  20740039.200    20740042.784
  23026733.674    -7084143.00349  -5511350.69546  23026732.944    23026736.418
  20632494.459   -18591308.23149 -14463987.24448  20632493.632    20632496.747
  20908691.988   -15265981.44849 -11886325.47947  20908691.394    20908695.993
  22802076.805    -6870357.42849  -4928726.03546  22802075.701    22802080.468
  23177619.622    -5671538.68949  -4235397.59746  23177619.188    23177622.732
  21869171.425   -10971490.31749  -8539617.51347  21869171.178    21869175.369
 04  1 10  2 50  0.0000000  0  7G18G16G21G 6G15G29G26
  20731930.289   -19390072.86449 -13403993.94748  20731929.504    20731933.093
  23025768.942    -7089212.77749  -5515301.15146  23025768.162    23025771.762
  20630117.248   -18603800.67249 -14473721.60648  20630116.378    20630119.541
  20919024.321   -15211684.38849 -11844016.09747  20919023.791    20919028.360
  22788828.578    -6939977.10149  -4982975.11246  22788827.474    22788832.166
  23184349.287    -5636174.21749  -4207840.86146  23184348.889    23184352.378
  21869392.791   -10970326.88549  -8538710.93247  21869392.565    21869396.800
 04  1 10  2 50 30.0000000  0  7G18G16G21G 6G15G29G26
  20723905.285   -19432243.90749 -13436854.48648  20723904.560    20723908.174
  23024908.459    -7093736.46549  -5518826.12746  23024907.538    23024910.985
  20627778.645   -18616090.53149 -14483298.11748  20627777.727    20627780.872
  20929441.092   -15156944.31249 -11801361.52647  20929440.530    20929445.076
  22775597.036    -7009509.03949  -5037155.81246  22775595.934    22775600.558
  23191178.075    -5600288.69549  -4179878.11646  23191177.662    23191181.185
  21869738.605   -10968509.68049  -8537294.92947  21869738.355    21869742.554
 04  1 10  2 51  0.0000000  0  7G18G16G21G 6G15G29G26
  20715965.080   -19473969.49049 -13469367.91248  20715964.357    20715968.046
  23024151.168    -7097714.68349  -5521926.01046  23024150.372    23024153.970
  20625478.451   -18628178.00249 -14492716.91248  20625477.529    20625480.689
  20939941.922   -15101762.16649 -11758362.46847  20939941.360    20939945.865
  22762382.177    -7078953.29349  -5091268.18646  22762380.952    22762385.710
  23198105.645    -5563883.51249  -4151510.42046  23198105.296    23198108.829
  21870208.846   -10966038.48649  -8535369.31047  21870208.580    21870212.767
 04  1 10  2 51 30.0000000  0  7G18G16G21G 6G15G29G26
  20708111.357   -19515240.78949 -13501527.35448  20708110.624    20708114.364
  23023499.225    -7101139.57249  -5524594.74946  23023498.594    23023502.279
  20623218.389   -18640054.61349 -14501971.40948  20623217.484    20623220.651
  20950528.340   -15046130.38649 -11715013.04747  20950527.781    20950532.258
  22749185.300    -7148301.28849  -5145305.57046  22749184.158    22749189.238
  23205133.629    -5526951.18349  -4122731.97646  23205133.231    23205136.762
  21870805.167   -10962904.56249  -8532927.28147  21870804.947    21870809.097
 04  1 10  2 52  0.0000000  0  7G18G16G21G 6G15G29G26
  20700342.373   -19556066.85049 -13533339.85348  20700341.652    20700345.391
  23022951.058    -7104020.60449  -5526839.70746  23022950.373    23022954.182
  20620996.834   -18651729.17649 -14511068.46548  20620995.892    20620999.059
  20961198.431   -14990058.85749 -11671320.97247  20961197.865    20961202.304
  22736005.217    -7217562.06149  -5199274.96146  22736004.093    22736009.337
  23212259.974    -5489501.87949  -4093550.70046  23212259.627    23212263.185
  21871526.009   -10959116.47249  -8529975.51747  21871525.758    21871529.910
 04  1 10  2 52 30.0000000  0  7G18G16G21G 6G15G29G26
  20692659.150   -19596442.52849 -13564801.40748  20692658.411    20692662.118
  23022507.346    -7106353.32349  -5528657.40046  23022506.550    23022510.353
  20618814.684   -18663196.44049 -14520003.98648  20618813.752    20618816.905
  20971952.903   -14933543.51349 -11627283.05347  20971952.399    20971956.847
  22722842.530    -7286730.56649  -5253172.46846  22722841.375    22722846.931
  23219485.480    -5451531.72349  -4063963.55446  23219485.085    23219488.605
  21872372.203   -10954669.15449  -8526510.06947  21872372.002    21872376.143
 04  1 10  2 53  0.0000000  0  7G18G16G21G 6G15G29G26
  20685061.240   -19636369.68549 -13595913.46348  20685060.491    20685064.184
  23022167.273    -7108140.62749  -5530050.10746  23022166.536    23022170.385
  20616671.519   -18674458.55849 -14528779.65548  20616670.636    20616673.774
  20982791.340   -14876587.50949 -11582901.76447  20982790.756    20982795.256
  22709697.016    -7355808.59449  -5306999.47446  22709696.025    22709701.830
  23226809.590    -5413043.95749  -4033973.07546  23226809.155    23226812.581
  21873343.549   -10949564.46849  -8522532.39447  21873343.389    21873347.522
 04  1 10  2 53 30.0000000  0  7G18G16G21G 6G15G29G26
  20677548.909   -19675846.98349 -13626674.98548  20677548.191    20677551.867
  23021931.072    -7109381.73649  -5531017.19646  23021930.419    23021934.183
  20614567.764   -18685513.72749 -14537394.07448  20614566.902    20614570.053
  20993713.592   -14819190.31249 -11538176.70547  20993713.075    20993717.635
  22696569.283    -7424794.44549  -5360754.64846  22696568.174    22696574.352
  23234231.979    -5374038.46249  -4003579.18746  23234231.526    23234235.150
  21874440.252   -10943800.82249  -8518041.23547  21874440.060    21874444.246
 04  1 10  2 54  0.0000000  0  7G18G16G21G 6G15G29G26
  20670122.691   -19714872.21149 -13657084.23748  20670121.972    20670125.600
  23021799.303    -7110075.07949  -5531557.45346  23021798.480    23021802.456
  20612503.755   -18696359.82749 -14545845.57448  20612502.911    20612506.090
  21004720.015   -14761350.93849 -11493107.08547  21004719.515    21004724.154
  22683459.200    -7493686.20249  -5414436.51546  22683458.239    22683464.545
  23241753.071    -5334514.20549  -3972781.04746  23241752.680    23241756.399
  21875662.908   -10937375.95449  -8513034.82947  21875662.664    21875666.796
 04  1 10  2 54 30.0000000  0  7G18G16G21G 6G15G29G26
  20662781.244   -19753451.75949 -13687146.21248  20662780.545    20662784.126
  23021770.324    -7110227.68549  -5531676.35246  23021769.511    23021773.460
  20610478.348   -18707003.05649 -14554139.00148  20610477.523    20610480.749
  21015809.219   -14703076.80049 -11447698.68747  21015808.698    21015813.422
  22670365.958    -7562490.31549  -5468050.07846  22670365.043    22670371.451
  23249371.452    -5294478.99449  -3941584.79146  23249371.025    23249374.868
  21877010.052   -10930296.21549  -8507518.14447  21877009.851    21877013.905
 04  1 10  2 55  0.0000000  0  7G18G16G21G 6G15G29G26
  20655525.697   -19791580.31749 -13716856.76848  20655524.938    20655528.491
  23021844.935    -7109835.32849  -5531370.61646  23021844.249    23021848.176
  20608492.473   -18717438.37149 -14562270.41748  20608491.708    20608494.985
  21026981.827   -14644363.85849 -11401948.36347  21026981.364    21026986.145
  22657290.613    -7631201.53749  -5521591.24446  22657289.565    22657296.041
  23257087.798    -5253928.94949  -3909987.34646  23257087.364    23257091.305
  21878482.866   -10922556.56549  -8501487.24247  21878482.592    21878486.641
 04  1 10  2 55 30.0000000  0  7G18G16G21G 6G15G29G26
  20648355.659   -19829259.25549 -13746216.96248  20648354.871    20648358.428
  23022023.117    -7108900.08149  -5530641.85946  23022022.315    23022026.074
  20606546.051   -18727666.86249 -14570240.65948  20606545.285    20606548.585
  21038237.586   -14585214.53849 -11355858.00747  21038237.112    21038241.892
  22644232.404    -7699821.02149  -5575060.95246  22644231.545    22644238.067
  23264901.584    -5212866.78949  -3877990.85746  23264901.114    23264905.140
  21880080.870   -10914158.27649  -8494943.10546  21880080.685    21880084.591
 04  1 10  2 56  0.0000000  0  7G18G16G21G 6G15G29G26
  20641271.497   -19866486.45849 -13775225.16048  20641270.756    20641274.316
  23022304.708    -7107420.65349  -5529489.05846  23022303.840    23022307.657
  20604639.459   -18737686.09349 -14578047.84848  20604638.685    20604642.005
  21049576.483   -14525627.77249 -11309426.77747  21049576.112    21049580.897
  22631192.544    -7768346.65249  -5628457.52346  22631191.512    22631197.855
  23272812.748    -5171291.82149  -3845594.76746  23272812.288    23272816.513
  21881804.613   -10905099.29749  -8487884.16346  21881804.422    21881808.309
 04  1 10  2 56 30.0000000  0  7G18G16G21G 6G15G29G26
  20634272.909   -19903264.21949 -13803883.14048  20634272.171    20634275.700
  23022689.248    -7105399.95949  -5527914.50846  23022688.395    23022692.232
  20602772.235   -18747498.18349 -14585693.63148  20602771.448    20602774.840
  21060998.189   -14465606.67249 -11262657.11047  21060997.785    21061002.528
  22618169.867    -7836780.42749  -5681782.51646  22618168.937    22618175.013
  23280820.762    -5129207.27649  -3812801.61846  23280820.394    23280824.987
  21883653.726   -10895381.70049  -8480312.00746  21883653.622    21883657.364
 04  1 10  2 57  0.0000000  0  7G18G16G21G 6G15G29G26
  20627360.161   -19939591.14049 -13832189.82348  20627359.386    20627362.878
  23023176.759    -7102837.53049  -5525917.80146  23023175.977    23023179.834
  20600944.604   -18757101.98449 -14593177.11048  20600943.883    20600947.308
  21072502.553   -14405151.11849 -11215548.90747  21072502.160    21072506.826
  22605165.051    -7905120.95249  -5735034.86146  22605164.060    22605170.052
  23288926.102    -5086613.27849  -3779611.47846  23288925.613    23288930.367
  21885628.375   -10885004.44549  -8472225.84446  21885628.265    21885632.062
 04  1 10  2 57 30.0000000  0  7G18G16G21G 6G15G29G26
  20620532.907   -19975468.60949 -13860146.27848  20620532.153    20620535.619
  23023767.377    -7099735.13849  -5523500.38246  23023766.438    23023770.371
  20599156.676   -18766497.89949 -14600498.58848  20599155.911    20599159.324
  21084089.246   -14344263.24149 -11168103.82947  21084088.849    21084093.414
  22592177.829    -7973369.25149  -5788215.30746  22592176.841    22592182.671
  23297127.644    -5043512.16849  -3746026.19146  23297127.205    23297132.181
  21887728.461   -10873968.56049  -8463626.43546  21887728.291    21887732.038
 04  1 10  2 58  0.0000000  0  7G18G16G21G 6G15G29G26
  20613791.445   -20010894.96049 -13887751.21048  20613790.710    20613794.177
  23024460.431    -7096092.24449  -5520661.74946  23024459.658    23024463.590
  20597408.525   -18775684.57349 -14607657.02548  20597407.731    20597411.152
  21095758.215   -14282942.82049 -11120321.70047  21095757.791    21095762.279
  22579208.459    -8041523.78949  -5841322.70146  22579207.540    22579213.113
  23305425.961    -4999904.05149  -3712045.84546  23305425.549    23305430.482
  21889954.108   -10862272.79949  -8454512.85346  21889953.930    21889957.553
 04  1 10  2 58 30.0000000  0  7G18G16G21G 6G15G29G26
  20607135.862   -20045870.04949 -13915004.51448  20607135.177    20607138.598
  23025256.446    -7091909.34649  -5517402.36046  23025255.647    23025259.495
  20595700.235   -18784661.65249 -14614652.15348  20595699.464    20595702.883
  21107509.326   -14221190.53349 -11072203.07247  21107508.915    21107513.404
  22566257.165    -8109584.00649  -5894356.61646  22566256.196    22566261.589
  23313820.612    -4955789.97449  -3677671.22446  23313820.218    23313825.094
  21892305.313   -10849916.91149  -8444884.88146  21892305.153    21892308.612
 04  1 10  2 59  0.0000000  0  7G18G16G21G 6G15G29G26
  20600565.537   -20080397.60849 -13941909.08048  20600564.836    20600568.228
  23026154.183    -7087191.22649  -5513725.89845  23026153.416    23026157.293
  20594031.208   -18793432.27749 -14621486.39748  20594030.419    20594033.913
  21119341.720   -14159011.37049 -11023751.79447  21119341.264    21119345.751
  22553323.121    -8177553.71949  -5947319.98546  22553322.100    22553327.407
  23322310.546    -4911175.06749  -3642906.35446  23322310.071    23322315.050
  21894781.446   -10836904.90349  -8434745.63746  21894781.318    21894784.600
 04  1 10  2 59 30.0000000  0  7G18G16G21G 6G15G29G26
  20594081.141   -20114473.49049 -13968461.69548  20594080.445    20594083.794
  23027154.640    -7081934.17249  -5509629.51045  23027153.794    23027157.681
  20592402.307   -18801991.90949 -14628156.24448  20592401.537    20592405.078
  21131255.890   -14096401.86149 -10974965.18147  21131255.466    21131260.006
  22540406.995    -8245428.05249  -6000209.05446  22540406.062    22540411.402
  23330896.344    -4866056.42849  -3607748.96846  23330895.907    23330900.879
  21897383.212   -10823232.38649  -8424091.72546  21897383.097    21897386.230
 04  1 10  3  0  0.0000000  0  7G18G16G21G 6G15G29G26
  20587682.707   -20148097.36149 -13994662.10148  20587682.014    20587685.372
  23028257.237    -7076139.24949  -5505114.01545  23028256.520    23028260.455
  20590813.617   -18810340.41449 -14634661.57048  20590812.857    20590816.429
  21143251.821   -14033363.24849 -10925844.20747  21143251.362    21143255.954
  22527509.197    -8313207.00149  -6053023.77946  22527508.221    22527513.481
  23339577.796    -4820435.26349  -3572200.01546  23339577.257    23339582.228
  21900110.687   -10808899.82349  -8412923.48346  21900110.499    21900113.509
 04  1 10  3  0 30.0000000  0  7G18G16G21G 6G15G29G26
  20581370.137   -20181270.28049 -14020511.11248  20581369.434    20581372.809
  23029462.033    -7069807.89549  -5500180.47445  23029461.295    23029465.259
  20589265.043   -18818478.06149 -14641002.59048  20589264.319    20589267.877
  21155329.021   -13969897.14349 -10876390.12147  21155328.561    21155333.232
  22514629.305    -8380890.94949  -6105764.49046  22514628.367    22514633.675
  23348354.449    -4774313.57749  -3536261.03046  23348354.031    23348358.855
  21902963.542   -10793907.77649  -8401241.35546  21902963.384    21902966.305
 04  1 10  3  1  0.0000000  0  7G18G16G21G 6G15G29G26
  20575142.822   -20213995.02349 -14046010.89648  20575142.076    20575145.472
  23030768.260    -7062943.81349  -5494831.85645  23030767.481    23030771.396
  20587756.234   -18826407.22049 -14647181.14548  20587755.493    20587758.990
  21167486.819   -13906007.49549 -10826606.00347  21167486.364    21167491.103
  22501767.139    -8448482.37149  -6158433.10146  22501766.191    22501771.498
  23357225.540    -4727695.70649  -3499935.40546  23357225.030    23357230.027
  21905941.349   -10778259.28349  -8389047.71746  21905941.192    21905944.117
 04  1 10  3  1 30.0000000  0  7G18G16G21G 6G15G29G26
  20569000.983   -20246270.37549 -14071160.50348  20569000.297    20569003.713
  23032175.790    -7055546.89249  -5489068.02145  23032175.027    23032178.806
  20586287.393   -18834126.72249 -14653196.32748  20586286.620    20586289.984
  21179725.166   -13841694.48449 -10776491.99147  21179724.722    21179729.519
  22488922.894    -8515980.09549  -6211028.70046  22488921.893    22488927.119
  23366191.036    -4680582.04549  -3463223.44746  23366190.652    23366195.412
  21909044.242   -10761953.71149  -8376342.05846  21909044.074    21909046.975
 04  1 10  3  2  0.0000000  0  7G18G16G21G 6G15G29G26
  20562945.635   -20278091.73249 -14095956.34448  20562944.899    20562948.297
  23033685.440    -7047613.29549  -5482886.00945  23033684.553    23033688.236
  20584859.405   -18841631.44649 -14659044.15048  20584858.579    20584861.820
  21192044.739   -13776954.54749 -10726045.30947  21192044.273    21192049.159
  22476097.274    -8583379.00649  -6263547.30746  22476096.382    22476101.510
  23375251.626    -4632969.23249  -3426122.53946  23375251.061    23375255.857
  21912273.062   -10744986.49449  -8363120.84246  21912272.859    21912275.834
 04  1 10  3  2 30.0000000  0  7G18G16G21G 6G15G29G26
  20556975.863   -20309462.97949 -14120401.46148  20556975.103    20556978.522
  23035296.256    -7039147.80349  -5476289.51945  23035295.557    23035298.924
  20583471.587   -18848924.85549 -14664727.32348  20583470.740    20583473.909
  21204444.623   -13711792.77449 -10675269.92347  21204444.149    21204449.068
  22463290.095    -8650682.64649  -6315991.67246  22463289.118    22463294.026
  23384406.036    -4584862.34649  -3388636.63446  23384405.573    23384410.277
  21915626.969   -10727361.81149  -8349387.31846  21915626.807    21915629.793
 04  1 10  3  3  0.0000000  0  7G18G16G21G 6G15G29G26
  20551091.739   -20340383.58149 -14144495.42848  20551091.036    20551094.517
  23037008.271    -7030150.60949  -5469278.73445  23037007.651    23037010.873
  20582124.114   -18856005.90949 -14670245.01948  20582123.263    20582126.410
  21216924.752   -13646209.50949 -10624166.11147  21216924.279    21216929.173
  22450501.113    -8717889.99649  -6368361.01946  22450500.102    22450504.889
  23393654.480    -4536262.43449  -3350766.56446  23393654.000    23393658.473
  21919106.078   -10709079.25149  -8335141.16046  21919105.879    21919108.886
 04  1 10  3  3 30.0000000  0  7G18G16G21G 6G15G29G26
  20545293.056   -20370855.67249 -14168239.90248  20545292.390    20545295.866
  23038820.989    -7020624.93049  -5461856.11845  23038820.197    23038823.263
  20580816.741   -18862876.44949 -14675598.67348  20580815.878    20580819.019
  21229484.459   -13580207.99049 -10572736.38647  21229483.964    21229488.871
  22437730.000    -8785002.80549  -6420656.68046  22437729.053    22437733.778
  23402996.169    -4487172.79649  -3312514.88646  23402995.593    23402999.855
  21922709.923   -10690141.31149  -8320384.30946  21922709.744    21922712.636
 04  1 10  3  4  0.0000000  0  7G18G16G21G 6G15G29G26
  20539580.042   -20400878.19049 -14191634.04948  20539579.315    20539582.766
  23040734.233    -7010570.29949  -5454021.35045  23040733.392    23040736.313
  20579549.744   -18869534.72149 -14680786.93648  20579548.875    20579551.980
  21242123.785   -13513788.00949 -10520980.57547  21242123.254    21242128.216
  22424977.336    -8852019.56249  -6472877.50046  22424976.312    22424980.930
  23412430.703    -4437593.92349  -3273881.99846  23412430.301    23412434.536
  21926438.672   -10670547.02649  -8305116.03047  21926438.442    21926441.216
 04  1 10  3  4 30.0000000  0  7G18G16G21G 6G15G29G26
  20533952.582   -20430450.57949 -14214677.46448  20533951.851    20533955.319
  23042747.943    -6999987.26749  -5445774.83645  23042747.227    23042749.709
  20578323.300   -18875979.82649 -14685809.10548  20578322.454    20578325.533
  21254842.602   -13446950.23649 -10468899.21347  21254842.059    21254847.026
  22412242.782    -8918939.39349  -6525022.80746  22412241.778    22412246.502
  23421958.525    -4387526.38049  -3234868.31746  23421958.036    23421962.230
  21930292.269   -10650296.10349  -8289336.09147  21930292.105    21930294.911
 04  1 10  3  5  0.0000000  0  7G18G16G21G 6G15G29G26
  20528411.089   -20459570.99749 -14237368.68448  20528410.387    20528413.863
                  -6988875.17449  -5437116.05845                  23044863.813
  20577137.868   -18882209.43449 -14690663.34648  20577137.024    20577140.053
  21267640.965   -13379694.14049 -10416491.88147  21267640.429    21267645.444
  22399527.063    -8985760.07349  -6577090.86646  22399526.091    22399531.097
  23431579.209    -4336969.97849  -3195473.71146  23431578.715    23431582.978
  21934271.126   -10629387.35449  -8273043.54447  21934270.930    21934273.716
 04  1 10  3  5 30.0000000  0  7G18G16G21G 6G15G29G26
  20522954.979   -20488243.02249 -14259710.50648  20522954.294    20522957.730
  23047076.985    -6977238.09349  -5428048.20645  23047076.211    23047077.985
  20575992.958   -18888226.30849 -14695351.81548  20575992.077    20575995.049
  21280518.120   -13312024.05949 -10363761.96847  21280517.604    21280522.650
  22386829.709    -9052484.49849  -6629083.89846  22386828.711    22386833.838
  23441291.949    -4285929.53749  -3155701.92546  23441291.491    23441295.732
  21938374.491   -10607824.31949  -8256241.17447  21938374.260    21938377.148
 04  1 10  3  6  0.0000000  0  7G18G16G21G 6G15G29G26
  20517584.541   -20516465.14849 -14281701.75748  20517583.822    20517587.211
  23049391.395    -6965075.65849  -5418570.98045  23049390.619    23049392.365
  20574888.844   -18894028.53349 -14699873.02448  20574887.961    20574890.910
  21293474.150   -13243939.55149 -10310709.12347  21293473.675    21293478.717
  22374150.985    -9119110.71749  -6681000.42046  22374149.989    22374155.258
  23451096.785    -4234404.80349  -3115552.77246  23451096.374    23451100.568
  21942602.554   -10585605.93649  -8238928.13047  21942602.372    21942605.325
 04  1 10  3  6 30.0000000  0  7G18G16G21G 6G15G29G26
  20512299.700   -20544236.97749 -14303342.12748  20512299.011    20512302.412
                  -6952388.27349  -5408684.71045                  23051806.528
  20573825.770   -18899615.22649 -14704226.29048  20573824.857    20573827.791
  21306508.932   -13175441.40149 -10257333.96447  21306508.461    21306513.495
  22361491.206    -9185637.97949  -6732839.81346  22361490.202    22361495.421
  23460993.562    -4182396.95149  -3075027.17346  23460993.103    23460997.278
  21946955.269   -10562732.15549  -8221104.40147  21946955.139    21946958.316
 04  1 10  3  7  0.0000000  0  7G18G16G21G 6G15G29G26
  20507100.011   -20571561.39949 -14324633.86548  20507099.331    20507102.721
  23054318.975    -6939180.00049  -5398392.56645  23054318.327    23054319.870
  20572803.166   -18904988.78949 -14708413.47648  20572802.236    20572805.192
  21319621.814   -13106533.38049 -10203639.41547  21319621.293    21319626.270
  22348849.937    -9252068.58849  -6784603.90746  22348848.863    22348854.094
  23470981.391    -4129910.10149  -3034128.31146  23470980.948    23470985.057
  21951432.125   -10539206.23149  -8202772.51147  21951432.000    21951435.327
 04  1 10  3  7 30.0000000  0  7G18G16G21G 6G15G29G26
  20501985.772   -20598437.20349 -14345576.03748  20501985.031    20501988.394
  23056931.821    -6925450.24749  -5387694.06545  23056931.069    23056932.410
  20571821.449   -18910147.38649 -14712433.16448  20571820.535    20571823.517
  21332812.682   -13037215.29249 -10149625.34447  21332812.151    21332817.137
  22336227.436    -9318400.62449  -6836291.18846  22336226.352    22336231.575
  23481060.295    -4076944.61849  -2992856.50046  23481059.861    23481064.059
  21956033.279   -10515027.22149  -8183931.71247  21956033.105    21956036.523
 04  1 10  3  8  0.0000000  0  7G18G16G21G 6G15G29G26
  20496956.850   -20624864.25749 -14366168.53448  20496956.103    20496959.496
  23059643.452    -6911200.15749  -5376590.09945  23059642.772    23059643.983
  20570880.811   -18915089.94849 -14716284.51348  20570879.906    20570882.922
  21346081.261   -12967488.33249 -10095292.67647  21346080.776    21346085.805
  22323623.711    -9384633.62949  -6887901.29746  22323622.608    22323627.974
  23491230.208    -4023501.69049  -2951212.65546  23491229.800    23491233.968
  21960758.561   -10490195.66849  -8164582.43947  21960758.374    21960761.832
 04  1 10  3  8 30.0000000  0  7G18G16G21G 6G15G29G26
  20492013.229   -20650842.97849 -14386411.68348  20492012.525    20492015.931
  23062453.962    -6896430.87049  -5365081.57345  23062453.285    23062454.641
  20569981.362   -18919816.34049 -14719967.42448  20569980.489    20569983.526
  21359427.449   -12897353.72749 -10040642.36447  21359426.966    21359432.101
  22311038.854    -9450767.12449  -6939433.87146  22311037.860    22311043.319
  23501490.603    -3969582.96149  -2909198.06146  23501490.167    23501494.343
  21965607.847   -10464712.07849  -8144725.09647  21965607.636    21965611.238
 04  1 10  3  9  0.0000000  0  7G18G16G21G 6G15G29G26
  20487154.935   -20676373.61849 -14406305.67448  20487154.168    20487157.631
  23065363.171    -6881143.47149  -5353169.33045  23065362.402    23065363.986
  20569123.160   -18924326.09349 -14723481.51448  20569122.283    20569125.345
  21372850.945   -12826812.70949  -9985675.35247  21372850.464    21372855.734
  22298473.063    -9516800.70449  -6990888.59346  22298472.059    22298477.477
  23511841.378    -3915189.97449  -2866813.92146  23511840.881    23511845.031
  21970581.060   -10438576.96349  -8124360.06247  21970580.834    21970584.598
 04  1 10  3  9 30.0000000  0  7G18G16G21G 6G15G29G26
  20482381.884   -20701456.09349 -14425850.43948  20482381.093    20482384.606
  23068370.617    -6865339.24749  -5340854.35845  23068369.839    23068371.582
  20568306.305   -18928618.70649 -14726826.39748  20568305.448    20568308.522
  21386351.504   -12755866.64649  -9930392.73547  21386351.037    21386356.419
  22285926.379    -9582733.97849  -7042265.14246  22285925.305    22285930.845
  23522282.003    -3860324.34649  -2824061.47346  23522281.543    23522285.576
  21975678.192   -10411791.04649  -8103487.91147  21975678.015    21975681.874
 04  1 10  3 10  0.0000000  0  7G18G16G21G 6G15G29G26
  20477693.707   -20726092.22549 -14445047.41948  20477692.938    20477696.489
  23071475.905    -6849021.10449  -5328138.92445  23071475.191    23071476.853
  20567530.585   -18932695.42849 -14730003.07348  20567529.705    20567532.767
  21399928.679   -12684518.51149  -9874796.81347  21399928.198    21399933.549
  22273398.394    -9648568.19349  -7093564.52346  22273397.418    22273403.160
  23532811.839    -3804989.37049  -2780943.33646  23532811.324    23532815.426
  21980898.651   -10384356.94349  -8082110.69247  21980898.471    21980902.411
 04  1 10  3 10 30.0000000  0  7G18G16G21G 6G15G29G26
  20473091.003   -20750279.56249 -14463894.68848  20473090.225    20473093.793
  23074679.410    -6832187.25249  -5315021.65545  23074678.623    23074680.262
  20566796.525   -18936552.69149 -14733008.74548  20566795.644    20566798.751
  21413582.688   -12612766.54949  -9818886.22347  21413582.195    21413587.509
  22260890.189    -9714299.77349  -7144783.91946  22260889.097    22260894.888
  23543431.223    -3749183.74049  -2737458.41846  23543430.793    23543434.776
  21986242.969   -10356272.02549  -8060226.33347  21986242.791    21986246.835
 04  1 10  3 11  0.0000000  0  7G18G16G21G 6G15G29G26
  20468572.722   -20774022.94749 -14482396.00848  20468571.953    20468575.526
  23077979.983    -6814843.63749  -5301507.17045  23077979.197    23077980.813
  20566103.458   -18940194.68749 -14735846.65348  20566102.604    20566105.717
  21427312.468   -12540616.56849  -9762665.49247  21427311.960    21427317.189
  22248400.465    -9779932.89749  -7195926.59446  22248399.474    22248405.336
  23554139.070    -3692913.57749  -2693611.54446  23554138.620    23554142.363
  21991710.112   -10327541.67649  -8037839.04747  21991709.916    21991714.054
 04  1 10  3 11 30.0000000  0  7G18G16G21G 6G15G29G26
  20464139.930   -20797317.17349 -14500547.35148  20464139.171    20464142.802
  23081378.326    -6796986.14149  -5287592.23845  23081377.455    23081379.374
  20565452.430   -18943615.68049 -14738512.36048  20565451.604    20565454.727
  21441118.668   -12468064.82649  -9706131.68647  21441118.143    21441123.315
  22235930.726    -9845461.99949  -7246988.21847  22235929.726    22235935.576
  23564935.959    -3636175.42349  -2649400.01546  23564935.356    23564939.158
  21997300.949   -10298161.42049  -8014945.33247  21997300.726    21997304.886
 04  1 10  3 12  0.0000000  0  7G18G16G21G 6G15G29G26
  20459791.600   -20820167.69349 -14518352.94448  20459790.861    20459794.529
  23084872.881    -6778621.17449  -5273281.89245  23084872.056    23084874.310
  20564842.596   -18946820.11049 -14741009.31748  20564841.786    20564844.897
  21455000.058   -12395117.94849  -9649289.97647  21454999.553    21455004.619
  22223479.821    -9910891.83349  -7297972.48146  22223478.826    22223484.600
  23575820.639    -3578976.06749  -2604829.06846  23575819.989    23575823.684
  22003014.247   -10268137.27249  -7991549.89647  22003014.110    22003018.330
 04  1 10  3 12 30.0000000  0  7G18G16G21G 6G15G29G26
  20455528.678   -20842569.46149 -14535808.85048  20455527.913    20455531.588
  23088465.039    -6759744.57449  -5258572.85545  23088464.199    23088466.520
  20564275.103   -18949801.95649 -14743332.83648  20564274.309    20564277.424
  21468957.456   -12321771.59649  -9592137.01347  21468956.970    21468961.949
  22211048.913    -9976216.41549  -7348874.75046  22211047.901    22211053.651
  23586793.770    -3521311.55249  -2559895.69746  23586793.003    23586796.703
  22008851.062   -10237464.61749  -7967649.13447  22008850.939    22008855.173
 04  1 10  3 13  0.0000000  0  7G18G16G21G 6G15G29G26
  20451350.058   -20864528.00449 -14552919.38848  20451349.306    20451352.963
  23092153.202    -6740363.10649  -5243470.42945  23092152.445    23092154.668
  20563749.057   -18952566.17449 -14745486.77148  20563748.293    20563751.434
  21482989.571   -12248032.52849  -9534678.02547  21482989.116    21482994.002
  22198637.106   -10041440.52949  -7399698.71947  22198636.114    22198641.879
  23597853.813    -3463189.13549  -2514605.51345  23597853.257    23597856.804
  22014810.164   -10206149.66049  -7943247.87347  22014809.984    22014814.254
 04  1 10  3 13 30.0000000  0  7G18G16G21G 6G15G29G26
  20447256.067   -20886042.01149 -14569683.53848  20447255.320    20447258.995
  23095937.703    -6720476.34549  -5227974.26345  23095936.887    23095938.974
  20563264.904   -18955110.80149 -14747469.59448  20563264.108    20563267.225
  21497096.583   -12173900.27549  -9476912.66047  21497096.100    21497100.884
  22186244.864   -10106561.77549  -7450442.53746  22186243.863    22186249.680
  23609001.193    -3404608.70649  -2468958.40945  23609000.739    23609004.137
  22020891.695   -10174191.49449  -7918345.40447  22020891.534    22020895.759
 04  1 10  3 14  0.0000000  0  7G18G16G21G 6G15G29G26
  20443247.386   -20907107.66849 -14586098.33248  20443246.635    20443250.305
  23099818.564    -6700081.37149  -5212082.08345  23099817.859    23099820.135
  20562823.442   -18957430.72649 -14749277.32248  20562822.614    20562825.720
  21511278.886   -12099371.93149  -9418838.66247  21511278.422    21511283.143
  22173873.038   -10171575.62949  -7501102.68847  22173872.148    22173877.888
  23620236.075    -3345567.75649  -2422952.49045  23620235.681    23620239.292
  22027096.297   -10141586.63849  -7892939.01647  22027096.099    22027100.272
 04  1 10  3 14 30.0000000  0  7G18G16G21G 6G15G29G26
  20439322.181   -20927734.72049 -14602171.34548  20439321.402    20439325.119
  23103793.940    -6679189.00449  -5195802.31345  23103793.357    23103795.927
  20562423.063   -18959534.90449 -14750916.93948  20562422.231    20562425.277
  21525534.505   -12024458.29049  -9360464.42247  21525534.053    21525538.740
  22161520.310   -10236490.79049  -7551685.91847  22161519.289    22161524.775
  23631556.666    -3286077.35149  -2376596.34045  23631556.274    23631560.037
  22033421.816   -10108345.47349  -7867036.81047  22033421.689    22033425.818
 04  1 10  3 15  0.0000000  0  8G18G16G21G 6G15G29G26G 2
  20435482.238   -20947913.60949 -14617895.14748  20435481.480    20435485.179
  23107865.890    -6657790.91849  -5179128.50745  23107865.228    23107867.843
  20562065.585   -18961413.22549 -14752380.57948  20562064.739    20562067.821
  21539864.983   -11949151.32149  -9301783.69447  21539864.502    21539869.197
  22149188.154   -10301297.29349  -7602184.48547  22149187.127    22149192.519
  23642964.592    -3226129.78649  -2329883.96246  23642964.076    23642967.679
  22039870.192   -10074459.42049  -7840632.07547  22039870.065    22039874.044
                  -1400402.56049  -1084377.06443                  24911991.902
 04  1 10  3 15 30.0000000  0  8G18G16G21G 6G15G29G26G 2
  20431726.118   -20967652.28749 -14633275.93348  20431725.361    20431729.051
  23112032.359    -6635896.18849  -5162067.69045  23112031.553    23112034.210
  20561749.747   -18963072.64549 -14753673.63648  20561748.917    20561752.037
  21554268.637   -11873459.82749  -9242803.34547  21554268.161    21554272.833
  22136875.204   -10366002.29949  -7652603.95947  22136874.141    22136879.578
  23654457.729    -3165734.14349  -2282822.42646  23654457.160    23654460.589
  22046439.670   -10039936.92749  -7813731.43347  22046439.537    22046443.349
  24907955.759    -1421585.38249  -1100883.15244  24907954.512    24907959.937
 04  1 10  3 16  0.0000000  0  8G18G16G21G 6G15G29G26G 2
  20428053.158   -20986953.52549 -14648315.85348  20428052.404    20428056.188
  23116292.643    -6613508.55249  -5144622.78245  23116291.795    23116294.153
  20561475.377   -18964514.46449 -14754797.11648  20561474.528    20561477.674
  21568744.737   -11797387.38549  -9183526.15147  21568744.269    21568748.910
  22124581.211   -10430607.31649  -7702945.51847  22124580.212    22124585.582
  23666035.166    -3104894.53049  -2235414.94146  23666034.615    23666038.030
  22053129.605   -10004781.14749  -7786337.30847  22053129.436    22053133.204
  24904004.492    -1442349.67149  -1117063.09645  24904002.168    24904009.041
 04  1 10  3 16 30.0000000  0  8G18G16G21G 6G15G29G26G 2
  20424465.629   -21005805.76649 -14663005.90548  20424464.927    20424468.699
  23120648.481    -6590617.68749  -5126785.77545  23120647.749    23120649.909
  20561244.696   -18965726.50849 -14755741.55148  20561243.857    20561247.037
  21583295.347   -11720923.63449  -9123944.03747  21583294.886    21583299.522
  22112308.721   -10495100.01849  -7753199.55547  22112307.698    22112313.035
  23677698.802    -3043600.98049  -2187653.74946  23677698.400    23677701.939
  22059942.071    -9968981.39049  -7758441.38847  22059941.930    22059945.650
  24900133.603    -1462683.60049  -1132907.70844  24900130.448    24900137.745
 04  1 10  3 17  0.0000000  0  8G18G16G21G 6G15G29G26G 2
  20420960.662   -21024224.48649 -14677358.14048  20420959.954    20420963.738
  23125096.802    -6567240.11849  -5108569.48645  23125096.180    23125098.365
  20561054.880   -18966723.66349 -14756518.55448  20561054.068    20561057.254
  21597917.242   -11644085.02149  -9064069.81747  21597916.793    21597921.466
  22100054.754   -10559494.95849  -7803377.42347  22100053.692    22100059.103
  23689445.951    -2981870.21149  -2139551.86346  23689445.498    23689449.111
  22066874.102    -9932553.67249  -7730056.14147  22066873.881    22066877.511
  24896343.423    -1482602.18649  -1148428.74144  24896342.459    24896346.145
 04  1 10  3 17 30.0000000  0  8G18G16G21G 6G15G29G26G 2
  20417540.872   -21042195.54149 -14691361.54548  20417540.131    20417543.946
  23129640.556    -6543362.78049  -5089963.78445  23129639.625    23129642.147
  20560908.991   -18967490.66849 -14757116.23048  20560908.149    20560911.317
  21612612.884   -11566858.84349  -9003893.60647  21612612.430    21612617.152
  22087822.122   -10623777.18749  -7853467.46547  22087821.150    22087826.520
  23701278.421    -2919689.72449  -2091099.54046  23701278.096    23701281.758
  22073928.014    -9895484.91049  -7701171.38547  22073927.878    22073931.379
  24892635.280    -1502090.84549  -1163614.70345  24892634.818    24892637.464
 04  1 10  3 18  0.0000000  0  8G18G16G21G 6G15G29G26G 2
  20414204.775   -21059726.52749 -14705022.05148  20414204.101    20414207.929
  23134277.502    -6518994.29849  -5070975.37845  23134276.863    23134279.401
  20560805.634   -18968033.90749 -14757539.52848  20560804.741    20560807.959
  21627380.669   -11489253.39149  -8943421.84047  21627380.226    21627385.038
  22075609.855   -10687953.09449  -7903474.64847  22075608.894    22075614.308
  23713194.896    -2857068.30849  -2042303.61646  23713194.597    23713198.404
  22081102.495    -9857783.04249  -7671793.29847  22081102.311    22081105.816
  24889007.117    -1521156.43149  -1178470.97645  24889006.618    24889009.355
 04  1 10  3 18 30.0000000  0  8G18G16G21G 6G15G29G26G 2
  20410952.446   -21076817.68349 -14718339.82148  20410951.752    20410955.585
  23139008.013    -6494136.07549  -5051605.32745  23139007.170    23139009.674
  20560744.871   -18968353.00249 -14757788.18448  20560743.983    20560747.225
  21642220.316   -11411270.25949  -8882655.79947  21642219.893    21642224.811
  22063418.039   -10752021.95649  -7953398.42347  22063417.044    22063422.374
  23725194.999    -2794007.77949  -1993165.55146  23725194.629    23725198.579
  22088397.281    -9819449.14249  -7641922.71446  22088397.031    22088400.534
  24885459.772    -1539798.77648  -1192997.49944  24885458.974    24885462.485
 04  1 10  3 19  0.0000000  0  8G18G16G21G 6G15G29G26G 2
  20407784.133   -21093467.15549 -14731313.41548  20407783.416    20407787.286
  23143831.552    -6468787.42049  -5031853.12845  23143830.700    23143833.123
  20560727.372   -18968444.66949 -14757859.61748  20560726.545    20560729.785
  21657132.099   -11332908.37849  -8821594.60747  21657131.670    21657136.682
  22051247.044   -10815980.88249  -8003236.52647  22051246.020    22051251.371
  23737278.791    -2730507.37249  -1943684.71946  23737278.374    23737282.439
  22095812.560    -9780481.99649  -7611558.67946  22095812.218    22095815.749
  24881992.972    -1558015.28748  -1207192.15144  24881992.574    24881996.722
 04  1 10  3 19 30.0000000  0  8G18G16G21G 6G15G29G26G 2
  20404699.680   -21109676.02349 -14743943.70348  20404698.991    20404702.869
  23148748.067    -6442950.44149  -5011720.44845  23148747.356    23148749.574
  20560753.278   -18968308.81549 -14757753.75548  20560752.447    20560755.660
  21672115.607   -11254169.77249  -8760239.87247  21672115.137    21672120.221
  22039096.887   -10879829.92549  -8052989.02247  22039095.921    22039101.369
  23749445.868    -2666569.63849  -1893863.09546  23749445.301    23749449.436
  22103347.731    -9740883.31349  -7580702.56746  22103347.471    22103351.110
  24878607.945    -1575806.21548  -1221055.23244  24878607.615    24878610.639
 04  1 10  3 20  0.0000000  0  8G18G16G21G 6G15G29G26G 2
  20401698.050   -21125450.06249 -14756235.15448  20401697.319    20401701.159
  23153756.118    -6416631.72249  -4991212.34545  23153755.609    23153757.971
  20560821.492   -18967950.46449 -14757474.51248  20560820.640    20560823.893
  21687169.443   -11175061.28449  -8698596.91247  21687169.005    21687174.153
  22026966.885   -10943573.63549  -8102659.42447  22026965.869    22026971.301
  23761694.547    -2602201.81749  -1843706.33746  23761694.032    23761698.265
  22111002.024    -9700659.64649  -7549359.43846  22111001.763    22111005.459
  24875301.883    -1593177.09748  -1234590.96344  24875301.428
 04  1 10  3 20 30.0000000  0  8G18G16G21G 6G15G29G26G 2
  20398779.622   -21140786.52349 -14768185.63748  20398778.879    20398782.722
  23158856.269    -6389830.19149  -4970328.04345  23158855.808    23158858.231
  20560932.677   -18967366.01549 -14757019.09648  20560931.873    20560935.117
  21702293.960   -11095581.46649  -8636664.60547  21702293.515    21702298.706
  22014857.501   -11007208.46649  -8152244.99947  22014856.562    22014861.922
  23774025.009    -2537402.65649  -1793213.50246  23774024.736    23774029.267
  22118775.436    -9659809.26349  -7517527.97046  22118775.221    22118779.097
  24872078.113    -1610124.55258  -1247796.82444  24872077.667    24872078.720
 04  1 10  3 21  0.0000000  0  7G18G16G21G 6G15G29G26
  20395945.520   -21155679.77949 -14779790.76248  20395944.791    20395948.647
  23164049.144    -6362541.16249  -4949063.85645  23164048.623    23164051.141
  20561088.395   -18966548.35049 -14756381.95148  20561087.555    20561090.767
  21717490.000   -11015725.60249  -8574439.26947  21717489.555    21717494.759
  22002770.253   -11070727.75749  -8201740.53747  22002769.290    22002774.622
  23786438.821    -2472167.93049  -1742381.24746  23786438.531    23786443.283
  22126669.050    -9618327.08949  -7485204.19146  22126668.886    22126672.943
 04  1 10  3 21 30.0000000  0  7G18G16G21G 6G15G29G26
  20393194.720   -21170135.68949 -14791055.09748  20393193.956    20393197.795
  23169333.623    -6334771.61249  -4927425.27245  23169333.064    23169335.657
  20561287.506   -18965502.35449 -14755566.89948  20561286.627    20561289.849
  21732756.239   -10935500.79849  -8511926.46847  21732755.737    21732760.955
  21990704.134   -11134136.13249  -8251149.64847  21990703.193    21990708.413
  23798934.175    -2406504.85349  -1691215.21146  23798933.891    23798938.583
  22134681.612    -9576219.80049  -7452393.30646  22134681.519    22134685.764
 04  1 10  3 22  0.0000000  0  7G18G16G21G 6G15G29G26
  20390526.553   -21184156.94349 -14801980.73248  20390525.803    20390529.626
  23174708.470    -6306525.34649  -4905415.18445  23174707.964    23174710.803
  20561529.711   -18964229.40849 -14754574.98948  20561528.860    20561532.097
  21748091.892   -10854910.37649  -8449128.77047  21748091.460    21748096.682
  21978658.782   -11197435.11549  -8300473.51647  21978657.812    21978662.947
  23811510.267    -2340417.38849  -1639718.49046  23811509.965    23811514.728
  22142812.537    -9533490.96949  -7419098.10446  22142812.480    22142816.824
 04  1 10  3 22 30.0000000  0  7G18G16G21G 6G15G29G26
  20387941.089   -21197743.44549 -14812567.61048  20387940.353    20387944.135
  23180173.653    -6277803.27249  -4883034.35745  23180173.161    23180176.581
  20561815.339   -18962728.16649 -14753405.18748  20561814.542    20561817.778
  21763497.040   -10773955.20649  -8386046.86247  21763496.595    21763501.845
  21966634.539   -11260623.17649  -8349710.95647  21966633.596    21966638.677
  23824166.860    -2273906.76449  -1587892.03046  23824166.483    23824171.314
  22151061.864    -9490141.06249  -7385318.94246  22151061.739    22151066.015
 04  1 10  3 23  0.0000000  0  7G18G16G21G 6G15G29G26
  20385437.865   -21210898.14649 -14822818.02148  20385437.146    20385440.894
  23185728.622    -6248609.93049  -4860286.30945  23185728.045    23185732.126
  20562144.075   -18961000.65549 -14752059.07848  20562143.254    20562146.498
  21778970.695   -10692639.82049  -8322684.24147  21778970.333    21778975.606
  21954630.883   -11323702.59749  -8398863.74747  21954629.926    21954635.049
  23836902.923    -2206977.58549  -1535739.44446  23836902.576    23836907.514
  22159428.595    -9446174.09149  -7351058.96146  22159428.397    22159432.740
 04  1 10  3 23 30.0000000  0  7G18G16G21G 6G15G29G26
  20383017.639   -21223616.48649 -14832728.41748  20383016.911    20383020.656
  23191374.074    -6218941.96249  -4837168.41445  23191373.595    23191377.736
  20562516.975   -18959041.39449 -14750532.38548  20562516.106    20562519.348
  21794513.663   -10610960.83149  -8259038.30447  21794513.263    21794518.570
  21942649.069   -11386667.55949  -8447927.35047  21942648.131    21942653.217
  23849719.303    -2139626.92249  -1483258.41046  23849718.864    23849723.870
  22167913.267    -9401586.76649  -7316315.58846  22167913.123    22167917.489
 04  1 10  3 24  0.0000000  0  7G18G16G21G 6G15G29G26
  20380679.319   -21235904.43149 -14842303.42048  20380678.610    20380682.331
  23197108.869    -6188805.99949  -4813685.82945  23197108.157    23197112.594
  20562933.008   -18956854.90649 -14748828.62648  20562932.138    20562935.408
  21810124.499   -10528924.73849  -8195114.08047  21810124.165    21810129.522
  21930688.182   -11449522.56349  -8496905.25147  21930687.181    21930692.287
  23862614.827    -2071861.56049  -1430454.22045  23862614.286    23862619.022
  22176514.777    -9356385.12249  -7281093.52446  22176514.678    22176519.056
 04  1 10  3 24 30.0000000  0  7G18G16G21G 6G15G29G26
  20378423.060   -21247761.32549 -14851542.56448  20378422.342    20378426.013
  23202932.113    -6158202.54649  -4789839.00745  23202931.386    23202936.341
  20563392.732   -18954438.89949 -14746946.03748  20563391.910    20563395.198
  21825803.425   -10446531.69449  -8130911.73547  21825803.031    21825808.416
  21918748.437   -11512265.55749  -8545795.89347  21918747.487    21918752.609
  23875588.873    -2003682.21249  -1377327.46845  23875588.414    23875593.087
  22185233.273    -9310569.36449  -7245392.93046  22185233.143    22185237.426
 04  1 10  3 25  0.0000000  0  7G18G16G21G 6G15G29G26
  20376248.998   -21259186.07949 -14860444.96448  20376248.257    20376251.937
  23208844.300    -6127132.15049  -4765628.33145  23208843.563    23208849.007
  20563896.544   -18951791.59249 -14744883.19748  20563895.711    20563898.966
  21841550.194   -10363782.03449  -8066431.49647  21841549.809    21841555.165
  21906830.455   -11574894.63149  -8594597.74947  21906829.508    21906834.675
  23888641.565    -1935089.46549  -1323878.59645  23888641.038    23888645.817
  22194068.687    -9264139.65349  -7209213.94646  22194068.456    22194072.705
 04  1 10  3 25 30.0000000  0  7G18G16G21G 6G15G29G26
  20374157.498   -21270176.89649 -14869009.23048  20374156.795    20374160.474
  23214845.548    -6095594.07249  -4741053.18045  23214844.948    23214850.563
  20564444.995   -18948909.73249 -14742637.59348  20564444.141    20564447.382
  21857365.068   -10280674.91149  -8001672.71947  21857364.661    21857369.946
  21894934.778   -11637406.44149  -8643308.23947  21894933.873    21894939.068
  23901772.965    -1866082.87149  -1270107.22445  23901772.607    23901777.032
  22203020.879    -9217095.07349  -7172555.81746  22203020.729    22203024.986
 04  1 10  3 26  0.0000000  0  7G18G16G21G 6G15G29G26
  20372147.099   -21280741.73549 -14877241.55748  20372146.387    20372150.022
  23220934.366    -6063597.00449  -4716120.41445  23220933.712    23220939.540
  20565036.800   -18945800.00349 -14740214.42748  20565035.942    20565039.158
  21873246.224   -10197219.18149  -7936642.29947  21873245.847    21873251.056
  21883060.220   -11699807.56949  -8691932.47447  21883059.254    21883064.444
  23914981.603    -1796671.88649  -1216020.72945  23914981.173    23914985.317
  22212088.476    -9169444.22949  -7135425.28646  22212088.371    22212092.690
 04  1 10  3 26 30.0000000  0  7G18G16G21G 6G15G29G26
  20370219.054   -21290873.75549 -14885136.64548  20370218.331    20370221.913
  23227111.342    -6031135.72449  -4690825.91945  23227110.924    23227116.867
  20565673.532   -18942454.24749 -14737607.35948  20565672.691    20565675.866
  21889194.955   -10113408.97549  -7871335.66947  21889194.506    21889199.636
  21871208.282   -11762089.94149  -8740464.18947  21871207.318    21871212.460
  23928268.107    -1726850.62649  -1161614.55045  23928267.744    23928271.871
  22221272.726    -9121181.30249  -7097817.80446  22221272.543    22221276.839
 04  1 10  3 27  0.0000000  0  7G18G16G21G 6G15G29G26
  20368372.114   -21300579.30549 -14892699.43348  20368371.440    20368374.967
  23233375.637    -5998217.73849  -4665175.52845  23233375.239    23233381.097
  20566354.226   -18938877.49149 -14734820.29048  20566353.340    20566356.500
  21905209.663   -10029251.65949  -7805758.55847  21905209.189    21905214.200
  21859378.043   -11824258.52249  -8788907.23247  21859377.078    21859382.137
  23941630.937    -1656627.08149  -1106894.93245  23941630.586    23941635.071
  22230571.927    -9072313.58049  -7059739.06146  22230571.815    22230576.013
 04  1 10  3 27 30.0000000  0  7G18G16G21G 6G15G29G26
  20366606.362   -21309858.66649 -14899930.11148  20366605.672    20366609.171
  23239726.753    -5964844.44049  -4639170.38545  23239726.252    23239731.857
  20567078.937   -18935068.89049 -14731852.56248  20567078.098    20567081.247
  21921290.210    -9944748.59049  -7739912.02547  21921289.697    21921294.510
  21847569.684   -11886312.07149  -8837260.63647  21847568.693    21847573.748
  23955070.005    -1586002.69249  -1051862.94645  23955069.830    23955074.223
  22239985.999    -9022842.15349  -7021189.89246  22239985.868    22239989.994
 04  1 10  3 28  0.0000000  0  7G18G16G21G 6G15G29G26
  20364922.336   -21318708.46949 -14906826.05148  20364921.638    20364925.097
  23246164.919    -5931014.09449  -4612809.10045  23246164.104    23246169.347
  20567848.627   -18931023.92049 -14728700.63648  20567847.785    20567850.979
  21937436.793    -9859897.77049  -7673794.52247  21937436.289    21937440.934
  21835784.047   -11948246.42449  -8885521.15247  21835783.042    21835787.973
  23968586.224    -1514975.95949   -996517.41945  23968586.014    23968589.850
  22249515.282    -8972765.01649  -6982168.74046  22249515.141    22249519.311
 04  1 10  3 28 30.0000000  0  7G18G16G21G 6G15G29G26
  20363318.770   -21327135.11749 -14913392.25148  20363318.088    20363321.527
  23252688.692    -5896734.00549  -4586097.34645  23252687.918    23252692.531
  20568662.330   -18926747.55549 -14725368.41148  20568661.512    20568664.706
  21953648.226    -9774706.50149  -7607411.73547  21953647.696    21953652.211
  21824020.095   -12010066.61949  -8933692.73047  21824019.076    21824023.944
  23982177.479    -1443554.70549   -940864.48645  23982177.223    23982180.610
  22259158.374    -8922089.48949  -6942681.32646  22259158.265    22259162.432
 04  1 10  3 29  0.0000000  0  8G18G16G21G 3G 6G15G29G26
  20361796.350   -21335135.65249 -14919626.42248  20361795.652    20361799.099
  23259298.291    -5862002.58249  -4559033.91445  23259297.502    23259301.704
  20569520.967   -18922235.48849 -14721852.51248  20569520.138    20569523.318
                  -1327933.42649  -1021235.70943
  21969924.700    -9689173.00749  -7540762.27847  21969924.178    21969928.592
  21812278.717   -12071768.18449  -8981771.85947  21812277.644    21812282.610
  23995843.822    -1371737.04249   -884902.68045  23995843.613    23995846.952
  22268915.727    -8870813.47049  -6902725.97646  22268915.680    22268919.937
 04  1 10  3 29 30.0000000  0  8G18G16G21G 3G 6G15G29G26
  20360354.576   -21342712.23149 -14925530.24748  20360353.880    20360357.325
  23265992.751    -5826823.02649  -4531621.26745  23265992.208    23265995.965
  20570424.306   -18917488.21149 -14718153.34448  20570423.462    20570426.675
                  -1423164.26549  -1095441.35244                  23905379.960
  21986265.711    -9603299.97949  -7473848.25147  21986265.305    21986269.636
  21800559.754   -12133351.48349  -9029758.84247  21800558.727    21800563.695
  24009584.633    -1299526.51149   -828634.74445  24009584.691    24009587.838
  22278787.020    -8818939.94249  -6862305.06046  22278786.827    22278791.119
 04  1 10  3 30  0.0000000  0  8G18G16G21G 3G 6G15G29G26
  20358993.716   -21349863.41449 -14931102.58448  20358993.052    20358996.504
  23272772.745    -5791195.31949  -4503859.43545  23272772.015    23272775.859
  20571372.841   -18912503.18849 -14714268.91548  20571372.026    20571375.290
  23887294.448    -1518190.03149  -1169487.38345  23887292.741    23887295.047
  22002671.514    -9517087.21549  -7406669.50447  22002671.088    22002675.370
  21788863.863   -12194813.80549  -9077651.55047  21788862.814    21788867.784
  24023400.423    -1226922.97049   -772060.56145  24023400.686    24023403.458
  22288771.912    -8766468.60749  -6821418.30646  22288771.814    22288776.102
 04  1 10  3 30 30.0000000  0  8G18G16G21G 3G 6G15G29G26
  20357712.756   -21356595.08149 -14936348.01948  20357712.059    20357715.498
  23279636.786    -5755126.54649  -4475753.91445  23279635.923    23279639.587
  20572365.900   -18907284.92149 -14710202.74548  20572365.088    20572368.335
  23869249.601    -1613013.60949  -1243375.82945  23869249.093    23869252.326
  22019140.575    -9430541.63349  -7339231.40647  22019140.236    22019144.455
  21777190.136   -12256159.66349  -9125453.50447  21777189.056    21777194.042
  24037289.776    -1153933.90649   -715185.97445  24037289.871    24037292.486
  22298869.216    -8713406.46949  -6780071.18146  22298869.164    22298873.462
 04  1 10  3 31  0.0000000  0  8G18G16G21G 3G 6G15G29G26
  20356511.270   -21362908.59949 -14941267.64548  20356510.581    20356514.055
  23286584.070    -5718619.20149  -4447306.63845  23286583.263    23286586.609
  20573403.474   -18901833.08549 -14705954.56848  20573402.619    20573405.791
  23851244.418    -1707632.63049  -1317104.91545  23851244.397    23851246.493
  22035672.702    -9343665.44149  -7271535.69247  22035672.311    22035676.451
  21765538.386   -12317388.91249  -9173164.59847  21765537.362    21765542.442
  24051252.243    -1080561.81149   -658012.91345  24051251.916    24051254.797
  22309078.548    -8659755.68749  -6738265.38546  22309078.556    22309082.995
 04  1 10  3 31 30.0000000  0  8G18G16G21G 3G 6G15G29G26
  20355390.976   -21368795.59549 -14945854.92748  20355390.307    20355393.792
  23293616.082    -5681666.15949  -4418512.06145  23293615.455    23293618.317
  20574487.298   -18896138.02649 -14701516.86048  20574486.409    20574489.498
  23833280.573    -1802035.32649  -1390665.45545  23833280.233    23833282.079
  22052269.049    -9256451.29849  -7203576.64747  22052268.662    22052272.732
  21753910.846   -12378491.64249  -9220777.10347  21753909.861    21753914.876
  24065288.598    -1006799.80849   -600536.06645  24065288.436    24065291.351
  22319401.385    -8605508.96949  -6695995.22146  22319401.330    22319405.804
 04  1 10  3 32  0.0000000  0  8G18G16G21G 3G 6G15G29G26
  20354350.580   -21374262.88549 -14950115.14948  20354349.877    20354353.362
  23300731.631    -5644275.60449  -4389376.58945  23300730.740    23300733.296
  20575616.285   -18890205.17949 -14696893.87048  20575615.408    20575618.464
  23815357.155    -1896225.27949  -1464060.25045  23815356.642    23815358.453
  22068928.178    -9168907.14949  -7135360.45047  22068927.829    22068931.800
  21742306.418   -12439473.18149  -9268295.18247  21742305.445    21742310.510
  24079397.772     -932655.82149   -542761.54145  24079397.501    24079400.350
  22329836.149    -8550674.32549  -6653266.93046  22329836.036    22329840.588
 04  1 10  3 32 30.0000000  0  8G18G16G21G 3G 6G15G29G26
  20353390.258   -21379309.31949 -14954047.42248  20353389.552    20353393.029
  23307930.157    -5606447.89649  -4359900.45345  23307929.157    23307931.619
  20576791.063   -18884031.71749 -14692083.38648  20576790.195    20576793.267
  23797474.706    -1990198.35849  -1537285.99245  23797473.872    23797476.092
  22085650.144    -9081033.04849  -7066887.15547  22085649.773    22085653.677
  21730725.681   -12500330.94149  -9315716.79347  21730724.682    21730729.663
  24093579.601     -858130.39449   -484689.79644  24093579.213    24093582.371
  22340382.800    -8495251.45449  -6610080.28746  22340382.655    22340387.254
 04  1 10  3 33  0.0000000  0  8G18G16G21G 3G 6G15G29G26
  20352509.645   -21383936.83749 -14957653.28048  20352508.961    20352512.418
  23315211.210    -5568185.94449  -4330085.95845  23315210.176    23315212.600
  20578011.526   -18877618.19649 -14687085.83648  20578010.640    20578013.742
  23779633.741    -2083952.93449  -1610341.50745  23779632.843    23779635.321
  22102434.389    -8992831.78849  -6998158.93047  22102433.943    22102437.767
  21719168.277   -12561065.31949  -9363042.27147  21719167.214    21719172.278
  24107833.498     -783226.85249   -426323.41545  24107832.814    24107836.619
  22351040.855    -8439243.69949  -6566437.87446  22351040.646    22351045.204
 04  1 10  3 33 30.0000000  0  8G18G16G21G 3G 6G15G29G26
  20351708.678   -21388145.90749 -14960933.07448  20351707.996    20351711.439
  23322574.820    -5529491.40949  -4299934.40545  23322573.588    23322575.923
  20579277.781   -18870963.69449 -14681900.51048  20579276.943    20579280.064
  23761834.721    -2177485.80749  -1683224.26545  23761833.766    23761836.425
  22119280.520    -8904304.75049  -6929176.85147  22119280.111    22119283.879
  21707634.350   -12621675.15949  -9410270.72247  21707633.398    21707638.584
  24122158.594     -707946.82249   -367663.68145  24122157.868    24122162.335
  22361809.789    -8382652.31749  -6522340.69846  22361809.621    22361814.167
 04  1 10  3 34  0.0000000  0  8G18G16G21G 3G 6G15G29G26
  20350986.922   -21391938.57649 -14963888.39248  20350986.265    20350989.657
  23330019.722    -5490368.04149  -4269448.66445  23330018.782    23330020.660
  20580589.718   -18864068.93349 -14676527.97148  20580588.945    20580592.057
  23744078.015    -2270795.88749  -1755933.41645  23744077.029    23744080.436
  22136188.075    -8815455.14949  -6859943.43047  22136187.656    22136191.390
  21696124.402   -12682160.96349  -9457402.50247  21696123.396    21696128.428
  24136554.624     -632293.76749   -308713.23745  24136554.202    24136558.845
  22372689.280    -8325480.50049  -6477791.22346  22372689.120    22372693.637
 04  1 10  3 34 30.0000000  0  8G18G16G21G 3G 6G15G29G26
  20350344.647   -21395314.04749 -14966518.62748  20350343.940    20350347.286
  23337546.091    -5450815.83749  -4238628.76045  23337545.323    23337547.005
  20581947.933   -18856931.50449 -14670966.34148  20581947.174    20581950.236
  23726364.493    -2363879.05449  -1828465.75245  23726363.441    23726367.536
  22153156.978    -8726283.20349  -6790458.83447  22153156.509    22153160.338
  21684638.450   -12742520.14649  -9504435.62147  21684637.418    21684642.370
  24151021.866     -556268.22849   -249472.56445  24151021.197    24151026.126
  22383679.233    -8267728.49049  -6432789.65446  22383679.071    22383683.559
